[[{"header":{"parameterUnit":"m.s-1","parameterCategory":1,"la1":30.6,"la2":29.2853,"lo1":-89.7004,"lo2":-87.6739,"dy":0.0162,"dx":0.0183,"nx":112,"ny":82,"refTime":"2024-06-07T06:00:00:Z","depth":0,"parameterNumber":2,"parameterNumberName":"U-component_of_WINDS"},"data":[0.0,0.0,0.0,0.0,0.0,0.0,0.0,0.0,0.0,0.0,0.0,0.0,0.0,0.0,0.0,0.0,0.0,0.0,0.0,0.0,0.0,0.0,0.0,0.0,0.0,0.0,0.0,0.0,0.0,0.0,0.0,0.0,0.0,0.0,0.0,0.0,0.0,0.0,0.0,0.0,0.0,0.0,0.0,0.0,0.0,0.0,0.0,0.0,0.0,0.0,0.0,0.0,0.0,0.0,0.0,0.0,0.0,0.0,0.0,0.0,0.0,0.0,0.0,0.0,0.0,0.0,0.0,0.0,0.0,0.0,0.0,0.0,0.0,0.0,0.0,0.0,0.0,0.0,0.0,0.0,0.0,0.0,0.0,0.0,0.0,0.0,0.0,0.0,0.0,0.0,-0.4922,-0.6392,-0.7122,-0.7519,-0.7598,-0.7747,-0.7338,-0.634,0.0,0.0,0.0,0.0,0.0,0.0,0.0,0.0,0.0,0.0,0.0,0.0,0.0,0.0,0.0,0.0,0.0,0.0,0.0,0.0,0.0,0.0,0.0,0.0,0.0,0.0,0.0,0.0,0.0,0.0,0.0,0.0,0.0,0.0,0.0,0.0,0.0,0.0,0.0,0.0,0.0,0.0,0.0,0.0,0.0,0.0,0.0,0.0,0.0,0.0,0.0,0.0,0.0,0.0,0.0,0.0,0.0,0.0,0.0,0.0,0.0,0.0,0.0,0.0,0.0,0.0,0.0,0.0,0.0,0.0,0.0,0.0,0.0,0.0,0.0,0.0,0.0,0.0,0.0,0.0,0.0,0.0,0.0,0.0,0.0,0.0,0.0,0.0,0.0,0.0,0.0,0.0,0.0,0.0,0.0,0.0,0.0,0.0,0.0,0.0,0.0,0.0,0.0,0.0,-0.5072,-0.6566,-0.7234,-0.7512,-0.7543,-0.7116,-0.6719,-0.6237,0.0,0.0,0.0,0.0,0.0,0.0,0.0,0.0,0.0,0.0,0.0,0.0,0.0,0.0,0.0,0.0,0.0,0.0,0.0,0.0,0.0,0.0,0.0,0.0,0.0,0.0,0.0,0.0,0.0,0.0,0.0,0.0,0.0,0.0,0.0,0.0,0.0,0.0,0.0,0.0,0.0,0.0,0.0,0.0,0.0,0.0,0.0,0.0,0.0,0.0,0.0,0.0,0.0,0.0,0.0,0.0,0.0,0.0,0.0,0.0,0.0,0.0,0.0,0.0,0.0,0.0,0.0,0.0,0.0,0.0,0.0,0.0,0.0,0.0,0.0,0.0,0.0,0.0,0.0,0.0,0.0,0.0,0.0,0.0,0.0,0.0,0.0,0.0,0.0,0.0,0.0,0.0,0.0,0.0,0.0,0.0,0.0,0.0,0.0,0.0,0.0,0.0,0.0,-0.5521,-0.6205,-0.6763,-0.7215,-0.7521,-0.7521,-0.7265,-0.6857,-0.6229,-0.6337,0.0,0.0,0.0,0.0,0.0,0.0,0.0,0.0,0.0,0.0,0.0,0.0,0.0,0.0,0.0,0.0,0.0,0.0,0.0,0.0,0.0,0.0,0.0,0.0,0.0,0.0,0.0,0.0,0.0,0.0,0.0,0.0,0.0,0.0,0.0,0.0,0.0,0.0,0.0,0.0,0.0,0.0,0.0,0.0,0.0,0.0,0.0,0.0,0.0,0.0,0.0,0.0,0.0,0.0,0.0,0.0,0.0,0.0,0.0,0.0,0.0,0.0,0.0,0.0,0.0,0.0,0.0,0.0,0.0,0.0,0.0,0.0,0.0,0.0,0.0,0.0,0.0,0.0,0.0,0.0,0.0,0.0,0.0,0.0,0.0,0.0,0.0,0.0,0.0,0.0,0.0,0.0,0.0,0.0,0.0,0.0,0.0,0.0,0.0,0.0,0.0,0.0,-0.6461,-0.7026,-0.681,-0.7215,-0.7521,-0.7521,-0.7371,-0.7002,-0.622,-0.6084,0.0,0.0,0.0,0.0,0.0,0.0,0.0,0.0,0.0,0.0,0.0,0.0,0.0,0.0,0.0,0.0,0.0,0.0,0.0,0.0,0.0,0.0,0.0,0.0,0.0,0.0,0.0,0.0,0.0,0.0,0.0,0.0,0.0,0.0,0.0,0.0,0.0,0.0,0.0,0.0,0.0,0.0,0.0,0.0,0.0,0.0,0.0,0.0,0.0,0.0,0.0,0.0,0.0,0.0,0.0,0.0,0.0,0.0,0.0,0.0,0.0,0.0,0.0,0.0,0.0,0.0,0.0,0.0,0.0,0.0,0.0,0.0,0.0,0.0,0.0,0.0,0.0,0.0,0.0,0.0,0.0,0.0,0.0,0.0,0.0,0.0,0.0,0.0,0.0,0.0,0.0,0.0,0.0,0.0,0.0,0.0,0.0,0.0,0.0,0.0,0.0,0.0,-0.6256,-0.681,-0.6796,-0.7215,-0.7521,-0.7521,-0.7111,-0.6646,-0.6206,-0.5868,0.0,0.0,0.0,0.0,0.0,0.0,0.0,0.0,0.0,0.0,0.0,0.0,0.0,0.0,0.0,0.0,0.0,0.0,0.0,0.0,0.0,0.0,0.0,0.0,0.0,0.0,0.0,0.0,0.0,0.0,0.0,0.0,0.0,0.0,0.0,0.0,0.0,0.0,0.0,0.0,0.0,0.0,0.0,0.0,0.0,0.0,0.0,0.0,0.0,0.0,0.0,0.0,0.0,0.0,0.0,0.0,0.0,0.0,0.0,0.0,0.0,0.0,0.0,0.0,0.0,0.0,0.0,0.0,0.0,0.0,0.0,0.0,0.0,0.0,0.0,0.0,0.0,0.0,0.0,0.0,0.0,0.0,0.0,0.0,0.0,0.0,0.0,0.0,0.0,0.0,0.0,0.0,0.0,0.0,0.0,0.0,0.0,0.0,0.0,0.0,0.0,0.0,-0.643,-0.6843,0.0,-0.7291,-0.7521,-0.7521,-0.7314,-0.6998,-0.6398,0.0,0.0,0.0,0.0,0.0,0.0,0.0,0.0,0.0,0.0,0.0,0.0,0.0,0.0,0.0,0.0,0.0,0.0,0.0,0.0,0.0,0.0,0.0,0.0,0.0,0.0,0.0,0.0,0.0,0.0,0.0,0.0,0.0,0.0,0.0,0.0,0.0,0.0,0.0,0.0,0.0,0.0,0.0,0.0,0.0,0.0,0.0,0.0,0.0,0.0,0.0,0.0,0.0,0.0,0.0,0.0,0.0,0.0,0.0,0.0,0.0,0.0,0.0,0.0,0.0,0.0,0.0,0.0,0.0,0.0,0.0,0.0,0.0,0.0,0.0,0.0,0.0,0.0,0.0,0.0,0.0,0.0,0.0,0.0,0.0,0.0,0.0,0.0,0.0,0.0,0.0,0.0,0.0,0.0,0.0,0.0,0.0,0.0,0.0,0.0,0.0,0.0,-0.6131,-0.6711,-0.713,0.0,-0.7663,-0.7722,-0.7526,-0.734,-0.6984,-0.6386,0.0,0.0,0.0,0.0,0.0,0.0,0.0,0.0,0.0,0.0,0.0,0.0,0.0,0.0,0.0,0.0,0.0,0.0,0.0,0.0,0.0,0.0,0.0,0.0,0.0,0.0,0.0,0.0,0.0,0.0,0.0,0.0,0.0,0.0,0.0,0.0,0.0,0.0,0.0,0.0,0.0,0.0,0.0,0.0,0.0,0.0,0.0,0.0,0.0,0.0,0.0,0.0,0.0,0.0,0.0,0.0,0.0,0.0,0.0,0.0,0.0,0.0,0.0,0.0,0.0,0.0,0.0,0.0,0.0,0.0,0.0,0.0,0.0,0.0,0.0,0.0,0.0,0.0,0.0,0.0,0.0,0.0,0.0,0.0,0.0,0.0,0.0,0.0,0.0,0.0,0.0,0.0,0.0,0.0,0.0,0.0,0.0,0.0,0.0,0.0,0.0,0.0,-0.6154,-0.7077,-0.7731,-0.7731,-0.8185,-0.8247,-0.7591,-0.6954,-0.6425,0.0,0.0,0.0,0.0,0.0,0.0,0.0,0.0,0.0,0.0,0.0,0.0,0.0,0.0,0.0,0.0,0.0,0.0,0.0,0.0,0.0,0.0,0.0,0.0,0.0,0.0,0.0,0.0,0.0,0.0,0.0,0.0,0.0,0.0,0.0,0.0,0.0,0.0,0.0,0.0,0.0,0.0,0.0,0.0,0.0,0.0,0.0,0.0,0.0,0.0,0.0,0.0,0.0,0.0,0.0,0.0,0.0,0.0,0.0,0.0,0.0,0.0,0.0,0.0,0.0,0.0,0.0,0.0,0.0,0.0,0.0,0.0,0.0,0.0,0.0,0.0,0.0,0.0,0.0,0.0,0.0,0.0,0.0,0.0,0.0,0.0,0.0,0.0,0.0,0.0,0.0,0.0,0.0,0.0,0.0,0.0,0.0,0.0,0.0,0.0,0.0,0.0,0.0,-0.6794,-0.7524,-0.809,-0.8265,-0.8409,-0.8247,-0.7591,-0.7216,-0.6657,-0.5866,0.0,0.0,0.0,0.0,0.0,0.0,0.0,0.0,0.0,0.0,0.0,0.0,0.0,0.0,0.0,0.0,0.0,0.0,0.0,0.0,0.0,0.0,0.0,0.0,0.0,0.0,0.0,0.0,0.0,0.0,0.0,0.0,0.0,0.0,0.0,0.0,0.0,0.0,0.0,0.0,0.0,0.0,0.0,0.0,0.0,0.0,0.0,0.0,0.0,0.0,0.0,0.0,0.0,0.0,0.0,0.0,0.0,0.0,0.0,0.0,0.0,0.0,0.0,0.0,0.0,0.0,0.0,0.0,0.0,0.0,0.0,0.0,0.0,0.0,0.0,0.0,0.0,0.0,0.0,0.0,0.0,0.0,0.0,0.0,0.0,0.0,0.0,0.0,0.0,0.0,0.0,0.0,0.0,0.0,0.0,0.0,0.0,0.0,0.0,0.0,0.0,0.0,-0.7012,-0.7941,-0.8535,-0.8683,-0.8571,-0.8242,-0.7521,-0.7072,-0.6436,-0.565,0.0,0.0,0.0,0.0,0.0,0.0,0.0,0.0,0.0,0.0,0.0,0.0,0.0,0.0,0.0,0.0,0.0,0.0,0.0,0.0,0.0,0.0,0.0,0.0,0.0,0.0,0.0,0.0,0.0,0.0,0.0,0.0,0.0,0.0,0.0,0.0,0.0,0.0,0.0,0.0,0.0,0.0,0.0,0.0,0.0,0.0,0.0,0.0,0.0,0.0,0.0,0.0,0.0,0.0,0.0,0.0,0.0,0.0,0.0,0.0,0.0,0.0,0.0,0.0,0.0,0.0,0.0,0.0,0.0,0.0,0.0,0.0,0.0,0.0,0.0,0.0,0.0,0.0,0.0,0.0,0.0,0.0,0.0,0.0,0.0,0.0,0.0,0.0,0.0,0.0,0.0,0.0,0.0,0.0,0.0,0.0,0.0,0.0,0.0,0.0,0.0,0.0,-0.711,-0.8265,-0.9017,-0.9017,-0.8689,-0.8231,-0.7451,-0.6693,-0.5946,-0.5354,0.0,0.0,0.0,0.0,0.0,0.0,0.0,0.0,0.0,0.0,0.0,0.0,0.0,0.0,0.0,0.0,0.0,0.0,0.0,0.0,0.0,0.0,0.0,0.0,0.0,0.0,0.0,0.0,0.0,0.0,0.0,0.0,0.0,0.0,0.0,0.0,0.0,0.0,0.0,0.0,0.0,0.0,0.0,0.0,0.0,0.0,0.0,0.0,0.0,0.0,0.0,0.0,0.0,0.0,0.0,0.0,0.0,0.0,0.0,0.0,-0.3315,-0.3121,0.0,0.0,0.0,0.0,0.0,0.0,0.0,0.0,0.0,0.0,0.0,0.0,0.0,0.0,0.0,0.0,0.0,0.0,0.0,0.0,0.0,0.0,0.0,0.0,0.0,0.0,0.0,0.0,0.0,0.0,0.0,0.0,0.0,0.0,0.0,0.0,0.0,0.0,0.0,0.0,-0.7677,-0.8685,-0.9414,-0.9414,-0.8882,-0.8231,-0.7451,-0.6693,-0.5821,-0.4921,-0.4324,0.0,0.0,0.0,0.0,0.0,0.0,0.0,0.0,0.0,0.0,0.0,0.0,0.0,0.0,0.0,0.0,0.0,0.0,0.0,0.0,0.0,0.0,0.0,0.0,0.0,0.0,0.0,0.0,0.0,0.0,0.0,0.0,0.0,0.0,0.0,0.0,0.0,0.0,0.0,0.0,0.0,0.0,0.0,0.0,0.0,0.0,0.0,0.0,0.0,0.0,0.0,0.0,0.0,0.0,0.0,0.0,0.0,0.0,0.0,-0.3463,-0.3335,0.0,0.0,0.0,0.0,0.0,0.0,0.0,0.0,0.0,0.0,0.0,0.0,0.0,0.0,0.0,0.0,0.0,0.0,0.0,0.0,0.0,0.0,0.0,0.0,0.0,0.0,0.0,0.0,0.0,0.0,0.0,0.0,0.0,0.0,0.0,0.0,0.0,0.0,0.0,0.0,-0.7156,-0.8267,-0.8888,-0.8501,-0.7902,-0.7312,-0.6924,-0.6258,-0.553,-0.4867,-0.4454,0.0,0.0,0.0,0.0,0.0,0.0,0.0,0.0,0.0,0.0,0.0,0.0,0.0,0.0,0.0,0.0,0.0,0.0,0.0,0.0,0.0,0.0,0.0,0.0,0.0,0.0,0.0,0.0,0.0,0.0,0.0,0.0,0.0,0.0,0.0,0.0,0.0,0.0,0.0,0.0,0.0,0.0,0.0,0.0,0.0,0.0,0.0,0.0,0.0,0.0,0.0,0.0,0.0,-0.3941,-0.3998,-0.3996,-0.3977,-0.4038,-0.4041,-0.3718,-0.368,-0.3837,-0.3683,0.0,0.0,0.0,0.0,0.0,0.0,0.0,0.0,0.0,0.0,0.0,0.0,0.0,0.0,0.0,0.0,0.0,0.0,0.0,0.0,0.0,0.0,-0.4127,-0.4504,-0.4653,-0.4615,-0.4397,0.0,0.0,0.0,0.0,0.0,0.0,0.0,0.0,0.0,0.0,0.0,-0.6475,-0.7585,-0.8103,-0.7555,-0.6862,-0.6444,-0.6444,-0.5767,-0.5243,-0.4972,-0.469,-0.4435,0.0,0.0,0.0,0.0,0.0,0.0,0.0,0.0,0.0,0.0,0.0,0.0,0.0,0.0,0.0,0.0,0.0,0.0,0.0,0.0,0.0,0.0,0.0,0.0,0.0,0.0,0.0,0.0,0.0,0.0,0.0,0.0,-0.2544,-0.2866,0.0,0.0,0.0,0.0,0.0,0.0,0.0,0.0,0.0,0.0,0.0,0.0,0.0,-0.3757,-0.3863,-0.4001,-0.4069,-0.4072,-0.4194,-0.4317,-0.4506,-0.44,-0.4476,-0.4701,-0.4532,0.0,-0.3909,-0.3895,0.0,0.0,0.0,0.0,0.0,0.0,0.0,0.0,0.0,0.0,0.0,0.0,0.0,0.0,0.0,0.0,0.0,0.0,0.0,0.0,0.0,0.0,-0.4937,-0.4985,-0.5225,-0.5332,-0.5242,-0.471,-0.4274,-0.4276,-0.3905,-0.3574,0.0,0.0,0.0,0.0,0.0,0.0,-0.6715,-0.7366,-0.7782,-0.7827,-0.7074,-0.6567,-0.6567,-0.5833,-0.5287,-0.5111,-0.4907,-0.4743,-0.4609,-0.4301,0.0,0.0,0.0,0.0,0.0,0.0,0.0,0.0,0.0,0.0,0.0,0.0,0.0,0.0,0.0,0.0,0.0,0.0,0.0,0.0,0.0,0.0,0.0,0.0,0.0,0.0,0.0,0.0,0.0,-0.247,-0.2826,-0.2981,-0.3099,-0.3218,0.0,0.0,0.0,0.0,0.0,0.0,0.0,0.0,0.0,-0.4191,-0.4148,-0.4088,-0.414,-0.4325,-0.4488,-0.4628,-0.4685,-0.4778,-0.4981,-0.4924,-0.4999,-0.505,-0.4989,-0.4863,-0.4657,-0.4374,-0.4238,-0.4074,0.0,0.0,0.0,0.0,-0.3887,-0.4025,-0.4083,-0.4088,-0.4168,-0.4168,0.0,0.0,0.0,0.0,0.0,0.0,0.0,-0.4497,-0.4903,-0.5164,-0.5309,-0.5461,-0.5567,-0.5698,-0.5637,-0.5319,-0.5026,-0.4766,-0.466,-0.4487,-0.4181,-0.433,0.0,0.0,0.0,-0.6117,-0.6116,-0.6781,-0.7131,-0.6785,-0.6376,-0.6088,-0.6073,-0.573,-0.5386,-0.5145,-0.5074,-0.4972,-0.4826,-0.4613,-0.4426,0.0,0.0,0.0,0.0,0.0,0.0,0.0,0.0,0.0,0.0,0.0,0.0,0.0,0.0,0.0,0.0,0.0,0.0,0.0,0.0,0.0,0.0,0.0,0.0,0.0,0.0,0.0,0.0,-0.2786,-0.3067,-0.3128,-0.3259,-0.3324,0.0,0.0,0.0,0.0,0.0,0.0,-0.4904,-0.4822,-0.4856,-0.4895,-0.4544,-0.439,-0.439,-0.4637,-0.4887,-0.4991,-0.5032,-0.5177,-0.5422,-0.5387,-0.5372,-0.5444,-0.5444,-0.5444,-0.5418,-0.4971,-0.4699,-0.464,-0.4517,-0.4496,-0.4593,-0.431,-0.4388,-0.4558,-0.4552,-0.4639,-0.4748,-0.4781,-0.4701,-0.4637,-0.4637,0.0,0.0,0.0,0.0,-0.4982,-0.5365,-0.5527,-0.5583,-0.5833,-0.5888,-0.5908,-0.5867,-0.5861,-0.5718,-0.5107,-0.5209,-0.5283,-0.4809,-0.4658,0.0,-0.5297,-0.5781,-0.5958,-0.5748,-0.6297,-0.6455,-0.5988,-0.5884,-0.58,-0.5657,-0.561,-0.5474,-0.5206,-0.5152,-0.5084,-0.4975,-0.483,-0.4677,-0.458,0.0,0.0,0.0,0.0,0.0,0.0,0.0,0.0,0.0,0.0,0.0,0.0,0.0,0.0,0.0,0.0,0.0,0.0,0.0,0.0,0.0,0.0,0.0,0.0,0.0,0.0,0.0,0.0,0.0,-0.3528,-0.3561,0.0,0.0,0.0,0.0,-0.4626,-0.5115,-0.5552,-0.5735,-0.5315,-0.5196,-0.5339,-0.4924,-0.4706,-0.4706,-0.4867,-0.5003,-0.5116,-0.5216,-0.5438,-0.5706,-0.558,-0.5591,-0.5803,-0.5803,-0.5803,-0.5728,-0.5421,-0.5188,-0.5061,-0.5061,-0.4987,-0.4894,-0.5015,-0.5064,-0.5092,-0.5232,-0.5194,-0.5105,-0.5238,-0.5179,-0.5061,-0.5061,-0.4978,0.0,0.0,-0.5356,-0.5458,-0.5681,-0.5898,-0.6006,-0.6017,-0.6132,-0.6196,-0.6051,-0.6169,-0.6117,-0.5496,-0.5367,-0.5418,-0.5326,0.0,-0.5246,-0.5733,-0.5703,-0.5681,-0.5969,-0.6013,-0.6074,-0.6224,-0.6105,-0.5956,-0.5803,-0.5667,-0.5521,-0.5425,-0.5213,-0.5128,-0.5121,-0.4982,-0.4833,-0.468,-0.4521,0.0,0.0,0.0,0.0,0.0,0.0,0.0,0.0,0.0,0.0,0.0,0.0,0.0,0.0,0.0,0.0,0.0,0.0,0.0,0.0,0.0,0.0,0.0,0.0,0.0,0.0,0.0,0.0,-0.3721,-0.3762,0.0,-0.3865,-0.4488,-0.4908,-0.4993,-0.5933,-0.6398,-0.6173,-0.6029,-0.5737,-0.5441,-0.5,-0.4842,-0.4987,-0.5144,-0.536,-0.5631,-0.5661,-0.5819,-0.6096,-0.6046,-0.6023,-0.6098,-0.6098,-0.6149,-0.6234,-0.6157,-0.5881,-0.5509,-0.5441,-0.5409,-0.544,-0.5277,-0.535,-0.5507,-0.5414,-0.5472,-0.5495,-0.56,-0.5623,-0.558,-0.558,-0.5544,-0.5537,-0.5755,-0.5798,-0.5832,-0.6057,-0.6135,-0.6179,-0.6179,-0.622,-0.6244,-0.619,-0.6256,-0.6239,-0.6029,-0.5971,-0.5987,-0.5964,-0.5762,-0.5664,-0.6082,-0.596,-0.5949,-0.6152,-0.6179,-0.62,-0.6254,-0.621,-0.6078,-0.5823,-0.5755,-0.5623,-0.5446,-0.5311,-0.5281,-0.5281,-0.5047,-0.4894,-0.484,-0.4589,-0.4268,0.0,0.0,0.0,0.0,0.0,0.0,0.0,0.0,0.0,0.0,0.0,0.0,0.0,0.0,0.0,0.0,0.0,0.0,0.0,0.0,0.0,0.0,0.0,0.0,0.0,0.0,-0.3649,-0.3792,-0.3887,-0.3904,-0.405,-0.4954,-0.5611,-0.5827,-0.6834,-0.7333,-0.7101,-0.6603,-0.6215,-0.5874,-0.5442,-0.526,-0.5331,-0.55,-0.5698,-0.6015,-0.609,-0.6198,-0.641,-0.641,-0.641,-0.641,-0.641,-0.6464,-0.6549,-0.6549,-0.6373,-0.6105,-0.5957,-0.5927,-0.6027,-0.5803,-0.5761,-0.5875,-0.5806,-0.5806,-0.5934,-0.5986,-0.5956,-0.5956,-0.5956,-0.5956,-0.5979,-0.6081,-0.6108,-0.6132,-0.6234,-0.6338,-0.6338,-0.6338,-0.6338,-0.6338,-0.6338,-0.6338,-0.6338,-0.6338,-0.6328,-0.6306,-0.6281,-0.612,-0.6033,-0.6261,-0.6197,-0.6146,-0.6247,-0.6338,-0.6338,-0.6338,-0.6338,-0.6135,-0.5827,-0.58,-0.5674,-0.5449,-0.5428,-0.5428,-0.5428,-0.5121,-0.4969,-0.4921,-0.4546,-0.4289,-0.4016,0.0,0.0,0.0,0.0,0.0,0.0,0.0,0.0,0.0,0.0,0.0,0.0,0.0,0.0,0.0,0.0,0.0,0.0,0.0,0.0,0.0,0.0,0.0,-0.3644,-0.3866,-0.3988,-0.3928,-0.3947,-0.4045,-0.4284,-0.5701,-0.6709,-0.6986,-0.7664,-0.8188,-0.8328,-0.6998,-0.6395,-0.6773,-0.6234,-0.5916,-0.5916,-0.6083,-0.6247,-0.6247,-0.6401,-0.6556,-0.6702,-0.6702,-0.6702,-0.6702,-0.6702,-0.6705,-0.6709,-0.6709,-0.6712,-0.6712,-0.6705,-0.661,-0.6478,-0.6478,-0.6393,-0.6274,-0.6274,-0.6274,-0.6274,-0.6274,-0.6274,-0.6274,-0.6274,-0.6274,-0.6352,-0.6271,-0.6268,-0.6268,-0.6268,-0.6264,-0.6264,-0.6345,-0.6268,-0.6345,-0.6264,-0.6264,-0.6268,-0.6268,-0.6264,-0.6338,-0.6338,-0.6338,-0.6338,-0.6338,-0.6338,0.0,-0.6338,-0.6338,-0.6338,-0.6338,-0.6338,-0.6139,-0.5833,-0.5803,-0.5677,-0.5452,-0.5432,-0.5428,-0.5428,-0.5213,-0.506,-0.4918,-0.446,-0.43,-0.448,0.0,0.0,0.0,0.0,0.0,0.0,0.0,0.0,0.0,0.0,0.0,0.0,0.0,0.0,0.0,0.0,0.0,0.0,0.0,0.0,0.0,0.0,-0.3938,-0.3883,-0.4008,-0.4091,-0.4247,-0.4415,-0.4622,-0.4828,-0.6342,-0.7097,-0.6614,-0.7773,-0.8107,-0.7179,-0.6832,-0.6458,-0.6147,-0.6091,-0.6141,-0.622,-0.6305,-0.6388,-0.6558,-0.6637,-0.6661,-0.6702,-0.6702,-0.6702,-0.6702,-0.6702,-0.6763,-0.6865,-0.6865,-0.6926,-0.6997,-0.6783,-0.6675,-0.6637,-0.6637,-0.6614,-0.658,-0.658,-0.658,-0.658,-0.658,-0.658,-0.658,-0.658,-0.658,-0.6556,-0.6444,-0.6413,-0.6413,-0.6413,-0.6339,-0.6288,-0.639,-0.6413,-0.6386,-0.6285,-0.6342,-0.6413,-0.6413,-0.6332,-0.6338,-0.6338,-0.6338,-0.6338,-0.6338,-0.6338,-0.6338,-0.6338,-0.6338,-0.6338,-0.6338,-0.6338,-0.6179,-0.5983,-0.5864,-0.5722,-0.5538,-0.5423,-0.5428,-0.5428,-0.5213,-0.503,-0.4932,-0.4702,-0.4556,0.0,0.0,0.0,0.0,0.0,0.0,0.0,0.0,0.0,0.0,0.0,0.0,0.0,0.0,0.0,0.0,0.0,0.0,0.0,0.0,0.0,0.0,-0.3978,-0.4267,-0.4264,-0.4278,-0.4408,-0.4644,-0.486,-0.5002,-0.5256,-0.6499,-0.7158,-0.6787,-0.7714,-0.7897,-0.7122,-0.6882,-0.6593,-0.6331,-0.6415,-0.6457,-0.6622,-0.6622,-0.6709,-0.6797,-0.6797,-0.6827,-0.6885,-0.6885,-0.6885,-0.6885,-0.6885,-0.6936,-0.7017,-0.7017,-0.7065,-0.7122,0.0,0.0,0.0,0.0,-0.6702,-0.6702,-0.6702,-0.6702,-0.6702,-0.6702,-0.6702,-0.6702,-0.6702,-0.6702,-0.6681,-0.6593,-0.6566,-0.6566,-0.6566,-0.6508,-0.6468,-0.6549,-0.6566,-0.6546,-0.6461,-0.6508,-0.6549,-0.6401,-0.6458,0.0,-0.6363,-0.6349,-0.6373,-0.6434,-0.6444,-0.6424,-0.6359,-0.6349,-0.6325,-0.6268,-0.6338,-0.62,-0.604,-0.5949,0.0,0.0,0.0,-0.5399,-0.527,-0.5179,0.0,0.0,0.0,0.0,0.0,-0.5032,0.0,0.0,-0.4823,-0.4806,0.0,0.0,0.0,0.0,0.0,0.0,0.0,0.0,0.0,0.0,0.0,0.0,0.0,0.0,0.0,0.0,-0.4213,-0.4618,-0.4626,-0.4659,-0.4757,-0.5064,-0.5108,-0.5219,-0.5557,-0.6481,-0.7072,-0.7076,-0.7477,-0.7656,-0.7577,-0.7037,0.0,0.0,0.0,-0.6953,-0.6953,-0.6953,-0.6953,-0.6953,-0.6953,-0.7017,-0.7139,-0.7139,-0.7139,-0.7139,-0.7139,-0.7139,-0.7139,-0.7139,-0.7139,-0.7139,-0.7139,-0.7061,-0.6936,-0.68,-0.6749,-0.6749,-0.6749,0.0,0.0,-0.6749,-0.6749,-0.6749,-0.6749,-0.6749,-0.6746,-0.6729,-0.6725,-0.6725,-0.6725,-0.6712,-0.6705,-0.6722,-0.6725,-0.6722,-0.6619,-0.6629,-0.6685,-0.6384,-0.6535,-0.6668,-0.6566,-0.6519,-0.6546,-0.6678,-0.6702,-0.6651,-0.6515,-0.6481,-0.6424,-0.6298,-0.6349,0.0,-0.6067,-0.604,-0.5973,-0.5837,-0.5691,-0.5491,-0.5216,-0.5196,-0.5162,-0.5161,-0.5333,-0.5485,-0.5654,-0.5738,-0.5833,-0.5789,-0.5264,-0.5159,0.0,0.0,0.0,0.0,0.0,0.0,0.0,0.0,0.0,0.0,0.0,0.0,0.0,0.0,0.0,-0.4357,-0.4534,-0.4696,-0.496,-0.5081,-0.5173,-0.5227,-0.5335,-0.5545,-0.5864,-0.6817,-0.7138,-0.6486,-0.725,-0.7418,-0.6788,-0.6816,-0.6898,-0.6926,-0.7041,-0.7099,-0.7099,-0.7099,-0.7099,-0.7099,-0.7099,0.0,-0.7139,-0.7139,-0.7139,-0.7139,-0.7139,-0.7139,-0.7139,-0.7139,-0.7139,-0.7139,-0.7139,-0.7122,-0.7095,-0.7065,-0.7054,-0.7054,-0.7054,-0.7054,-0.7054,-0.7054,-0.7054,-0.7054,-0.7054,-0.7054,0.0,-0.6915,-0.6885,-0.6885,-0.6885,-0.6793,-0.6732,-0.6854,-0.6885,-0.6851,-0.6642,-0.6713,-0.679,-0.6759,-0.6679,-0.6766,-0.6976,-0.6814,-0.6668,-0.6695,-0.6702,-0.6692,-0.6661,-0.6549,-0.6461,-0.6434,-0.6329,-0.6247,-0.6217,-0.6101,-0.6017,-0.5986,-0.5844,-0.5735,-0.5674,-0.5669,-0.5688,-0.5647,-0.569,-0.5703,-0.5752,-0.5771,-0.5813,-0.5796,-0.5684,-0.5661,0.0,0.0,0.0,0.0,0.0,0.0,0.0,0.0,0.0,0.0,0.0,-0.394,0.0,0.0,-0.443,-0.458,-0.475,-0.4951,-0.5167,-0.5329,-0.5474,-0.554,-0.5682,-0.5831,-0.6132,-0.6662,-0.6834,-0.6445,-0.6975,-0.7109,-0.6702,-0.6912,-0.7034,-0.7034,-0.7102,-0.7139,-0.7139,-0.7139,-0.7139,-0.7139,-0.7139,-0.7139,-0.7139,-0.7139,-0.7139,-0.7139,-0.7139,-0.7139,-0.7139,-0.7139,-0.7139,-0.7139,-0.7139,-0.7139,-0.7139,-0.7139,-0.7139,-0.7139,-0.7139,-0.7139,-0.7139,-0.7139,-0.7139,-0.7139,-0.7139,-0.7139,-0.7126,-0.7054,-0.7034,-0.7034,-0.7034,-0.698,-0.6939,-0.7017,-0.7034,-0.7014,-0.685,-0.6893,-0.7014,-0.6943,-0.6926,-0.6946,-0.7021,-0.697,-0.6919,-0.6919,-0.6919,-0.6895,-0.6824,-0.6749,-0.6644,-0.6488,-0.641,-0.6339,-0.6345,-0.619,-0.6112,-0.6034,-0.5959,-0.5881,-0.5803,-0.5782,-0.578,-0.5797,-0.5854,-0.5874,-0.5864,-0.6018,-0.6023,-0.603,-0.603,-0.5989,0.0,0.0,0.0,0.0,0.0,0.0,0.0,0.0,-0.4026,-0.4201,-0.4288,-0.4467,-0.4725,-0.4836,-0.4885,-0.4769,-0.5006,-0.5239,-0.5343,-0.5567,-0.5718,-0.5833,-0.5956,-0.6091,-0.6247,-0.639,-0.6471,-0.6471,-0.6756,-0.6929,-0.6929,-0.7061,-0.7139,-0.7139,-0.7139,-0.7139,-0.7139,-0.7139,-0.7139,-0.7139,-0.7139,-0.7139,-0.7139,-0.7139,-0.7139,-0.7139,-0.7139,-0.7139,-0.7139,-0.7139,-0.7139,-0.7139,-0.7139,-0.7139,-0.7139,-0.7139,-0.7139,-0.7139,-0.7139,-0.7139,-0.7139,-0.7139,-0.7139,-0.7139,-0.7139,-0.7139,-0.7139,-0.7139,-0.7139,-0.7139,-0.7139,-0.7139,-0.7139,-0.7139,-0.7139,-0.7139,-0.7139,-0.7139,-0.7109,-0.7083,-0.7065,-0.7102,-0.699,-0.7065,-0.7139,-0.7139,-0.7139,-0.7099,-0.6987,-0.6946,-0.6834,-0.6586,-0.6532,-0.6458,-0.6315,-0.6278,-0.6207,-0.6084,-0.6074,-0.602,-0.5895,-0.5892,-0.5885,-0.5891,-0.6018,-0.6069,-0.6022,-0.6257,-0.6338,-0.6338,-0.6338,-0.6193,-0.3843,-0.3802,-0.3863,-0.4097,-0.407,-0.4033,0.0,0.0,-0.4619,-0.4636,-0.4641,-0.4732,-0.5014,-0.4985,-0.4974,-0.5245,-0.545,-0.5552,-0.5583,-0.5813,-0.5986,-0.6003,-0.602,-0.6091,-0.6247,-0.639,-0.6471,-0.6471,-0.6756,-0.6929,-0.6929,-0.7061,-0.7139,-0.7139,-0.7139,-0.7139,-0.7139,-0.7139,-0.7139,-0.7139,-0.7139,-0.7139,-0.7139,-0.7139,-0.7139,-0.7139,-0.7139,-0.7139,-0.7139,-0.7139,-0.7139,-0.7139,-0.7139,-0.7139,-0.7139,-0.7139,-0.7139,-0.7139,-0.7139,-0.7139,-0.7139,-0.7139,-0.7139,-0.7139,-0.7139,-0.7139,-0.7139,-0.7139,-0.7139,-0.7139,-0.7139,-0.7139,-0.7139,-0.7139,-0.7139,-0.7139,-0.7139,-0.7139,-0.7136,-0.7119,-0.7129,-0.7136,-0.7119,-0.7129,-0.7139,-0.7139,-0.7139,-0.7136,-0.7119,-0.7007,-0.6915,-0.6881,-0.6756,-0.6614,-0.6461,-0.6332,-0.6254,-0.6237,-0.6234,-0.6227,-0.621,-0.6276,-0.6276,-0.621,-0.6252,-0.6273,-0.6261,-0.6261,-0.6338,-0.6338,-0.6338,-0.6251,-0.4199,-0.4182,-0.4212,0.0,-0.4324,-0.4311,-0.4488,-0.4579,-0.4714,-0.4806,-0.4877,-0.5024,-0.5237,-0.5202,-0.5225,0.0,-0.5491,-0.5616,-0.5701,-0.5895,-0.6064,-0.6156,-0.6166,-0.622,-0.6369,-0.6519,-0.6644,-0.6729,-0.6932,-0.7051,-0.7051,-0.7109,-0.7139,-0.7139,-0.7139,-0.7139,-0.7139,-0.7139,-0.7139,-0.7139,-0.7139,-0.7139,-0.7139,-0.7139,-0.7139,-0.7139,-0.7139,-0.7139,-0.7139,-0.7139,-0.7139,-0.7139,-0.7139,-0.7139,-0.7139,-0.7139,-0.7139,-0.7139,-0.7139,-0.7139,-0.7139,-0.7139,-0.7139,-0.7139,-0.7139,-0.7139,-0.7139,-0.7139,-0.7139,-0.7139,-0.7139,-0.7139,-0.7139,-0.7139,-0.7139,-0.7139,-0.7139,-0.7139,-0.7139,-0.7139,-0.7139,-0.7139,-0.7139,-0.7139,-0.7139,-0.7139,-0.7139,-0.7139,-0.7139,-0.7088,-0.7021,-0.6939,-0.6793,-0.6637,-0.6485,-0.6417,-0.6349,-0.6345,-0.6338,-0.6338,-0.6338,-0.6338,-0.6338,-0.6338,-0.6338,-0.6338,-0.6338,-0.6338,-0.6338,-0.6342,-0.6346,-0.6383,-0.4519,0.0,0.0,-0.4519,-0.4519,-0.4519,-0.4519,-0.4613,-0.4785,-0.4897,-0.5067,-0.5226,-0.5342,-0.5428,-0.5442,-0.5416,-0.5549,-0.5698,-0.5844,-0.5996,-0.6135,-0.6247,-0.6338,-0.6332,-0.6519,-0.6634,-0.6763,-0.6915,-0.7061,-0.7139,-0.7139,-0.7139,-0.7139,-0.7139,-0.7139,-0.7163,-0.7204,-0.7204,-0.7224,-0.7268,-0.7268,-0.7268,-0.7265,-0.7224,-0.718,-0.7051,-0.6786,-0.6697,-0.6697,-0.6428,-0.6337,-0.6337,-0.6605,-0.6697,-0.6786,-0.6962,-0.7139,-0.7139,-0.7139,-0.7139,-0.7051,-0.6786,-0.6697,-0.6697,-0.6697,-0.6517,-0.6425,-0.6605,-0.6517,-0.6337,-0.6337,-0.6337,-0.6337,-0.6337,-0.6337,-0.6337,-0.652,-0.6428,-0.6245,-0.6065,-0.6245,-0.6337,-0.6337,-0.6337,-0.6428,-0.6697,-0.6697,-0.6697,-0.6697,-0.6697,-0.6747,-0.691,-0.6854,-0.6719,-0.6607,-0.6559,-0.6481,-0.6352,-0.6342,-0.6318,-0.6342,-0.6338,-0.6338,-0.6338,-0.6338,-0.6338,-0.6338,-0.6338,-0.6281,-0.6322,-0.6424,-0.6495,0.0,0.0,-0.4519,-0.4519,-0.4519,-0.4519,-0.4519,-0.4697,-0.4914,-0.4918,-0.5152,-0.5422,-0.5428,-0.5428,-0.541,-0.5559,-0.5701,-0.5847,-0.6,-0.6156,-0.6254,-0.6261,-0.6338,-0.6376,0.0,-0.6698,-0.6763,-0.6915,-0.7061,-0.7139,-0.7139,-0.7139,-0.7139,-0.7139,-0.7139,-0.7214,-0.7363,-0.7363,-0.7438,-0.7587,-0.7587,-0.7587,-0.758,-0.7434,-0.7282,-0.7051,-0.6163,-0.5719,-0.563,-0.4734,-0.4376,-0.4465,-0.5361,-0.5719,-0.5808,-0.6786,-0.7139,-0.7139,-0.7139,-0.7139,-0.6962,-0.6074,-0.5719,-0.5719,-0.5719,-0.5092,-0.4556,-0.545,-0.5092,-0.4376,-0.4376,-0.4376,-0.4376,-0.4376,-0.4376,-0.4556,-0.5099,-0.4828,-0.4196,-0.3568,-0.3927,-0.4376,-0.4376,-0.4376,-0.4734,-0.563,-0.5719,-0.5719,-0.5719,-0.5719,-0.6071,-0.6956,-0.7007,-0.6919,-0.6915,-0.678,-0.6651,-0.6475,-0.6468,-0.6461,-0.6271,-0.6338,-0.6338,-0.6338,-0.6338,-0.6338,-0.6338,-0.6338,-0.6332,-0.6464,-0.6471,-0.6552,-0.4519,0.0,-0.4519,-0.4519,-0.4519,-0.4543,-0.4589,-0.4694,-0.4823,-0.502,-0.5138,-0.524,-0.5342,-0.5428,-0.5413,-0.5566,-0.5708,-0.5854,-0.601,-0.6162,-0.6338,-0.6338,-0.6338,0.0,0.0,0.0,0.0,-0.7051,-0.7112,-0.7139,-0.7139,-0.7139,-0.7139,-0.7139,-0.7139,-0.7166,-0.7217,-0.7319,-0.7027,-0.6426,-0.6426,-0.6796,-0.7444,-0.7288,-0.6882,-0.6198,-0.5844,-0.5315,-0.4738,-0.4403,-0.4289,-0.4378,-0.5361,-0.5719,-0.5808,-0.6786,-0.7139,-0.7139,-0.7139,-0.6697,-0.6254,-0.6517,-0.6163,-0.5808,-0.6428,-0.5985,-0.5272,-0.563,-0.5003,-0.4289,-0.4289,-0.4289,-0.4289,-0.4289,-0.4289,-0.4198,-0.4018,-0.4109,-0.4107,-0.339,-0.3838,-0.4289,-0.4289,-0.4289,-0.4378,-0.4734,-0.5805,-0.6428,-0.5808,-0.5719,-0.5808,-0.6163,-0.6128,-0.6331,-0.685,-0.6881,-0.677,-0.6654,-0.66,-0.6574,-0.6581,-0.6578,-0.65,-0.6419,-0.6419,-0.6419,-0.6338,-0.6356,-0.6427,-0.6478,-0.6681,-0.6803,-0.4519,-0.4519,-0.4519,-0.4519,-0.4519,-0.4543,-0.4585,-0.4653,-0.4745,-0.4935,-0.5016,-0.5101,-0.525,-0.5237,-0.5304,-0.5613,-0.5698,-0.5817,-0.6078,-0.62,-0.6281,-0.6329,-0.6335,-0.6454,0.0,0.0,0.0,-0.7122,-0.7139,-0.7139,-0.7139,-0.7139,-0.7139,-0.7139,-0.7139,-0.7193,-0.7302,-0.7404,-0.7131,-0.6567,-0.6186,-0.6352,-0.6963,-0.6406,-0.5834,-0.5308,-0.4874,-0.4422,-0.3817,-0.3466,-0.3256,-0.3434,-0.4661,-0.5184,-0.5361,-0.6605,-0.7139,-0.7051,-0.6694,-0.6163,-0.5719,-0.5628,-0.5184,-0.4828,-0.5447,-0.4914,-0.4202,-0.4561,-0.4024,-0.322,-0.322,-0.322,-0.322,-0.322,-0.322,-0.313,-0.2681,-0.295,-0.313,-0.2681,-0.295,-0.322,-0.322,-0.3576,-0.3757,-0.3757,-0.509,-0.5983,-0.5719,-0.545,-0.545,-0.6163,-0.6163,-0.6395,-0.6924,-0.7004,-0.6936,-0.678,-0.6733,-0.6742,-0.6742,-0.6661,-0.6658,-0.6576,-0.6585,-0.6551,-0.6468,-0.6525,-0.658,-0.6641,-0.6837,-0.6956,-0.4519,-0.4519,-0.4519,-0.4519,-0.4519,-0.4519,-0.4529,-0.4579,-0.4684,-0.4701,-0.4813,-0.4952,0.0,0.0,-0.5118,-0.5698,-0.5684,-0.5755,-0.62,-0.6268,-0.6322,0.0,0.0,0.0,0.0,0.0,0.0,-0.7129,-0.7139,-0.7139,-0.7139,-0.7139,-0.7143,-0.7153,-0.7153,-0.7295,-0.7597,-0.7513,-0.7657,-0.7939,-0.693,-0.6366,-0.6155,-0.5178,-0.4548,-0.4282,-0.3428,-0.2955,-0.2859,-0.1869,-0.1483,-0.1665,-0.3525,-0.421,-0.4474,-0.6257,-0.6966,-0.6782,-0.5897,-0.563,-0.5364,-0.358,-0.2956,-0.2867,-0.2956,-0.224,-0.1704,-0.2599,-0.2152,-0.1436,-0.1436,-0.1436,-0.1436,-0.1436,-0.1436,-0.1436,-0.1436,-0.1436,-0.1436,-0.1436,-0.1436,-0.1436,-0.1436,-0.2152,-0.2868,-0.2868,-0.3578,-0.4467,-0.545,-0.4736,-0.4912,-0.6782,-0.6962,-0.6962,-0.7051,-0.7139,-0.7051,-0.6959,-0.6871,-0.6868,-0.6688,-0.6688,-0.6681,-0.6672,-0.6675,-0.6668,-0.6662,-0.6666,-0.6787,-0.6929,-0.6936,-0.701,-0.4519,-0.4519,-0.4519,-0.4519,-0.4519,-0.4546,-0.4606,-0.4575,-0.4585,-0.4813,-0.4802,-0.4796,0.0,0.0,0.0,-0.5583,-0.5701,0.0,-0.6213,-0.6352,0.0,-0.6468,0.0,-0.6719,-0.6909,-0.6929,0.0,0.0,-0.7139,-0.7139,-0.7139,-0.7139,-0.7193,-0.7309,-0.7312,-0.7404,-0.7597,-0.6936,-0.7067,-0.7939,-0.6836,-0.6187,-0.6152,-0.5774,-0.4808,-0.33,-0.3067,-0.2595,-0.1947,-0.1622,-0.1515,-0.1608,-0.2819,-0.3344,-0.3389,-0.4572,-0.4978,-0.4912,-0.3937,-0.4113,-0.4556,-0.4111,-0.3491,-0.3045,-0.3757,-0.331,-0.2598,-0.2867,-0.2152,-0.1436,-0.1436,-0.1436,-0.1436,-0.1436,-0.1436,-0.1436,-0.1436,-0.1436,-0.1436,-0.1436,-0.1436,-0.1436,-0.1436,-0.1614,-0.1793,-0.1793,-0.1972,-0.2508,-0.3491,-0.3401,-0.3667,-0.4912,-0.5001,-0.5622,-0.6962,-0.7139,-0.7051,-0.7051,-0.7051,-0.7051,-0.6959,-0.6959,-0.6981,-0.6833,-0.6868,-0.6807,-0.6736,-0.6827,-0.6892,-0.6929,-0.7037,-0.7105,-0.4562,-0.457,-0.4532,-0.4601,-0.4567,-0.4539,-0.4572,-0.458,-0.4567,-0.4684,-0.465,0.0,-0.4792,0.0,0.0,0.0,0.0,0.0,-0.6118,-0.6339,-0.6498,0.0,-0.6709,0.0,-0.7007,-0.7021,-0.7054,0.0,-0.7139,-0.7139,-0.7139,-0.7204,-0.7282,-0.7366,-0.7438,-0.7543,-0.7692,-0.7252,-0.7359,-0.7939,-0.6863,-0.6333,-0.6232,-0.5674,-0.4897,-0.376,-0.3821,-0.3534,-0.2971,-0.3011,-0.2699,-0.2507,-0.3343,-0.3496,-0.3179,-0.3977,-0.4391,-0.4344,-0.3233,-0.3312,-0.3757,-0.322,-0.2686,-0.233,-0.2864,-0.2686,-0.224,-0.224,-0.1793,-0.1436,-0.1436,-0.1436,-0.1436,-0.1436,-0.1436,-0.1436,-0.1436,-0.1436,-0.1436,-0.1436,-0.1436,-0.1436,-0.1436,-0.1436,-0.1436,-0.1436,-0.1436,-0.1614,-0.2152,-0.2599,-0.3223,-0.4194,-0.4645,-0.5356,-0.6416,-0.6868,-0.7139,-0.7139,-0.7139,-0.7139,-0.7139,-0.7139,-0.7088,-0.6976,-0.6973,-0.6946,-0.6895,-0.698,-0.7021,-0.7024,-0.7102,-0.7139,-0.4691,-0.4596,-0.458,-0.4657,-0.4592,-0.4543,-0.4522,-0.4519,-0.4519,-0.4519,0.0,-0.456,-0.4636,-0.4677,-0.4836,-0.5353,0.0,-0.5701,-0.6017,-0.6315,-0.6552,-0.6685,-0.6851,-0.7004,-0.7129,-0.7139,-0.7139,-0.7139,-0.7139,-0.7149,-0.717,-0.7319,-0.7411,-0.7431,-0.758,-0.7719,-0.7841,-0.7974,-0.8038,-0.7939,-0.7039,-0.6537,-0.6337,-0.5427,-0.4924,-0.4824,-0.4824,-0.4824,-0.4818,-0.4837,-0.4411,-0.3814,-0.424,-0.4012,-0.3417,-0.3821,-0.416,-0.4141,-0.3159,-0.2957,-0.2868,-0.1793,-0.1436,-0.1436,-0.1436,-0.1436,-0.1436,-0.1436,-0.1436,-0.1436,-0.1436,-0.1436,-0.1436,-0.1436,-0.1436,-0.1436,-0.1436,-0.1436,-0.1436,-0.1436,-0.1436,-0.1436,-0.1436,-0.1524,-0.1614,-0.1614,-0.1704,-0.1703,-0.1613,-0.2331,-0.3223,-0.419,-0.5179,-0.5716,-0.5874,-0.6596,-0.7139,-0.7139,-0.7139,-0.7139,-0.7139,-0.7139,-0.7139,-0.7139,-0.7139,-0.7139,-0.7139,-0.7139,-0.7139,-0.7139,-0.7139,-0.7139,-0.4691,-0.467,-0.4657,-0.4684,-0.467,-0.4619,-0.4546,-0.4519,0.0,0.0,-0.4519,-0.4525,-0.4553,-0.4606,-0.4836,-0.5353,0.0,0.0,0.0,0.0,-0.6671,0.0,0.0,0.0,0.0,-0.7139,0.0,0.0,-0.7139,-0.7197,-0.7326,-0.7475,-0.7614,-0.7733,-0.7882,-0.7974,-0.7997,-0.8024,-0.8038,-0.8038,-0.7839,-0.7238,-0.6437,-0.6234,-0.5629,-0.4824,-0.4824,-0.4824,-0.4822,-0.4808,-0.4662,-0.4313,-0.3673,-0.3328,-0.3046,-0.2468,-0.2346,-0.2305,-0.235,-0.2333,-0.2242,-0.1615,-0.1436,-0.1436,-0.1436,-0.1436,-0.1436,-0.1436,-0.1436,-0.1436,-0.1436,-0.1436,-0.1436,-0.1436,-0.1436,-0.1436,-0.1436,-0.1436,-0.1436,-0.1436,-0.1436,-0.1436,-0.1436,-0.2061,-0.2599,-0.2599,-0.331,-0.3486,-0.2772,-0.2778,-0.3227,-0.4198,-0.5104,-0.6002,-0.6782,-0.7048,-0.7139,-0.7139,-0.7139,-0.7139,-0.7139,-0.7139,-0.7139,-0.7139,-0.7139,-0.7139,-0.7139,-0.7139,-0.7139,-0.7139,-0.7139,-0.7139,-0.4691,-0.4633,-0.4592,-0.467,-0.4629,-0.4551,-0.4536,0.0,0.0,0.0,-0.4519,-0.4494,-0.4365,0.0,0.0,0.0,0.0,0.0,0.0,0.0,0.0,0.0,0.0,0.0,0.0,-0.7139,-0.7139,-0.7139,-0.7214,-0.7292,-0.7366,-0.7587,-0.7777,-0.7926,-0.8001,-0.8038,-0.8237,-0.8038,-0.8038,-0.8237,-0.8038,-0.7739,-0.7238,-0.7238,-0.6933,-0.6429,-0.6429,-0.6528,-0.6625,-0.6625,-0.6396,-0.5859,-0.5406,-0.4773,-0.4015,-0.3296,-0.2959,-0.2809,-0.2387,-0.2265,-0.2334,-0.1974,-0.1794,-0.1794,-0.1615,-0.1615,-0.1615,-0.1615,-0.1525,-0.1436,-0.1705,-0.1615,-0.1436,-0.1615,-0.1525,-0.1436,-0.1615,-0.1525,-0.1436,-0.1615,-0.1615,-0.1615,-0.1615,-0.242,-0.3047,-0.2957,-0.3667,-0.4111,-0.3667,-0.4039,-0.4131,-0.366,-0.483,-0.5905,-0.6328,-0.6779,-0.7139,-0.7139,-0.7139,-0.7139,-0.7139,-0.7139,-0.7139,-0.7139,-0.7139,-0.7139,-0.7139,-0.7139,-0.7139,-0.7139,-0.7139,-0.7139,-0.4691,-0.4626,-0.4582,-0.467,-0.4626,-0.4545,-0.4532,-0.4519,0.0,0.0,-0.4519,-0.4419,-0.422,0.0,0.0,0.0,0.0,0.0,0.0,0.0,0.0,0.0,0.0,0.0,0.0,-0.7139,0.0,-0.7139,-0.7282,-0.7488,-0.7461,-0.7716,-0.7916,-0.8035,-0.8038,-0.8137,-0.8432,-0.8237,-0.8233,-0.8531,-0.8237,-0.8038,-0.8038,-0.8038,-0.8038,-0.8038,-0.8038,-0.8137,-0.8531,-0.8432,-0.8014,-0.7493,-0.7313,-0.6509,-0.548,-0.4696,-0.4332,-0.4074,-0.3241,-0.291,-0.2871,-0.2691,-0.2423,-0.2154,-0.1974,-0.1885,-0.1885,-0.1885,-0.1705,-0.1705,-0.2064,-0.1885,-0.1615,-0.1794,-0.1705,-0.1615,-0.1884,-0.1705,-0.1615,-0.1884,-0.1885,-0.1973,-0.2152,-0.2957,-0.3492,-0.358,-0.4378,-0.4823,-0.465,-0.5387,-0.5384,-0.3655,-0.4996,-0.598,-0.5965,-0.6688,-0.7139,-0.7139,-0.7139,-0.7139,-0.7139,-0.7139,-0.7139,-0.7139,-0.7139,-0.7139,-0.7139,-0.7139,-0.7139,-0.7139,-0.7139,-0.7139,-0.4691,-0.4782,-0.4847,-0.4721,-0.4782,-0.4806,-0.458,0.0,0.0,-0.4519,-0.4519,-0.4419,-0.422,-0.4375,0.0,0.0,0.0,-0.5301,0.0,0.0,0.0,0.0,0.0,0.0,0.0,-0.7139,-0.7139,-0.7139,-0.7458,-0.7667,-0.7756,-0.7929,-0.8024,-0.8038,-0.8038,-0.8137,-0.8432,-0.8333,-0.8531,-0.8726,-0.8531,-0.8333,-0.8333,-0.8137,-0.8137,-0.8333,-0.8137,-0.8333,-0.8726,-0.8528,-0.8448,-0.843,-0.7575,-0.7048,-0.6728,-0.5839,-0.5506,-0.5472,-0.545,-0.4839,-0.4121,-0.4121,-0.3227,-0.2154,-0.2154,-0.2154,-0.2154,-0.2154,-0.2154,-0.2154,-0.2154,-0.2154,-0.2154,-0.2154,-0.2154,-0.2154,-0.2154,-0.2154,-0.2154,-0.2154,-0.2154,-0.2422,-0.3312,-0.4024,-0.4828,-0.5714,-0.6425,-0.6511,-0.5697,-0.6422,-0.6602,-0.5518,-0.6328,-0.6962,-0.6959,-0.7051,-0.7139,-0.7139,-0.7139,-0.7139,-0.7139,-0.7139,-0.7139,-0.7139,-0.7139,-0.7139,-0.7139,-0.7139,-0.7139,-0.7139,-0.7139,-0.7139,-0.4691,-0.4802,-0.488,-0.4728,-0.4735,-0.4724,-0.4567,0.0,-0.4519,-0.4519,-0.4519,-0.4389,-0.4155,-0.4233,-0.4324,-0.429,-0.4535,-0.4884,-0.5335,0.0,0.0,0.0,0.0,0.0,0.0,0.0,-0.7323,-0.7323,-0.764,-0.7833,-0.796,-0.8018,-0.8146,-0.823,-0.8237,-0.8435,-0.8836,-0.873,-0.873,-0.9031,-0.873,-0.8627,-0.8627,-0.8531,-0.8531,-0.8627,-0.8531,-0.873,-0.9031,-0.8931,-0.8898,-0.8931,-0.8589,-0.834,-0.7883,-0.7064,-0.6677,-0.6412,-0.5943,-0.5507,-0.5186,-0.5186,-0.4741,-0.4028,-0.2781,-0.278,-0.3136,-0.2512,-0.2334,-0.2244,-0.2513,-0.2513,-0.2424,-0.2424,-0.2244,-0.2243,-0.2334,-0.2244,-0.2243,-0.2334,-0.2869,-0.3136,-0.2959,-0.4648,-0.5802,-0.5534,-0.6691,-0.7408,-0.7048,-0.7323,-0.7415,-0.7051,-0.7051,-0.7139,-0.7139,-0.7139,-0.7139,-0.7139,-0.7139,-0.7139,-0.7139,-0.7139,-0.7139,-0.7139,-0.7139,-0.7139,-0.7139,-0.7139,-0.7143,-0.7323,-0.7323,-0.7411,-0.468,-0.4735,-0.4816,-0.466,-0.4657,-0.465,0.0,-0.4519,-0.4505,-0.4406,-0.4399,-0.4307,-0.4009,-0.4063,-0.4147,-0.4043,-0.4345,-0.4738,-0.5142,-0.5586,0.0,0.0,0.0,-0.7004,0.0,-0.7566,-0.7591,-0.7591,-0.7887,-0.7941,-0.7894,-0.8103,-0.8372,-0.8524,-0.8488,-0.8685,-0.9236,-0.8977,-0.8954,-0.9257,-0.9004,-0.8901,-0.8852,-0.8803,-0.8825,-0.8924,-0.8776,-0.8985,-0.9324,-0.9123,-0.9108,-0.9237,-0.9256,-0.9088,-0.8691,-0.8135,-0.7728,-0.7444,-0.685,-0.6415,-0.6074,-0.6074,-0.6074,-0.5808,-0.403,-0.3941,-0.4295,-0.3673,-0.3138,-0.2869,-0.323,-0.2962,-0.2604,-0.2604,-0.2513,-0.2424,-0.2603,-0.2513,-0.2424,-0.2603,-0.3406,-0.3941,-0.3494,-0.527,-0.6599,-0.6062,-0.7048,-0.786,-0.7867,-0.7871,-0.7871,-0.7863,-0.7584,-0.7316,-0.7319,-0.7319,-0.7319,-0.7231,-0.7231,-0.7231,-0.7231,-0.7231,-0.7231,-0.7319,-0.7319,-0.7319,-0.7319,-0.7319,-0.7411,-0.7591,-0.7591,-0.7683,-0.4629,-0.4575,-0.4657,-0.456,-0.4579,-0.465,0.0,-0.4519,-0.4423,-0.4227,-0.4197,-0.4107,-0.3849,-0.4043,-0.4147,-0.4043,-0.4521,-0.502,-0.5318,-0.5745,0.0,0.0,0.0,-0.6927,-0.7502,-0.7755,-0.7856,-0.7856,-0.8116,-0.8012,-0.772,-0.8098,-0.8512,-0.881,-0.8676,-0.8769,-0.9232,-0.9061,-0.9168,-0.936,-0.9249,-0.9143,-0.8979,-0.8852,-0.8928,-0.9126,-0.8762,-0.8979,-0.96,-0.895,-0.9005,-0.934,-0.9169,-0.91,-0.908,-0.8893,-0.882,-0.8796,-0.8629,-0.7944,-0.7051,-0.7051,-0.7051,-0.6874,-0.5985,-0.563,-0.5719,-0.563,-0.501,-0.43,-0.43,-0.3587,-0.2875,-0.2875,-0.2875,-0.2875,-0.2875,-0.2875,-0.2875,-0.2875,-0.3676,-0.4565,-0.5542,-0.6337,-0.7132,-0.8021,-0.8028,-0.7944,-0.7944,-0.7867,-0.7863,-0.7929,-0.7925,-0.7929,-0.7856,-0.7856,-0.7768,-0.7507,-0.7507,-0.7507,-0.7507,-0.7507,-0.7591,-0.7856,-0.7856,-0.7856,-0.7856,-0.7856,-0.7856,-0.7856,-0.7856,-0.7768,-0.4787,-0.5013,-0.5332,-0.4768,-0.4998,-0.5137,-0.4426,-0.4317,-0.4273,-0.4073,-0.404,-0.4029,-0.3829,-0.3958,-0.4144,-0.4297,-0.5016,-0.5544,0.0,0.0,0.0,0.0,0.0,-0.7631,0.0,0.0,-0.8296,-0.8113,-0.822,-0.8313,-0.8276,-0.8475,-0.8516,-0.8486,-0.863,-0.8824,-0.9172,-0.9115,-0.9083,-0.9177,-0.9143,-0.9143,-0.9087,-0.9049,-0.9072,-0.9168,-0.9017,-0.9025,-0.9254,-0.9047,-0.9031,-0.9161,-0.8978,-0.8909,-0.8885,-0.871,-0.8649,-0.8637,-0.8584,-0.8388,-0.812,-0.812,-0.812,-0.8032,-0.7764,-0.7231,-0.6517,-0.5897,-0.501,-0.43,-0.43,-0.3587,-0.2875,-0.2875,-0.3409,-0.3676,-0.3053,-0.3944,-0.4654,-0.3944,-0.5097,-0.6074,-0.5719,-0.6962,-0.794,-0.7492,-0.794,-0.8388,-0.8388,-0.8392,-0.8392,-0.838,-0.838,-0.8292,-0.7929,-0.7937,-0.7856,-0.7768,-0.7768,-0.7768,-0.7768,-0.7768,-0.7856,-0.7856,-0.7944,-0.7944,-0.7944,-0.7944,-0.7944,-0.7944,-0.8028,-0.7852,0.0,-0.5412,-0.5578,-0.5307,-0.5393,-0.5338,-0.4746,-0.4435,-0.4287,-0.4083,-0.406,-0.3972,-0.3819,-0.3917,-0.408,-0.4267,-0.5123,-0.5715,0.0,0.0,0.0,0.0,0.0,0.0,0.0,-0.8436,-0.8564,-0.838,-0.8395,-0.8458,-0.8364,-0.8556,-0.852,-0.8246,-0.8578,-0.8834,-0.9096,-0.9027,-0.8995,-0.8995,-0.9064,-0.906,-0.8995,-0.9064,-0.9096,-0.9092,-0.9023,-0.9035,0.0,-0.8954,-0.8938,-0.8974,-0.8796,-0.8727,-0.8714,-0.8605,-0.8568,-0.8568,-0.8568,-0.8568,-0.8568,-0.8568,-0.8568,-0.8568,-0.8568,-0.812,-0.7496,-0.652,-0.5542,-0.4832,-0.4832,-0.4121,-0.3497,-0.3855,-0.4389,-0.4654,-0.4121,-0.4832,-0.5542,-0.4921,-0.6074,-0.6874,-0.634,-0.7584,-0.8388,-0.7764,-0.8208,-0.8568,-0.8568,-0.8568,-0.8568,-0.8568,-0.8568,-0.8476,-0.8201,-0.8204,-0.812,-0.8028,-0.8028,-0.8028,-0.8028,-0.8028,-0.8028,-0.812,-0.812,-0.812,-0.8028,-0.7944,-0.7944,-0.7944,-0.794,-0.7764,0.0,0.0,0.0,0.0,-0.5828,-0.5441,-0.5374,-0.4992,0.0,-0.4312,-0.4161,-0.4017,-0.3846,-0.3979,-0.4082,-0.4124,-0.5042,0.0,0.0,0.0,0.0,0.0,-0.7828,0.0,-0.806,-0.838,-0.8568,-0.8568,-0.8568,-0.8476,-0.8201,-0.8472,-0.8476,-0.8201,-0.8625,-0.8885,-0.9056,-0.8889,-0.88,-0.8804,-0.8978,-0.897,-0.8808,-0.8982,-0.906,-0.9051,-0.8877,-0.8901,-0.9035,-0.8702,-0.8662,-0.8787,-0.8629,-0.8568,-0.8568,-0.8568,-0.8568,-0.8568,-0.8568,-0.8568,-0.8568,-0.8568,-0.8568,-0.8568,-0.8568,-0.8568,-0.8388,-0.7496,-0.6517,-0.5808,-0.5808,-0.5099,-0.4654,-0.5453,-0.5719,-0.5808,-0.5719,-0.5808,-0.5897,-0.5808,-0.652,-0.7231,-0.7231,-0.794,-0.8568,-0.8568,-0.8568,-0.8568,-0.8568,-0.8568,-0.8568,-0.8568,-0.8568,-0.8568,-0.8568,-0.8568,-0.8476,-0.8201,-0.8201,-0.8201,-0.8201,-0.8201,-0.838,-0.8568,-0.8568,-0.8472,-0.8201,-0.8028,-0.7856,-0.7856,-0.7591,-0.7507,-0.6804,0.0,-0.633,-0.6225,-0.6426,-0.6548,0.0,-0.5754,-0.5492,0.0,0.0,0.0,0.0,-0.4426,-0.4833,-0.5303,-0.6676,-0.7539,0.0,0.0,0.0,-0.7736,-0.7903,-0.8092,-0.8404,-0.8544,-0.8568,-0.8568,-0.8568,-0.8568,-0.8476,-0.8564,-0.8568,-0.8476,-0.8605,-0.8649,-0.8694,-0.8649,-0.8625,-0.8625,-0.867,-0.867,-0.8629,-0.867,-0.8694,-0.869,-0.8645,-0.8653,-0.8686,-0.8601,-0.8593,-0.8621,-0.858,-0.8568,-0.8568,-0.8568,-0.8568,-0.8568,-0.8568,-0.8568,-0.8568,-0.8568,-0.8568,-0.8568,-0.8568,-0.8568,-0.8568,-0.83,-0.7496,-0.6786,-0.6786,-0.6074,-0.5453,-0.563,-0.6251,-0.6609,-0.5897,-0.6874,-0.7676,-0.6962,-0.7584,-0.8212,-0.8212,-0.8476,-0.8568,-0.8568,-0.8568,-0.8568,-0.8568,-0.8568,-0.8568,-0.8568,-0.8568,-0.8568,-0.8568,-0.8568,-0.8568,-0.8476,-0.8476,-0.8476,-0.8476,-0.8476,-0.8564,-0.8568,-0.8384,-0.8288,-0.8201,-0.8028,-0.7768,-0.7595,-0.7507,-0.7415,-0.6852,-0.6864,-0.671,-0.6828,-0.6999,-0.6967,-0.6416,0.0,0.0,0.0,0.0,0.0,0.0,0.0,0.0,0.0,-0.7215,0.0,0.0,0.0,0.0,-0.8506,-0.8538,-0.8585,-0.8517,-0.8519,-0.8568,-0.8568,-0.8568,-0.8568,-0.8568,-0.8568,-0.8568,-0.8568,-0.8568,-0.8568,-0.8568,-0.8568,-0.8568,-0.8568,-0.8568,-0.8568,-0.8568,-0.8568,-0.8568,-0.8568,-0.8568,-0.8568,-0.8568,-0.8568,-0.8568,-0.8568,-0.8568,-0.8568,-0.8568,-0.8568,-0.8568,-0.8568,-0.8568,-0.8568,-0.8568,-0.8568,-0.8568,-0.8568,-0.8568,-0.8568,-0.8476,-0.8032,-0.7496,-0.7139,-0.7139,-0.6697,-0.6428,-0.6962,-0.7408,-0.7676,-0.7143,-0.7852,-0.8476,-0.7852,-0.8208,-0.8568,-0.8568,-0.8568,-0.8568,-0.8568,-0.8568,-0.8568,-0.8568,-0.8568,-0.8568,-0.8568,-0.8568,-0.8568,-0.8568,-0.8568,-0.8568,-0.8568,-0.8568,-0.8568,-0.8568,-0.8568,-0.8564,-0.8384,-0.8288,-0.8113,-0.7852,-0.7768,-0.7591,-0.7323,-0.7323,-0.7231,-0.6738,-0.6781,-0.6884,-0.7434,-0.7402,-0.7132,0.0,0.0,0.0,0.0,0.0,0.0,0.0,0.0,0.0,0.0,0.0,0.0,0.0,0.0,-0.9408,-0.907,-0.9159,-0.8985,-0.8369,-0.8434,-0.8536,-0.8564,-0.8568,-0.8568,-0.8568,-0.8568,-0.8568,-0.8568,-0.8568,-0.8568,-0.8568,-0.8568,-0.8568,-0.8568,-0.8568,-0.8568,-0.8568,-0.8568,-0.8568,-0.8568,-0.8568,-0.8568,-0.8568,-0.8568,-0.8568,-0.8568,-0.8568,-0.8568,-0.8568,-0.8568,-0.8568,-0.8568,-0.8568,-0.8568,-0.8568,-0.8568,-0.8568,-0.8568,-0.8568,-0.8568,-0.8388,-0.7584,-0.7319,-0.7319,-0.7319,-0.7319,-0.7584,-0.8388,-0.8568,-0.8568,-0.8568,-0.8568,-0.8568,-0.8568,-0.8568,-0.8568,-0.8568,-0.8568,-0.8568,-0.8568,-0.8568,-0.8568,-0.8568,-0.8568,-0.8568,-0.8568,-0.8568,-0.8568,-0.8568,-0.8568,-0.8568,-0.8568,-0.8568,-0.8568,-0.8568,-0.8568,-0.8472,-0.8201,-0.8201,-0.794,-0.7507,-0.7415,-0.7323,-0.7139,-0.7139,-0.7139,-0.6738,-0.6936,-0.7164,-0.7261,-0.7536,-0.7723,0.0,0.0,0.0,0.0,0.0,0.0,0.0,0.0,0.0,0.0,0.0,-1.0012,0.0,0.0,-0.9355,-0.9037,0.0,-0.8122,-0.826,-0.8316,-0.8398,-0.8556,-0.8568,-0.8568,-0.8568,-0.8568,-0.8568,-0.8568,-0.8568,-0.8568,-0.8568,-0.8568,-0.8568,-0.8568,-0.8568,-0.8568,-0.8568,-0.8568,-0.8568,-0.8568,-0.8568,-0.8568,-0.8568,-0.8568,-0.8568,-0.8568,-0.8568,-0.8568,-0.8568,-0.8568,-0.8568,-0.8568,-0.8568,-0.8568,-0.8568,-0.8568,-0.8568,-0.8568,-0.8568,-0.8568,-0.8564,-0.8388,-0.8388,-0.8388,-0.8388,-0.8388,-0.8388,-0.8564,-0.8568,-0.8568,-0.8568,-0.8568,-0.8568,-0.8568,-0.8568,-0.8568,-0.8568,-0.8568,-0.8568,-0.8568,-0.8568,-0.8568,-0.8568,-0.8568,-0.8568,-0.8568,-0.8568,-0.8568,-0.8568,-0.8568,-0.8568,-0.8568,-0.8568,-0.8568,-0.8568,-0.8568,-0.8472,-0.8201,-0.8028,-0.7768,-0.7507,-0.7234,-0.7143,-0.7139,-0.7139,-0.7139,-0.6562,-0.6787,-0.6987,-0.6987,-0.7454,-0.7829,-0.7656,0.0,0.0,0.0,0.0,0.0,0.0,0.0,0.0,0.0,0.0,-1.0854,-1.1028,-1.0906,-1.049,0.0,-0.9247,-0.8852,-0.8069,-0.8085,-0.8219,-0.8402,-0.8418,-0.8463,-0.856,-0.8568,-0.8568,-0.8568,-0.8568,-0.8568,-0.8568,-0.8568,-0.8568,-0.8568,-0.8568,-0.8568,-0.8568,-0.8568,-0.8568,-0.8568,-0.8568,-0.8568,-0.8568,-0.8568,-0.8568,-0.8568,-0.8568,-0.8568,-0.8568,-0.8568,-0.8568,-0.8568,-0.8568,-0.8568,-0.8568,-0.8568,-0.8568,-0.8568,-0.8568,-0.8568,-0.8568,-0.8568,-0.8568,-0.8568,-0.8568,-0.8568,-0.8568,-0.8568,-0.8568,-0.8568,-0.8568,-0.8568,-0.8568,-0.8568,-0.8568,-0.8568,-0.8568,-0.8568,-0.8568,-0.8568,-0.8568,-0.8568,-0.8568,-0.8568,-0.8568,-0.8568,-0.8568,-0.8568,-0.8568,-0.8568,-0.8564,-0.8384,-0.8476,-0.8564,-0.8384,-0.8384,-0.8292,-0.8028,-0.794,-0.7676,-0.7323,-0.7323,-0.7231,-0.7139,-0.7139,-0.7139,-0.6489,-0.6702,-0.6914,-0.6975,0.0,-0.7822,-0.7774,0.0,0.0,0.0,0.0,0.0,0.0,0.0,0.0,-1.0462,-1.0918,-1.1165,-1.1441,-1.1646,-1.1329,-1.0045,-0.9909,-0.9345,-0.8224,-0.8035,-0.8028,-0.8211,-0.8227,-0.8308,-0.8491,-0.8503,-0.8524,-0.8564,-0.8568,-0.8568,-0.8568,-0.8568,-0.8568,-0.8568,-0.8568,-0.8568,-0.8568,-0.8568,-0.8568,-0.8568,-0.8568,-0.8568,-0.8568,-0.8568,-0.8568,-0.8568,-0.8568,-0.8568,-0.8568,-0.8568,-0.8568,-0.8568,-0.8568,-0.8568,-0.8568,-0.8568,-0.8568,-0.8568,-0.8568,-0.8568,-0.8568,-0.8568,-0.8568,-0.8568,-0.8568,-0.8568,-0.8568,-0.8568,-0.8568,-0.8568,-0.8568,-0.8568,-0.8568,-0.8568,-0.8568,-0.8568,-0.8568,-0.8568,-0.8568,-0.8568,-0.8568,-0.8568,-0.8568,-0.8568,-0.8568,-0.8568,-0.8568,-0.8568,-0.8476,-0.8476,-0.8296,-0.8028,-0.8296,-0.8384,-0.8201,-0.8113,-0.8025,-0.7768,-0.7768,-0.7588,-0.7139,-0.7323,-0.7323,-0.7139,-0.7139,-0.7139,-0.6714,-0.6969,-0.723,-0.748,0.0,0.0,-0.8081,-0.8329,0.0,0.0,0.0,0.0,0.0,0.0,-0.916,-1.085,-1.0736,-1.0655,-1.1083,-1.1174,-1.0881,-0.997,-0.9241,-0.8875,-0.8904,-0.8237,-0.7849,-0.802,-0.8032,-0.8113,-0.83,-0.8308,-0.839,-0.856,-0.8568,-0.8568,-0.8568,-0.8568,-0.8568,-0.8568,-0.8568,-0.8568,-0.8568,-0.8568,-0.8568,-0.8568,-0.8568,-0.8568,-0.8568,-0.8568,-0.8568,-0.8568,-0.8568,-0.8568,-0.8568,-0.8568,-0.8568,-0.8568,-0.8568,-0.8568,-0.8568,-0.8568,-0.8568,-0.8568,-0.8568,-0.8568,-0.8568,-0.8568,-0.8568,-0.8568,-0.8568,-0.8568,-0.8568,-0.8568,-0.8568,-0.8568,-0.8568,-0.8568,-0.8568,-0.8568,-0.8568,-0.8568,-0.8568,-0.8568,-0.8568,-0.8568,-0.8568,-0.8568,-0.8568,-0.8568,-0.8568,-0.8568,-0.8568,-0.8476,-0.8288,-0.8028,-0.7856,-0.7591,-0.794,-0.8201,-0.8201,-0.8028,-0.7768,-0.7507,-0.7507,-0.7415,-0.7139,-0.7139,-0.7139,-0.7139,-0.7139,-0.7139,-0.6538,-0.6756,-0.7018,-0.7285,0.0,0.0,0.0,0.0,0.0,0.0,-0.9207,0.0,0.0,0.0,-0.9179,-1.0386,-1.0172,-1.0035,-1.0301,-1.0351,-1.0051,-0.9226,-0.8851,-0.8502,-0.8112,-0.7815,-0.7663,-0.7841,-0.7854,-0.7935,-0.8109,-0.8117,-0.815,-0.8219,-0.8337,-0.8394,-0.8394,-0.8511,-0.8568,-0.8568,-0.8568,-0.8568,-0.8568,-0.8568,-0.8568,-0.8568,-0.8568,-0.8568,-0.8568,-0.8568,-0.8568,-0.8568,-0.8568,-0.8568,-0.8568,-0.8568,-0.8568,-0.8568,-0.8568,-0.8568,-0.8568,-0.8568,-0.8568,-0.8568,-0.8568,-0.8568,-0.8568,-0.8568,-0.8568,-0.8568,-0.8568,-0.8568,-0.8568,-0.8568,-0.8568,-0.8568,-0.8568,-0.8568,-0.8568,-0.8568,-0.8568,-0.8568,-0.8568,-0.8568,-0.8568,-0.8568,-0.8568,-0.8568,-0.8568,-0.8568,-0.8568,-0.8568,-0.8568,-0.8476,-0.8201,-0.8113,-0.8028,-0.7768,-0.794,-0.794,-0.7764,-0.768,-0.7591,-0.7507,-0.7323,-0.7231,-0.7139,-0.7139,-0.7139,-0.7139,-0.7139,-0.7139,-0.6513,-0.6754,-0.6975,0.0,0.0,0.0,0.0,0.0,0.0,0.0,-0.9588,0.0,0.0,0.0,0.0,0.0,-0.9569,-0.9233,-0.9378,-0.9697,-0.9593,-0.8775,-0.8703,-0.847,-0.794,-0.7633,-0.7537,-0.7663,-0.7671,-0.7748,-0.7923,-0.7935,-0.7959,-0.8012,-0.8138,-0.8231,-0.8292,-0.8418,-0.8511,-0.8568,-0.8568,-0.8568,-0.8568,-0.8568,-0.8568,-0.8568,-0.8568,-0.8568,-0.8568,-0.8568,-0.8568,-0.8568,-0.8568,-0.8568,-0.8568,-0.8568,-0.8568,-0.8568,-0.8568,-0.8568,-0.8568,-0.8568,-0.8568,-0.8568,-0.8568,-0.8568,-0.8568,-0.8568,-0.8568,-0.8568,-0.8568,-0.8568,-0.8568,-0.8568,-0.8568,-0.8568,-0.8568,-0.8568,-0.8568,-0.8568,-0.8568,-0.8568,-0.8568,-0.8568,-0.8568,-0.8568,-0.8568,-0.8568,-0.8568,-0.8568,-0.8568,-0.8568,-0.8564,-0.8384,-0.8201,-0.8113,-0.8028,-0.7944,-0.7944,-0.7768,-0.7507,-0.7415,-0.7415,-0.7415,-0.7231,-0.7139,-0.7139,-0.7139,-0.7139,-0.7139,-0.7139,-0.7139,-0.6793,-0.707,0.0,0.0,0.0,0.0,0.0,0.0,0.0,-1.0184,0.0,-1.0047,-1.0238,-0.9139,0.0,-0.9808,-0.8981,-0.8227,-0.8354,-0.9229,-0.9599,-0.8775,-0.8699,-0.8699,-0.8699,-0.794,-0.7484,-0.7484,-0.7484,-0.7565,-0.7748,-0.7756,-0.7833,-0.8004,-0.8008,-0.8097,-0.8284,-0.8284,-0.8381,-0.8564,-0.8564,-0.8564,-0.8568,-0.8568,-0.8568,-0.8568,-0.8568,-0.8568,-0.8568,-0.8568,-0.8568,-0.8568,-0.8568,-0.8568,-0.8568,-0.8568,-0.8568,-0.8568,-0.8568,-0.8568,-0.8568,-0.8568,-0.8568,-0.8568,-0.8568,-0.8568,-0.8568,-0.8568,-0.8568,-0.8568,-0.8568,-0.8568,-0.8568,-0.8568,-0.8568,-0.8568,-0.8568,-0.8568,-0.8568,-0.8568,-0.8568,-0.8568,-0.8568,-0.8568,-0.8568,-0.8568,-0.8568,-0.8568,-0.8568,-0.8568,-0.8568,-0.8568,-0.838,-0.8201,-0.8201,-0.8028,-0.7944,-0.7944,-0.7944,-0.7768,-0.7507,-0.7234,-0.7139,-0.7139,-0.7139,-0.7139,-0.7139,-0.7139,-0.7139,-0.7139,-0.7139,-0.7139,-0.7795,0.0,0.0,0.0,0.0,0.0,0.0,0.0,0.0,0.0,-1.0434,-1.0428,-1.0498,-0.9716,0.0,-1.006,-0.8943,-0.8203,-0.8557,-0.8353,-0.8089,-0.7863,-0.7863,-0.7863,-0.7863,-0.7633,-0.7484,-0.7484,-0.7484,-0.7504,-0.7561,-0.7565,-0.7586,-0.7638,-0.7768,-0.7862,-0.7918,-0.8036,-0.8126,-0.8178,-0.8178,-0.8312,-0.8568,-0.8568,-0.8568,-0.8568,-0.8568,-0.8568,-0.8568,-0.8568,-0.8568,-0.8568,-0.8568,-0.8568,-0.8568,-0.8568,-0.8568,-0.8568,-0.8568,-0.8568,-0.8568,-0.8568,-0.8568,-0.8568,-0.8568,-0.8568,-0.8568,-0.8568,-0.8568,-0.8568,-0.8568,-0.8568,-0.8568,-0.8568,-0.8568,-0.8568,-0.8568,-0.8568,-0.8568,-0.8568,-0.8568,-0.8568,-0.8568,-0.8568,-0.8568,-0.8568,-0.8568,-0.8568,-0.8568,-0.8568,-0.8568,-0.8568,-0.8564,-0.8384,-0.8201,-0.8113,-0.8028,-0.7944,-0.7944,-0.7768,-0.7507,-0.7415,-0.7323,-0.7139,-0.7139,-0.7139,-0.7139,-0.7139,-0.7139,-0.7139,-0.7139,-0.7139,-0.7938,0.0,0.0,0.0,0.0,0.0,0.0,0.0,0.0,0.0,0.0,-1.0624,-1.0624,-0.997,0.0,-1.0024,-0.9205,-0.8475,-0.8603,-0.8192,-0.7863,-0.7561,-0.7484,-0.7484,-0.7484,-0.7484,-0.7484,-0.7484,-0.7484,-0.7484,-0.7484,-0.7484,-0.7484,-0.7484,-0.759,-0.7687,-0.776,-0.7862,-0.7947,-0.8012,-0.8012,-0.813,-0.8349,-0.8513,-0.8586,-0.8568,-0.8568,-0.8568,-0.8568,-0.8568,-0.8568,-0.8568,-0.8568,-0.8568,-0.8568,-0.8568,-0.8568,-0.8568,-0.8568,-0.8568,-0.8568,-0.8568,-0.8568,-0.8568,-0.8568,-0.8568,-0.8568,-0.8568,-0.8568,-0.8568,-0.8568,-0.8568,-0.8568,-0.8568,-0.8568,-0.8568,-0.8568,-0.8568,-0.8568,-0.8568,-0.8568,-0.8568,-0.8568,-0.8568,-0.8568,-0.8568,-0.8568,-0.8568,-0.8568,-0.8568,-0.8568,-0.8568,-0.8568,-0.8564,-0.838,-0.838,-0.8296,-0.8212,-0.8208,-0.8032,-0.7768,-0.768,-0.7591,-0.7408,-0.7408,-0.7408,-0.7408,-0.7408,-0.7319,-0.7234,-0.7234,-0.7231,-0.7621,0.0,0.0,0.0,0.0,0.0,0.0,0.0,0.0,-1.0624,0.0,-1.0624,-1.0624,-1.004,-0.9737,-1.0007,-0.9662,-0.914,-0.8568,-0.8641,-0.8394,-0.7561,-0.7484,-0.7484,-0.7484,-0.7484,-0.7484,-0.7484,-0.7484,-0.7484,-0.7484,-0.7484,-0.7484,-0.7484,-0.7484,-0.7565,-0.7732,-0.7736,-0.7813,-0.7963,-0.7963,-0.7971,-0.7996,-0.8375,-0.8574,-0.8568,-0.8568,-0.8568,-0.8568,-0.8568,-0.8568,-0.8568,-0.8568,-0.8568,-0.8568,-0.8568,-0.8568,-0.8568,-0.8568,-0.8568,-0.8568,-0.8568,-0.8568,-0.8568,-0.8568,-0.8568,-0.8568,-0.8568,-0.8568,-0.8568,-0.8568,-0.8568,-0.8568,-0.8568,-0.8568,-0.8568,-0.8568,-0.8568,-0.8568,-0.8568,-0.8568,-0.8568,-0.8568,-0.8568,-0.8568,-0.8568,-0.8568,-0.8568,-0.8568,-0.8568,-0.8568,-0.8568,-0.8568,-0.8568,-0.8568,-0.8568,-0.8568,-0.8568,-0.8568,-0.8476,-0.8201,-0.8028,-0.794,-0.7944,-0.7856,-0.7856,-0.7856,-0.7856,-0.768,-0.7507,-0.7507,-0.7323,0.0,-0.8821,0.0,0.0,0.0,0.0,0.0,0.0,-1.0624,-1.0624,-1.0624,-1.0624,-1.0624,-1.0498,-1.0456,-1.0745,-1.035,-0.985,-0.9368,-0.8936,-0.8394,-0.7561,-0.7484,-0.7484,-0.7484,-0.7484,-0.7484,-0.7484,-0.7484,-0.7484,-0.7484,-0.7484,-0.7484,-0.7484,-0.7484,-0.75,-0.7541,-0.7541,-0.7561,-0.7598,-0.7598,-0.7675,-0.7825,-0.8229,-0.848,-0.8568,-0.8568,-0.8568,-0.8568,-0.8568,-0.8568,-0.8568,-0.8568,-0.8568,-0.8568,-0.8568,-0.8568,-0.8568,-0.8568,-0.8568,-0.8568,-0.8568,-0.8568,-0.8568,-0.8568,-0.8568,-0.8568,-0.8568,-0.8568,-0.8568,-0.8568,-0.8568,-0.8568,-0.8568,-0.8568,-0.8568,-0.8568,-0.8568,-0.8568,-0.8568,-0.8568,-0.8568,-0.8568,-0.8568,-0.8568,-0.8568,-0.8568,-0.8568,-0.8568,-0.8568,-0.8568,-0.8568,-0.8568,-0.8568,-0.8568,-0.8568,-0.8568,-0.8568,-0.8568,-0.8476,-0.8201,-0.8201,-0.8028,-0.7944,-0.768,-0.7595,-0.7595,-0.7411,-0.7231,-0.7143,-0.7143,-0.7143,0.0,0.0,0.0,0.0,0.0,0.0,0.0,0.0,-1.0681,-1.0624,-1.0301,-1.0104,-1.0104,-0.9843,-0.9731,-0.9934,-0.9829,-0.9524,-0.8924,-0.8709,-0.8323,-0.758,-0.7507,-0.7561,-0.7642,-0.7561,-0.7484,-0.7484,-0.7484,-0.7484,-0.7484,-0.7484,-0.7484,-0.7484,-0.7484,-0.7484,-0.7484,-0.7484,-0.7484,-0.7484,-0.7484,-0.7581,-0.7772,-0.813,-0.8345,-0.8438,-0.8528,-0.8568,-0.8568,-0.8568,-0.8568,-0.8568,-0.8568,-0.8568,-0.8568,-0.8568,-0.8568,-0.8568,-0.8568,-0.8568,-0.8568,-0.8568,-0.8568,-0.8568,-0.8568,-0.8568,-0.8568,-0.8568,-0.8568,-0.8568,-0.8568,-0.8568,-0.8568,-0.8568,-0.8568,-0.8568,-0.8568,-0.8568,-0.8568,-0.8568,-0.8568,-0.8568,-0.8568,-0.8568,-0.8568,-0.8568,-0.8568,-0.8568,-0.8568,-0.8568,-0.8568,-0.8568,-0.8568,-0.8568,-0.8568,-0.8568,-0.8564,-0.8384,-0.8384,-0.8292,-0.8028,-0.8028,-0.8028,-0.7944,-0.7768,-0.768,-0.768,-0.7588,-0.7411,-0.7323,-0.7323,-0.7231,0.0,0.0,0.0,0.0,0.0,0.0,0.0,0.0,-1.0744,-1.0618,-1.0034,-0.9518,-0.9518,-0.9064,-0.8738,-0.8876,-0.9075,-0.8978,-0.8284,-0.8274,-0.8184,-0.7535,-0.7451,-0.7559,-0.7749,-0.7596,-0.7528,-0.748,-0.7484,-0.7484,-0.7484,-0.7484,-0.7484,-0.7484,-0.7484,-0.7484,-0.7484,-0.7638,-0.7638,-0.7484,-0.7484,-0.7565,-0.7724,-0.8048,-0.8215,-0.8251,-0.8406,-0.8471,-0.8562,-0.8562,-0.8582,-0.8611,-0.8611,-0.8627,-0.8568,-0.8568,-0.8568,-0.8568,-0.8568,-0.8568,-0.8568,-0.8568,-0.8568,-0.8568,-0.8568,-0.8568,-0.8568,-0.8568,-0.8568,-0.8568,-0.8568,-0.8568,-0.8568,-0.8568,-0.8568,-0.8568,-0.8568,-0.8568,-0.8568,-0.8568,-0.8568,-0.8568,-0.8568,-0.8568,-0.8568,-0.8568,-0.8568,-0.8568,-0.8568,-0.8568,-0.8568,-0.8568,-0.8568,-0.8568,-0.8568,-0.8564,-0.8472,-0.8201,-0.8201,-0.8028,-0.7856,-0.7856,-0.7768,-0.7764,-0.7768,-0.7856,-0.7856,-0.7768,-0.768,-0.7415,-0.7415,-0.7323,0.0,0.0,0.0,0.0,0.0,0.0,0.0,0.0,-1.0618,0.0,-1.0225,-0.9709,-0.9518,-0.9064,-0.8683,-0.8711,-0.8964,-0.8912,-0.8147,-0.8264,-0.8118,-0.7334,-0.7364,-0.7522,-0.7537,-0.755,-0.7468,-0.7472,-0.7484,-0.7484,-0.7484,-0.7484,-0.7484,-0.7484,-0.7484,-0.7484,-0.7484,-0.8169,-0.8169,-0.7484,-0.7484,-0.7496,-0.7529,-0.7736,-0.791,-0.8052,-0.8077,-0.8172,-0.8263,-0.8521,-0.8619,-0.8593,-0.8593,-0.8607,-0.8568,-0.8568,-0.8568,-0.8568,-0.8568,-0.8568,-0.8568,-0.8568,-0.8568,-0.8568,-0.8568,-0.8568,-0.8568,-0.8568,-0.8568,-0.8568,-0.8568,-0.8568,-0.8568,-0.8568,-0.8568,-0.8568,-0.8568,-0.8568,-0.8568,-0.8568,-0.8568,-0.8568,-0.8568,-0.8568,-0.8568,-0.8568,-0.8568,-0.8568,-0.8568,-0.8568,-0.8568,-0.8568,-0.8568,-0.8568,-0.8568,-0.8384,-0.8201,-0.8201,-0.8025,-0.7856,-0.7591,-0.7595,-0.7415,-0.7231,-0.7415,-0.7595,-0.7595,-0.7323,-0.7231,-0.7143,-0.7143,-0.7143,0.0,0.0,0.0,0.0,0.0,0.0,0.0,0.0,-1.0616,-1.0561,-1.0302,-1.0021,-0.9831,-0.9,-0.8296,-0.8285,-0.8179,-0.792,-0.7465,-0.7568,-0.7628,-0.7429,-0.7456,-0.7557,-0.7636,-0.7599,-0.7476,-0.748,-0.7503,-0.7484,-0.7484,-0.7484,-0.7484,-0.7484,-0.7484,-0.7484,-0.7484,-0.8322,-0.8546,-0.8169,-0.8169,-0.794,-0.7484,-0.7569,-0.7703,-0.7878,-0.7971,-0.8098,-0.8185,-0.8271,-0.8408,-0.8572,-0.8572,-0.8623,-0.8624,-0.8639,-0.8591,-0.8607,-0.8619,-0.8568,-0.8568,-0.8568,-0.8568,-0.8568,-0.8568,-0.8568,-0.8568,-0.8568,-0.8568,-0.8568,-0.8568,-0.8568,-0.8568,-0.8568,-0.8568,-0.8568,-0.8568,-0.8568,-0.8568,-0.8568,-0.8568,-0.8568,-0.8568,-0.8568,-0.8568,-0.8568,-0.8568,-0.8568,-0.8568,-0.8568,-0.8568,-0.8568,-0.8568,-0.8564,-0.8384,-0.8288,-0.8113,-0.7852,-0.7768,-0.7591,-0.7323,-0.7234,-0.7231,-0.7139,-0.7231,-0.7234,-0.7234,-0.7143,-0.7139,-0.7139,-0.7139,-0.7139,0.0,0.0,0.0,0.0,0.0,0.0,0.0,0.0,-1.0478,0.0,-1.0167,-0.9998,-0.9929,-0.8914,-0.7977,-0.7837,-0.7456,-0.7138,-0.7012,-0.7065,-0.7225,-0.7432,-0.7427,-0.7534,-0.7724,-0.7579,-0.7466,-0.7436,-0.7418,-0.7442,-0.7415,-0.7419,-0.7439,-0.748,-0.7484,-0.7484,-0.7484,-0.8322,-0.8927,-0.9301,-0.9074,-0.8623,-0.7787,-0.7787,-0.7867,-0.8011,-0.7901,-0.7959,-0.8044,-0.7878,-0.8077,-0.8294,-0.8294,-0.8319,-0.8292,-0.8342,-0.8429,-0.8577,-0.8628,-0.8615,-0.8568,-0.8568,-0.8568,-0.8568,-0.8568,-0.8568,-0.8568,-0.8568,-0.8568,-0.8568,-0.8568,-0.8568,-0.8568,-0.8568,-0.8568,-0.8568,-0.8568,-0.8568,-0.8568,-0.8568,-0.8568,-0.8568,-0.8568,-0.8568,-0.8568,-0.8568,-0.8568,-0.8568,-0.8568,-0.8568,-0.8568,-0.8568,-0.8568,-0.8476,-0.8292,-0.8204,-0.794,-0.7595,-0.7503,-0.7323,-0.7139,-0.7139,-0.7139,-0.7139,-0.7139,-0.7139,-0.7139,-0.7139,-0.7139,-0.7139,-0.7139,-0.7139,0.0,0.0,0.0,0.0,0.0,0.0,0.0,0.0,-1.0156,-1.0264,-0.9751,-0.935,-0.9641,-0.8865,-0.7977,-0.733,-0.7199,-0.7204,-0.7199,-0.7021,-0.6959,-0.7222,-0.7227,-0.7313,-0.7509,-0.7537,-0.7411,-0.7229,-0.725,-0.7194,-0.7228,-0.724,-0.7313,-0.748,-0.7484,-0.7484,-0.7484,-0.8322,-0.9458,-1.0962,-1.0201,-0.9448,-0.8627,-0.8627,-0.8632,-0.8641,-0.7889,-0.7512,-0.7512,-0.7512,-0.7532,-0.7521,-0.7521,-0.7535,-0.7585,-0.7593,-0.7967,-0.856,-0.8568,-0.8599,-0.8568,-0.8568,-0.8568,-0.8568,-0.8568,-0.8568,-0.8568,-0.8568,-0.8568,-0.8568,-0.8568,-0.8568,-0.8568,-0.8568,-0.8568,-0.8568,-0.8568,-0.8568,-0.8568,-0.8568,-0.8568,-0.8568,-0.8568,-0.8568,-0.8568,-0.8568,-0.8568,-0.8568,-0.8568,-0.8568,-0.8568,-0.8568,-0.8568,-0.8568,-0.8568,-0.8208,-0.7944,-0.7852,-0.7408,-0.7139,-0.7139,-0.7139,-0.7139,-0.7139,-0.7139,-0.7139,-0.7139,-0.7139,-0.7139,-0.7139,-0.7139,-0.7139,0.0,0.0,0.0,0.0,0.0,0.0,-1.0853,-1.0654,-1.0376,-1.0106,-1.0045,-0.9884,-0.9176,-0.847,-0.7959,-0.7833,-0.7564,-0.7396,-0.7396,-0.733,-0.733,-0.7396,-0.7396,-0.7424,-0.7503,-0.7504,-0.7473,-0.7402,-0.7302,-0.7187,-0.7182,-0.7118,-0.7078,-0.7143,-0.7257,-0.789,-0.9064,-0.9296,-1.0051,-1.1111,-1.0807,-1.0276,-0.9448,-0.9448,-0.9448,-0.9448,-0.9145,-0.8447,-0.7516,-0.7483,-0.7528,-0.7537,-0.7537,-0.7475,-0.7512,-0.7493,-0.7652,-0.7955,-0.8106,-0.8367,-0.8704,-0.9145,-0.8983,-0.874,-0.9257,-0.9087,-0.8568,-0.8568,-0.8568,-0.8568,-0.8568,-0.8568,-0.8568,-0.8568,-0.8568,-0.8568,-0.8568,-0.8568,-0.8568,-0.8568,-0.8568,-0.8568,-0.8568,-0.8568,-0.8568,-0.8568,-0.8568,-0.8568,-0.8568,-0.8568,-0.8568,-0.8568,-0.8568,-0.8564,-0.838,-0.8028,-0.7856,-0.768,-0.7323,-0.7139,-0.7139,-0.7139,-0.7139,-0.7139,-0.7139,-0.7139,-0.7139,-0.7139,-0.7139,-0.7139,-0.7139,-0.7139,-1.22,0.0,0.0,0.0,0.0,-1.1786,-1.1612,0.0,-1.0922,-1.0203,-1.0159,-0.9966,-0.8896,-0.8206,-0.778,-0.7876,-0.7585,-0.7445,-0.7512,-0.7461,-0.7396,-0.7521,-0.7461,-0.7456,-0.7521,-0.7522,-0.7476,-0.7409,-0.7249,-0.7138,-0.7131,-0.6999,-0.7103,-0.73,-0.7273,-0.8013,-0.9776,-0.9857,-1.0276,-1.1111,-1.1335,-1.1105,-1.0276,-1.0276,-1.0276,-1.0276,-1.019,-0.9497,-0.8263,-0.7744,-0.8147,-0.9074,-0.9074,-0.8481,-0.7668,-0.8721,-0.9135,-0.912,-0.9383,-0.9246,-0.9165,-0.9937,-0.9648,-0.9087,-1.0096,-0.9515,-0.8652,-0.8911,-0.8828,-0.8568,-0.8568,-0.8568,-0.8568,-0.8568,-0.8568,-0.8568,-0.8568,-0.8568,-0.8568,-0.8568,-0.8568,-0.8568,-0.8568,-0.8568,-0.8568,-0.8568,-0.8568,-0.8568,-0.8568,-0.8568,-0.8568,-0.8568,-0.8568,-0.8564,-0.838,-0.8116,-0.7856,-0.768,-0.7411,-0.7231,-0.7139,-0.7139,-0.7139,-0.7139,-0.7139,-0.7139,-0.7139,-0.7139,-0.7139,-0.7139,-0.7139,-0.7139,0.0,0.0,0.0,0.0,0.0,0.0,-1.2778,0.0,-1.1706,-1.0643,-1.0012,-0.9481,-0.8928,-0.8075,-0.7402,-0.7264,-0.7216,-0.7293,-0.7493,-0.733,-0.7265,-0.7461,-0.733,-0.7265,-0.7461,-0.7521,-0.7396,-0.7199,-0.7204,-0.7092,-0.6941,-0.695,-0.7237,-0.7986,-0.7479,-0.8019,-0.9545,-0.9776,-1.0351,-1.1111,-1.1929,-1.1855,-1.1111,-1.1111,-1.1111,-1.1111,-1.0864,-1.0484,-0.9884,-0.828,-0.9482,-1.23,-1.23,-1.038,-0.8041,-1.1127,-1.2311,-1.2304,-1.2311,-1.1265,-1.011,-1.0974,-1.048,-0.9762,-1.0989,-1.0115,-0.8828,-0.9685,-0.9345,-0.8656,-0.8568,-0.8568,-0.8568,-0.8568,-0.8568,-0.8568,-0.8568,-0.8568,-0.8568,-0.8568,-0.8568,-0.8568,-0.8568,-0.8568,-0.8568,-0.8568,-0.8568,-0.8568,-0.8568,-0.8568,-0.8568,-0.8568,-0.8568,-0.8568,-0.8568,-0.838,-0.8113,-0.7944,-0.768,-0.7415,-0.7139,-0.7139,-0.7139,-0.7139,-0.7139,-0.7139,-0.7139,-0.7139,-0.7139,-0.7139,-0.7139,-0.7139,-1.2847,0.0,0.0,0.0,0.0,0.0,0.0,0.0,-1.1911,-1.1612,-1.083,-1.002,-0.9488,-0.8824,-0.8373,-0.8328,-0.766,-0.7293,-0.7493,-0.7461,-0.7461,-0.7521,-0.7461,-0.7461,-0.7521,-0.7521,-0.7461,-0.7396,-0.7265,-0.7161,-0.7149,-0.7343,-0.7569,-0.778,-0.8338,-0.9169,-1.0353,-1.0603,-1.118,-1.2003,-1.2157,-1.215,-1.2003,-1.2003,-1.2003,-1.1929,-1.1922,-1.1768,-1.162,-1.1131,-1.1496,-1.2309,-1.2309,-1.1764,-1.1057,-1.1951,-1.2315,-1.2267,-1.2326,-1.2024,-1.157,-1.1044,-1.1109,-1.1556,-1.1914,-1.1363,-1.0636,-1.0809,-1.0289,-0.9432,-0.874,-0.8568,-0.8568,-0.8568,-0.8568,-0.8568,-0.8568,-0.8568,-0.8568,-0.8568,-0.8568,-0.8568,-0.8568,-0.8568,-0.8568,-0.8568,-0.8568,-0.8568,-0.8568,-0.8568,-0.8568,-0.8568,-0.8568,-0.8568,-0.8568,-0.8208,-0.794,-0.7944,-0.7499,-0.7143,-0.7139,-0.7139,-0.7139,-0.7139,-0.7139,-0.7139,-0.7139,-0.7139,-0.7139,-0.7139,-0.7139,-0.7139,-1.4004,0.0,0.0,0.0,0.0,0.0,-1.3773,-1.3359,-1.2792,-1.2181,-1.1342,-1.0592,-1.0012,-0.9287,-0.8857,-0.9035,-0.8371,-0.7861,-0.7931,-0.7652,-0.7521,-0.7521,-0.7521,-0.7521,-0.7521,-0.7521,-0.7521,-0.7521,-0.7396,-0.7396,-0.7591,-0.7647,-0.7962,-0.8562,-0.8863,-0.9472,-1.0317,-1.0761,-1.1169,-1.1608,-1.2098,-1.2305,-1.2305,-1.2305,-1.2305,-1.2305,-1.2305,-1.2305,-1.2305,-1.2305,-1.2331,-1.2304,-1.2304,-1.2271,-1.2311,-1.2284,-1.2271,-1.2311,-1.2284,-1.2329,-1.2233,-1.1578,-1.1727,-1.2326,-1.2713,-1.1922,-1.1115,-1.1997,-1.0974,-0.9432,-0.8679,-0.8484,-0.8455,-0.8545,-0.8603,-0.8568,-0.8568,-0.8568,-0.8568,-0.8568,-0.8568,-0.8568,-0.8568,-0.8568,-0.8568,-0.8568,-0.8568,-0.8568,-0.8568,-0.8568,-0.8568,-0.8568,-0.8568,-0.8564,-0.8472,-0.8204,-0.794,-0.7768,-0.7411,-0.7231,-0.7139,-0.7139,-0.7139,-0.7139,-0.7139,-0.7139,-0.7139,-0.7139,-0.7139,-0.7139,-0.7139,-0.7139,-1.5393,-1.5235,0.0,-1.5492,-1.5319,0.0,-1.4519,-1.4356,-1.395,-1.2686,-1.19,-1.1292,-1.0744,-0.9858,-0.9326,-0.9754,-0.9279,-0.8837,-0.8612,-0.8037,-0.7587,-0.7587,-0.7521,-0.7521,-0.7521,-0.7521,-0.7521,-0.7521,-0.7587,-0.7782,-0.8172,-0.8032,-0.8544,-0.9773,-0.9323,-0.9327,-0.9928,-1.0493,-1.0748,-1.082,-1.1747,-1.2258,-1.2258,-1.2285,-1.2305,-1.2305,-1.2305,-1.2305,-1.2305,-1.2305,-1.2305,-1.2305,-1.2305,-1.2305,-1.2305,-1.2305,-1.2305,-1.2305,-1.2305,-1.2305,-1.2264,-1.227,-1.2337,-1.2466,-1.3185,-1.2123,-1.102,-1.2747,-1.1243,-0.9073,-0.8349,-0.8221,-0.8348,-0.8526,-0.8578,-0.8536,-0.8536,-0.8552,-0.8568,-0.8568,-0.8568,-0.8568,-0.8568,-0.8568,-0.8568,-0.8568,-0.8568,-0.8568,-0.8568,-0.8568,-0.8568,-0.8568,-0.8568,-0.8476,-0.8201,-0.8201,-0.794,-0.7507,-0.7507,-0.7323,-0.7139,-0.7139,-0.7139,-0.7139,-0.7139,-0.7139,-0.7139,-0.7139,-0.7139,-0.7139,-0.7139,-0.7139,-1.6154,-1.6203,-1.619,-1.5734,-1.5351,0.0,-1.5306,-1.4791,-1.435,-1.4459,-1.3747,-1.288,-1.2414,-1.1814,-1.1362,-1.1317,-1.0613,-0.9905,-0.9376,-0.8748,-0.8296,-0.8296,-0.7847,-0.7521,-0.7521,-0.7521,-0.7521,-0.7521,-0.7972,-0.8296,-0.8236,-0.9064,-0.964,-0.9773,-1.0308,-1.0659,-1.0791,-1.1132,-1.1233,-1.124,-1.174,-1.1951,-1.1964,-1.2191,-1.2305,-1.2305,-1.2305,-1.2305,-1.2305,-1.2305,-1.2305,-1.2305,-1.2305,-1.2305,-1.2305,-1.2305,-1.2305,-1.2305,-1.2305,-1.2305,-1.2311,-1.2284,-1.2306,-1.2343,-1.2472,-1.2505,-1.2221,-1.1439,-1.0293,-0.9145,-0.8258,-0.804,-0.8065,-0.8069,-0.8211,-0.8345,-0.8345,-0.8463,-0.8568,-0.8568,-0.8568,-0.8568,-0.8568,-0.8568,-0.8568,-0.8568,-0.8568,-0.8568,-0.8568,-0.8568,-0.8568,-0.8568,-0.8568,-0.8476,-0.8201,-0.8028,-0.7852,-0.7507,-0.7323,-0.7143,-0.7139,-0.7139,-0.7139,-0.7139,-0.7139,-0.7139,-0.7139,-0.7139,-0.7139,-0.7139,-0.7139,-0.7139,-1.7703,-1.7505,-1.7271,-1.6755,-1.6323,0.0,0.0,-1.5187,-1.4638,-1.4925,-1.403,-1.315,-1.3137,-1.2502,-1.2,-1.2105,-1.1299,-1.0711,-1.0842,-0.9768,-0.9005,-0.9005,-0.8683,-0.849,-0.849,-0.849,-0.849,-0.849,-0.8812,-0.9134,-0.9326,-0.9831,-1.0212,-1.0415,-1.0759,-1.084,-1.0775,-1.1062,-1.1209,-1.1209,-1.151,-1.1724,-1.187,-1.2024,-1.2164,-1.2305,-1.2305,-1.2305,-1.2305,-1.2305,-1.2305,-1.2305,-1.2305,-1.2305,-1.2305,-1.2305,-1.2305,-1.2305,-1.2305,-1.2305,-1.2305,-1.2305,-1.2317,-1.2267,-1.2267,-1.2461,-1.235,-1.1022,-1.0484,-0.9855,-0.8194,-0.8116,-0.8362,-0.7967,-0.8024,-0.8178,-0.8272,-0.8361,-0.8455,-0.8552,-0.8568,-0.8568,-0.8568,-0.8568,-0.8568,-0.8568,-0.8568,-0.8568,-0.8568,-0.8568,-0.8568,-0.8568,-0.8568,-0.8472,-0.8105,-0.8025,-0.7852,-0.7507,-0.7499,-0.7496,-0.7496,-0.7496,-0.7411,-0.7323,-0.7143,-0.7139,-0.7139,-0.7139,-0.7139,-0.7139,-0.7139,-0.7139,-1.9244,-1.8817,-1.838,-1.8054,-1.7625,-1.7089,0.0,0.0,0.0,-1.526,-1.4272,-1.3488,0.0,-1.3168,-1.2656,-1.2799,-1.1991,-1.1626,-1.2301,-1.1005,-0.9931,-0.9806,-0.9566,-0.94,-0.9512,-0.947,-0.9464,-0.9512,-0.9597,-0.985,-1.0485,-1.0471,-1.0661,-1.1122,-1.0933,-1.0744,-1.0624,-1.086,-1.0974,-1.1104,-1.127,-1.1532,-1.1914,-1.1888,-1.1991,-1.2218,-1.2278,-1.2305,-1.2305,-1.2305,-1.2305,-1.2305,-1.2305,-1.2305,-1.2305,-1.2305,-1.2305,-1.2305,-1.2305,-1.2305,-1.2305,-1.2305,-1.2305,-1.2305,-1.2305,-1.2318,-1.2096,-1.1087,-1.0795,-1.0421,-0.8495,-0.8481,-0.8788,-0.8098,-0.7998,-0.8012,-0.8195,-0.8264,-0.8345,-0.8532,-0.8568,-0.8568,-0.8568,-0.8568,-0.8568,-0.8568,-0.8568,-0.8568,-0.8568,-0.8568,-0.8568,-0.8568,-0.8568,-0.8384,-0.8017,-0.8109,-0.8025,-0.7591,-0.7768,-0.7944,-0.7944,-0.7944,-0.7768,-0.7507,-0.7323,-0.7143,-0.7139,-0.7139,-0.7139,-0.7139,-0.7139,-0.7139,-1.9975,-1.9848,-1.9639,-1.9169,-1.8779,-1.838,-1.7894,0.0,-1.6579,-1.66,0.0,-1.5552,0.0,0.0,0.0,-1.4172,-1.3491,-1.3058,-1.3157,-1.2427,-1.1628,-1.0823,-0.9768,-0.9196,-0.9494,-0.9238,-0.9196,-0.95,-0.9805,-1.0151,-1.0471,-1.0926,-1.124,-1.1303,-1.0989,-1.08,-1.0807,-1.0715,-1.0918,-1.1416,-1.1156,-1.1386,-1.1963,-1.1908,-1.1877,-1.1774,-1.2184,-1.2305,-1.2305,-1.2305,-1.2305,-1.2305,-1.2305,-1.2305,-1.2305,-1.2305,-1.2305,-1.2305,-1.2305,-1.2305,-1.2305,-1.2305,-1.2305,-1.2305,-1.2305,-1.2284,-1.21,-1.1273,-1.0576,-0.997,-0.9734,-0.916,-0.8737,-0.8584,-0.8199,-0.7837,-0.8008,-0.8174,-0.8345,-0.8532,-0.8568,-0.8568,-0.8568,-0.8568,-0.8568,-0.8568,-0.8568,-0.8568,-0.8568,-0.8568,-0.8568,-0.8568,-0.8568,-0.8476,-0.8201,-0.8201,-0.8113,-0.7856,-0.7852,-0.7944,-0.7944,-0.7944,-0.7768,-0.7507,-0.7507,-0.7323,-0.7139,-0.7139,-0.7139,-0.7139,-0.7139,-0.7139,-2.0357,-2.0531,-2.0574,-1.9479,-1.9432,-1.9402,-1.8481,-1.7649,-1.705,-1.7081,0.0,0.0,0.0,0.0,0.0,0.0,-1.3905,-1.3214,-1.3577,-1.2466,-1.1498,-1.1222,-1.0704,-1.0415,-1.0438,-1.0133,-1.0154,-1.0696,-1.0537,-1.0601,-1.1094,-1.1373,-1.1435,-1.1303,-1.1178,-1.1178,-1.1365,-1.131,-1.1545,-1.2089,-1.1921,-1.1902,-1.1978,-1.1981,-1.1888,-1.1793,-1.1917,-1.2078,-1.2298,-1.2304,-1.2318,-1.2305,-1.2305,-1.2305,-1.2305,-1.2305,-1.2305,-1.2305,-1.2305,-1.2305,-1.2305,-1.2305,-1.2305,-1.2305,-1.2305,-1.2325,-1.2203,-1.1868,-1.1254,-1.0501,-1.0045,-0.9296,-0.8703,-0.8703,-0.8154,-0.7832,-0.8521,-0.8404,-0.8215,-0.8511,-0.8568,-0.8568,-0.8568,-0.8568,-0.8568,-0.8568,-0.8568,-0.8568,-0.8568,-0.8568,-0.8568,-0.8568,-0.8568,-0.8476,-0.8201,-0.838,-0.8292,-0.8116,-0.8208,-0.83,-0.83,-0.8116,-0.8028,-0.794,-0.768,-0.7415,-0.7323,-0.7143,-0.7139,-0.7139,-0.7139,-0.7139,-2.1059,-2.1381,-2.1501,-1.9912,-2.0013,-2.0174,-1.9056,-1.8264,-1.7777,-1.7666,-1.7128,0.0,0.0,0.0,-1.5744,-1.5623,0.0,-1.3595,-1.3956,-1.2667,-1.1704,-1.1696,-1.1631,-1.1574,-1.1437,-1.1096,-1.1123,-1.1615,-1.1137,-1.1041,-1.1586,-1.1622,-1.1615,-1.1608,-1.1608,-1.1794,-1.2166,-1.2104,-1.2343,-1.2818,-1.2634,-1.2461,-1.2409,-1.2307,-1.2254,-1.213,-1.2207,-1.2508,-1.2945,-1.2896,-1.267,-1.2331,-1.2291,-1.2305,-1.2305,-1.2305,-1.2305,-1.2305,-1.2305,-1.2305,-1.2305,-1.2305,-1.2305,-1.2305,-1.2305,-1.2305,-1.2305,-1.2305,-1.1855,-1.1254,-1.0426,-0.9599,-0.8998,-0.8998,-0.8394,-0.8043,-0.8986,-0.8746,-0.8371,-0.8582,-0.8568,-0.8568,-0.8568,-0.8568,-0.8568,-0.8568,-0.8568,-0.8568,-0.8568,-0.8568,-0.8568,-0.8568,-0.8568,-0.8564,-0.8292,-0.8476,-0.8476,-0.8292,-0.8476,-0.8568,-0.8568,-0.8384,-0.8288,-0.8201,-0.7852,-0.768,-0.7591,-0.7323,-0.7231,-0.7231,-0.7143,-0.7139,-2.2406,-2.2641,-2.2694,-2.0821,-2.0661,-2.0691,-1.9715,-1.9421,-1.9164,-1.8588,-1.8467,-1.8185,-1.7167,-1.6866,-1.6637,-1.6231,-1.5311,0.0,0.0,-1.3658,-1.2889,-1.2532,-1.2303,-1.2189,-1.215,-1.1831,-1.1713,-1.1854,-1.1563,-1.1441,-1.1586,-1.1622,-1.1856,-1.2451,-1.2328,-1.2573,-1.313,-1.2887,-1.3078,-1.3623,-1.2879,-1.2826,-1.3415,-1.3137,-1.2863,-1.2684,-1.3401,-1.4057,-1.4545,-1.4511,-1.363,-1.2303,-1.2331,-1.2305,-1.2305,-1.2305,-1.2305,-1.2305,-1.2305,-1.2305,-1.2305,-1.2305,-1.2305,-1.2305,-1.2305,-1.2305,-1.2305,-1.2305,-1.2305,-1.2077,-1.126,-1.0426,-0.9895,-0.9895,-0.9226,-0.874,-0.9147,-0.9155,-0.9032,-0.8669,-0.8568,-0.8568,-0.8568,-0.8568,-0.8568,-0.8568,-0.8568,-0.8568,-0.8568,-0.8568,-0.8568,-0.8568,-0.8568,-0.8568,-0.8568,-0.8568,-0.8568,-0.8568,-0.8568,-0.8568,-0.8568,-0.8568,-0.8472,-0.8201,-0.8197,-0.8113,-0.7856,-0.7591,-0.7507,-0.7507,-0.7231,-0.7139,-2.3206,-2.3661,-2.3883,-2.239,-2.2185,-2.2061,-2.0801,-2.0294,-1.988,-1.896,-1.8939,-1.8824,-1.7733,-1.7256,-1.7031,-1.6863,-1.5996,-1.5276,0.0,-1.4283,-1.3375,-1.2819,0.0,0.0,-1.1896,-1.1557,-1.1699,-1.2522,-1.2031,-1.2058,-1.2793,-1.2842,-1.2956,-1.3139,-1.3139,-1.3312,-1.3846,-1.3786,-1.3914,-1.435,-1.4103,-1.3803,-1.3511,-1.3447,-1.3441,-1.3447,-1.433,-1.456,-1.4348,-1.4838,-1.3935,-1.227,-1.2324,-1.2311,-1.2305,-1.2305,-1.2305,-1.2305,-1.2305,-1.2305,-1.2305,-1.2305,-1.2305,-1.2305,-1.2305,-1.2305,-1.2305,-1.2305,-1.1929,-1.1409,-1.1186,-1.0132,-0.9377,-1.0432,-0.9679,-0.8966,-0.9777,-0.9552,-0.9114,-0.8669,-0.8568,-0.8568,-0.8568,-0.8568,-0.8568,-0.8568,-0.8568,-0.8568,-0.8568,-0.8568,-0.8568,-0.8568,-0.8568,-0.8568,-0.8568,-0.8568,-0.8568,-0.8568,-0.8568,-0.8568,-0.8568,-0.8568,-0.8564,-0.8472,-0.8292,-0.8201,-0.8113,-0.7852,-0.768,-0.7507,-0.7415,-0.7234,-2.4213,-2.4638,-2.4879,-2.3446,-2.3255,-2.3084,-2.16,-2.1203,-2.0873,-1.9961,-1.9749,-1.9641,-1.9121,-1.814,-1.7418,-1.7489,-1.6467,-1.5588,0.0,-1.4411,-1.3647,0.0,0.0,0.0,0.0,-1.1787,-1.1944,-1.2954,-1.2447,-1.2532,-1.3451,-1.3511,-1.3683,-1.4154,-1.3983,-1.4213,-1.4972,-1.4688,-1.4647,-1.4902,-1.4834,-1.4538,-1.4061,-1.4121,-1.4276,-1.4474,-1.5212,-1.5482,-1.5419,-1.5878,-1.5271,-1.4086,-1.3561,-1.2926,-1.2311,-1.2285,-1.2305,-1.2305,-1.2305,-1.2305,-1.2305,-1.2305,-1.2305,-1.2305,-1.2305,-1.2305,-1.2305,-1.2305,-1.1929,-1.1484,-1.1186,-1.0357,-0.983,-1.0881,-1.0282,-0.9806,-1.0663,-1.053,-0.9935,-0.9183,-0.9087,-0.8999,-0.8652,-0.8568,-0.8568,-0.8568,-0.8568,-0.8568,-0.8568,-0.8568,-0.8568,-0.8568,-0.8568,-0.8568,-0.8568,-0.8568,-0.8568,-0.8568,-0.8568,-0.8568,-0.8568,-0.8568,-0.8568,-0.8568,-0.8472,-0.838,-0.838,-0.8116,-0.7852,-0.7683,-0.7507,-0.7326]},{"header":{"parameterUnit":"m.s-1","parameterCategory":1,"la1":30.6,"la2":29.2853,"lo1":-89.7004,"lo2":-87.6739,"dy":0.0162,"dx":0.0183,"nx":112,"ny":82,"refTime":"2024-06-07T06:00:00:Z","depth":0,"parameterNumber":3,"parameterNumberName":"V-component_of_WINDS"},"data":[0.0,0.0,0.0,0.0,0.0,0.0,0.0,0.0,0.0,0.0,0.0,0.0,0.0,0.0,0.0,0.0,0.0,0.0,0.0,0.0,0.0,0.0,0.0,0.0,0.0,0.0,0.0,0.0,0.0,0.0,0.0,0.0,0.0,0.0,0.0,0.0,0.0,0.0,0.0,0.0,0.0,0.0,0.0,0.0,0.0,0.0,0.0,0.0,0.0,0.0,0.0,0.0,0.0,0.0,0.0,0.0,0.0,0.0,0.0,0.0,0.0,0.0,0.0,0.0,0.0,0.0,0.0,0.0,0.0,0.0,0.0,0.0,0.0,0.0,0.0,0.0,0.0,0.0,0.0,0.0,0.0,0.0,0.0,0.0,0.0,0.0,0.0,0.0,0.0,0.0,-2.5028,-2.8251,-2.9383,-2.9607,-2.886,-2.9427,-2.8121,-2.4082,0.0,0.0,0.0,0.0,0.0,0.0,0.0,0.0,0.0,0.0,0.0,0.0,0.0,0.0,0.0,0.0,0.0,0.0,0.0,0.0,0.0,0.0,0.0,0.0,0.0,0.0,0.0,0.0,0.0,0.0,0.0,0.0,0.0,0.0,0.0,0.0,0.0,0.0,0.0,0.0,0.0,0.0,0.0,0.0,0.0,0.0,0.0,0.0,0.0,0.0,0.0,0.0,0.0,0.0,0.0,0.0,0.0,0.0,0.0,0.0,0.0,0.0,0.0,0.0,0.0,0.0,0.0,0.0,0.0,0.0,0.0,0.0,0.0,0.0,0.0,0.0,0.0,0.0,0.0,0.0,0.0,0.0,0.0,0.0,0.0,0.0,0.0,0.0,0.0,0.0,0.0,0.0,0.0,0.0,0.0,0.0,0.0,0.0,0.0,0.0,0.0,0.0,0.0,0.0,-2.4121,-2.7348,-2.9014,-2.9851,-2.9702,-2.9927,-2.8536,-2.5015,0.0,0.0,0.0,0.0,0.0,0.0,0.0,0.0,0.0,0.0,0.0,0.0,0.0,0.0,0.0,0.0,0.0,0.0,0.0,0.0,0.0,0.0,0.0,0.0,0.0,0.0,0.0,0.0,0.0,0.0,0.0,0.0,0.0,0.0,0.0,0.0,0.0,0.0,0.0,0.0,0.0,0.0,0.0,0.0,0.0,0.0,0.0,0.0,0.0,0.0,0.0,0.0,0.0,0.0,0.0,0.0,0.0,0.0,0.0,0.0,0.0,0.0,0.0,0.0,0.0,0.0,0.0,0.0,0.0,0.0,0.0,0.0,0.0,0.0,0.0,0.0,0.0,0.0,0.0,0.0,0.0,0.0,0.0,0.0,0.0,0.0,0.0,0.0,0.0,0.0,0.0,0.0,0.0,0.0,0.0,0.0,0.0,0.0,0.0,0.0,0.0,0.0,0.0,-2.4903,-2.635,-2.738,-2.8938,-2.9888,-2.9888,-2.9972,-2.8563,-2.5219,-2.495,0.0,0.0,0.0,0.0,0.0,0.0,0.0,0.0,0.0,0.0,0.0,0.0,0.0,0.0,0.0,0.0,0.0,0.0,0.0,0.0,0.0,0.0,0.0,0.0,0.0,0.0,0.0,0.0,0.0,0.0,0.0,0.0,0.0,0.0,0.0,0.0,0.0,0.0,0.0,0.0,0.0,0.0,0.0,0.0,0.0,0.0,0.0,0.0,0.0,0.0,0.0,0.0,0.0,0.0,0.0,0.0,0.0,0.0,0.0,0.0,0.0,0.0,0.0,0.0,0.0,0.0,0.0,0.0,0.0,0.0,0.0,0.0,0.0,0.0,0.0,0.0,0.0,0.0,0.0,0.0,0.0,0.0,0.0,0.0,0.0,0.0,0.0,0.0,0.0,0.0,0.0,0.0,0.0,0.0,0.0,0.0,0.0,0.0,0.0,0.0,0.0,0.0,-2.6911,-2.818,-2.757,-2.8938,-2.9888,-2.9888,-2.9564,-2.8085,-2.5181,-2.4631,0.0,0.0,0.0,0.0,0.0,0.0,0.0,0.0,0.0,0.0,0.0,0.0,0.0,0.0,0.0,0.0,0.0,0.0,0.0,0.0,0.0,0.0,0.0,0.0,0.0,0.0,0.0,0.0,0.0,0.0,0.0,0.0,0.0,0.0,0.0,0.0,0.0,0.0,0.0,0.0,0.0,0.0,0.0,0.0,0.0,0.0,0.0,0.0,0.0,0.0,0.0,0.0,0.0,0.0,0.0,0.0,0.0,0.0,0.0,0.0,0.0,0.0,0.0,0.0,0.0,0.0,0.0,0.0,0.0,0.0,0.0,0.0,0.0,0.0,0.0,0.0,0.0,0.0,0.0,0.0,0.0,0.0,0.0,0.0,0.0,0.0,0.0,0.0,0.0,0.0,0.0,0.0,0.0,0.0,0.0,0.0,0.0,0.0,0.0,0.0,0.0,0.0,-2.6056,-2.757,-2.7513,-2.8938,-2.9888,-2.9888,-2.8521,-2.6906,-2.5124,-2.3537,0.0,0.0,0.0,0.0,0.0,0.0,0.0,0.0,0.0,0.0,0.0,0.0,0.0,0.0,0.0,0.0,0.0,0.0,0.0,0.0,0.0,0.0,0.0,0.0,0.0,0.0,0.0,0.0,0.0,0.0,0.0,0.0,0.0,0.0,0.0,0.0,0.0,0.0,0.0,0.0,0.0,0.0,0.0,0.0,0.0,0.0,0.0,0.0,0.0,0.0,0.0,0.0,0.0,0.0,0.0,0.0,0.0,0.0,0.0,0.0,0.0,0.0,0.0,0.0,0.0,0.0,0.0,0.0,0.0,0.0,0.0,0.0,0.0,0.0,0.0,0.0,0.0,0.0,0.0,0.0,0.0,0.0,0.0,0.0,0.0,0.0,0.0,0.0,0.0,0.0,0.0,0.0,0.0,0.0,0.0,0.0,0.0,0.0,0.0,0.0,0.0,0.0,-2.6276,-2.7702,0.0,-2.9241,-2.9888,-2.9888,-2.9336,-2.8066,-2.5901,0.0,0.0,0.0,0.0,0.0,0.0,0.0,0.0,0.0,0.0,0.0,0.0,0.0,0.0,0.0,0.0,0.0,0.0,0.0,0.0,0.0,0.0,0.0,0.0,0.0,0.0,0.0,0.0,0.0,0.0,0.0,0.0,0.0,0.0,0.0,0.0,0.0,0.0,0.0,0.0,0.0,0.0,0.0,0.0,0.0,0.0,0.0,0.0,0.0,0.0,0.0,0.0,0.0,0.0,0.0,0.0,0.0,0.0,0.0,0.0,0.0,0.0,0.0,0.0,0.0,0.0,0.0,0.0,0.0,0.0,0.0,0.0,0.0,0.0,0.0,0.0,0.0,0.0,0.0,0.0,0.0,0.0,0.0,0.0,0.0,0.0,0.0,0.0,0.0,0.0,0.0,0.0,0.0,0.0,0.0,0.0,0.0,0.0,0.0,0.0,0.0,0.0,-2.482,-2.6668,-2.8074,0.0,-2.9368,-2.9857,-2.9907,-2.9169,-2.801,-2.6346,0.0,0.0,0.0,0.0,0.0,0.0,0.0,0.0,0.0,0.0,0.0,0.0,0.0,0.0,0.0,0.0,0.0,0.0,0.0,0.0,0.0,0.0,0.0,0.0,0.0,0.0,0.0,0.0,0.0,0.0,0.0,0.0,0.0,0.0,0.0,0.0,0.0,0.0,0.0,0.0,0.0,0.0,0.0,0.0,0.0,0.0,0.0,0.0,0.0,0.0,0.0,0.0,0.0,0.0,0.0,0.0,0.0,0.0,0.0,0.0,0.0,0.0,0.0,0.0,0.0,0.0,0.0,0.0,0.0,0.0,0.0,0.0,0.0,0.0,0.0,0.0,0.0,0.0,0.0,0.0,0.0,0.0,0.0,0.0,0.0,0.0,0.0,0.0,0.0,0.0,0.0,0.0,0.0,0.0,0.0,0.0,0.0,0.0,0.0,0.0,0.0,0.0,-2.4915,-2.7119,-2.8602,-2.8602,-2.9267,-2.9737,-2.9891,-2.7634,-2.6257,0.0,0.0,0.0,0.0,0.0,0.0,0.0,0.0,0.0,0.0,0.0,0.0,0.0,0.0,0.0,0.0,0.0,0.0,0.0,0.0,0.0,0.0,0.0,0.0,0.0,0.0,0.0,0.0,0.0,0.0,0.0,0.0,0.0,0.0,0.0,0.0,0.0,0.0,0.0,0.0,0.0,0.0,0.0,0.0,0.0,0.0,0.0,0.0,0.0,0.0,0.0,0.0,0.0,0.0,0.0,0.0,0.0,0.0,0.0,0.0,0.0,0.0,0.0,0.0,0.0,0.0,0.0,0.0,0.0,0.0,0.0,0.0,0.0,0.0,0.0,0.0,0.0,0.0,0.0,0.0,0.0,0.0,0.0,0.0,0.0,0.0,0.0,0.0,0.0,0.0,0.0,0.0,0.0,0.0,0.0,0.0,0.0,0.0,0.0,0.0,0.0,0.0,0.0,-2.5578,-2.7363,-2.8686,-2.9306,-2.957,-2.9737,-2.9891,-2.8676,-2.7728,-2.7307,0.0,0.0,0.0,0.0,0.0,0.0,0.0,0.0,0.0,0.0,0.0,0.0,0.0,0.0,0.0,0.0,0.0,0.0,0.0,0.0,0.0,0.0,0.0,0.0,0.0,0.0,0.0,0.0,0.0,0.0,0.0,0.0,0.0,0.0,0.0,0.0,0.0,0.0,0.0,0.0,0.0,0.0,0.0,0.0,0.0,0.0,0.0,0.0,0.0,0.0,0.0,0.0,0.0,0.0,0.0,0.0,0.0,0.0,0.0,0.0,0.0,0.0,0.0,0.0,0.0,0.0,0.0,0.0,0.0,0.0,0.0,0.0,0.0,0.0,0.0,0.0,0.0,0.0,0.0,0.0,0.0,0.0,0.0,0.0,0.0,0.0,0.0,0.0,0.0,0.0,0.0,0.0,0.0,0.0,0.0,0.0,0.0,0.0,0.0,0.0,0.0,0.0,-2.5944,-2.7693,-2.9045,-2.9551,-2.9645,-2.9718,-2.9888,-2.9175,-2.8441,-2.7771,0.0,0.0,0.0,0.0,0.0,0.0,0.0,0.0,0.0,0.0,0.0,0.0,0.0,0.0,0.0,0.0,0.0,0.0,0.0,0.0,0.0,0.0,0.0,0.0,0.0,0.0,0.0,0.0,0.0,0.0,0.0,0.0,0.0,0.0,0.0,0.0,0.0,0.0,0.0,0.0,0.0,0.0,0.0,0.0,0.0,0.0,0.0,0.0,0.0,0.0,0.0,0.0,0.0,0.0,0.0,0.0,0.0,0.0,0.0,0.0,0.0,0.0,0.0,0.0,0.0,0.0,0.0,0.0,0.0,0.0,0.0,0.0,0.0,0.0,0.0,0.0,0.0,0.0,0.0,0.0,0.0,0.0,0.0,0.0,0.0,0.0,0.0,0.0,0.0,0.0,0.0,0.0,0.0,0.0,0.0,0.0,0.0,0.0,0.0,0.0,0.0,0.0,-2.6079,-2.8127,-2.9492,-2.9492,-2.957,-2.9681,-2.9886,-2.9284,-2.8587,-2.7869,0.0,0.0,0.0,0.0,0.0,0.0,0.0,0.0,0.0,0.0,0.0,0.0,0.0,0.0,0.0,0.0,0.0,0.0,0.0,0.0,0.0,0.0,0.0,0.0,0.0,0.0,0.0,0.0,0.0,0.0,0.0,0.0,0.0,0.0,0.0,0.0,0.0,0.0,0.0,0.0,0.0,0.0,0.0,0.0,0.0,0.0,0.0,0.0,0.0,0.0,0.0,0.0,0.0,0.0,0.0,0.0,0.0,0.0,0.0,0.0,-2.3222,-2.2204,0.0,0.0,0.0,0.0,0.0,0.0,0.0,0.0,0.0,0.0,0.0,0.0,0.0,0.0,0.0,0.0,0.0,0.0,0.0,0.0,0.0,0.0,0.0,0.0,0.0,0.0,0.0,0.0,0.0,0.0,0.0,0.0,0.0,0.0,0.0,0.0,0.0,0.0,0.0,0.0,-2.6773,-2.8409,-2.9409,-2.9409,-2.9513,-2.9681,-2.9886,-2.9284,-2.8613,-2.7909,-2.5495,0.0,0.0,0.0,0.0,0.0,0.0,0.0,0.0,0.0,0.0,0.0,0.0,0.0,0.0,0.0,0.0,0.0,0.0,0.0,0.0,0.0,0.0,0.0,0.0,0.0,0.0,0.0,0.0,0.0,0.0,0.0,0.0,0.0,0.0,0.0,0.0,0.0,0.0,0.0,0.0,0.0,0.0,0.0,0.0,0.0,0.0,0.0,0.0,0.0,0.0,0.0,0.0,0.0,0.0,0.0,0.0,0.0,0.0,0.0,-2.4641,-2.3732,0.0,0.0,0.0,0.0,0.0,0.0,0.0,0.0,0.0,0.0,0.0,0.0,0.0,0.0,0.0,0.0,0.0,0.0,0.0,0.0,0.0,0.0,0.0,0.0,0.0,0.0,0.0,0.0,0.0,0.0,0.0,0.0,0.0,0.0,0.0,0.0,0.0,0.0,0.0,0.0,-2.7179,-2.8595,-2.9531,-2.9645,-2.975,-2.988,-2.9992,-2.9759,-2.9128,-2.7958,-2.6266,0.0,0.0,0.0,0.0,0.0,0.0,0.0,0.0,0.0,0.0,0.0,0.0,0.0,0.0,0.0,0.0,0.0,0.0,0.0,0.0,0.0,0.0,0.0,0.0,0.0,0.0,0.0,0.0,0.0,0.0,0.0,0.0,0.0,0.0,0.0,0.0,0.0,0.0,0.0,0.0,0.0,0.0,0.0,0.0,0.0,0.0,0.0,0.0,0.0,0.0,0.0,0.0,0.0,-2.8045,-2.8451,-2.8431,-2.8296,-2.8287,-2.8307,-2.6044,-2.5774,-2.6876,-2.6207,0.0,0.0,0.0,0.0,0.0,0.0,0.0,0.0,0.0,0.0,0.0,0.0,0.0,0.0,0.0,0.0,0.0,0.0,0.0,0.0,0.0,0.0,-2.6813,-2.8039,-2.8569,-2.8338,-2.6632,0.0,0.0,0.0,0.0,0.0,0.0,0.0,0.0,0.0,0.0,0.0,-2.7771,-2.9066,-2.9979,-3.0303,-3.0327,-3.0319,-3.0319,-3.0375,-2.9737,-2.8198,-2.7295,-2.5813,0.0,0.0,0.0,0.0,0.0,0.0,0.0,0.0,0.0,0.0,0.0,0.0,0.0,0.0,0.0,0.0,0.0,0.0,0.0,0.0,0.0,0.0,0.0,0.0,0.0,0.0,0.0,0.0,0.0,0.0,0.0,0.0,-1.8103,-2.0721,0.0,0.0,0.0,0.0,0.0,0.0,0.0,0.0,0.0,0.0,0.0,0.0,0.0,-2.6729,-2.7484,-2.847,-2.8954,-2.8973,-2.9843,-3.024,-3.0153,-2.9439,-2.9506,-3.0104,-2.9023,0.0,-2.7813,-2.7716,0.0,0.0,0.0,0.0,0.0,0.0,0.0,0.0,0.0,0.0,0.0,0.0,0.0,0.0,0.0,0.0,0.0,0.0,0.0,0.0,0.0,0.0,-3.0739,-3.0197,-3.1226,-3.1862,-3.0113,-2.8144,-2.6612,-2.6256,-2.5009,-2.3914,0.0,0.0,0.0,0.0,0.0,0.0,-2.9379,-3.0389,-3.1212,-3.1986,-3.1581,-3.1231,-3.1231,-3.0721,-2.9987,-2.8986,-2.8189,-2.7246,-2.614,-2.4707,0.0,0.0,0.0,0.0,0.0,0.0,0.0,0.0,0.0,0.0,0.0,0.0,0.0,0.0,0.0,0.0,0.0,0.0,0.0,0.0,0.0,0.0,0.0,0.0,0.0,0.0,0.0,0.0,0.0,-1.7857,-2.043,-2.1553,-2.2404,-2.29,0.0,0.0,0.0,0.0,0.0,0.0,0.0,0.0,0.0,-2.6843,-2.8173,-2.9089,-2.9457,-3.0772,-3.1439,-3.1438,-3.1825,-3.1969,-3.1899,-3.1532,-3.156,-3.1888,-3.1502,-3.1146,-3.0703,-2.9265,-2.7942,-2.6861,0.0,0.0,0.0,0.0,-2.7224,-2.7757,-2.8597,-2.8635,-2.8308,-2.8308,0.0,0.0,0.0,0.0,0.0,0.0,0.0,-2.8396,-2.9696,-3.086,-3.1727,-3.178,-3.2396,-3.273,-3.1968,-3.0953,-2.9635,-2.7738,-2.7122,-2.6458,-2.4985,-2.5197,0.0,0.0,0.0,-2.909,-3.0745,-3.1565,-3.2168,-3.2622,-3.2426,-3.2064,-3.1609,-3.1296,-3.0544,-2.9179,-2.8775,-2.8198,-2.7371,-2.6159,-2.5101,0.0,0.0,0.0,0.0,0.0,0.0,0.0,0.0,0.0,0.0,0.0,0.0,0.0,0.0,0.0,0.0,0.0,0.0,0.0,0.0,0.0,0.0,0.0,0.0,0.0,0.0,0.0,0.0,-2.014,-2.2172,-2.2617,-2.319,-2.3654,0.0,0.0,0.0,0.0,0.0,0.0,-2.7119,-2.8065,-2.8634,-2.8865,-3.0404,-3.1236,-3.1236,-3.2483,-3.3197,-3.3399,-3.3175,-3.3153,-3.3292,-3.308,-3.2983,-3.2972,-3.2972,-3.2972,-3.2817,-3.0951,-2.9669,-2.8887,-2.8927,-2.8792,-2.8598,-2.884,-2.9361,-3.0047,-3.0917,-3.1042,-3.0848,-3.106,-3.0104,-2.8868,-2.8868,0.0,0.0,0.0,0.0,-3.0177,-3.1638,-3.2165,-3.2492,-3.3083,-3.3391,-3.3506,-3.3276,-3.3237,-3.2429,-2.9721,-2.9544,-2.9214,-2.7274,-2.7836,0.0,-2.79,-2.9398,-3.1015,-3.2186,-3.2779,-3.3207,-3.3532,-3.3372,-3.2891,-3.2083,-3.1814,-3.1044,-2.9525,-2.9217,-2.8832,-2.8217,-2.739,-2.6524,-2.5649,0.0,0.0,0.0,0.0,0.0,0.0,0.0,0.0,0.0,0.0,0.0,0.0,0.0,0.0,0.0,0.0,0.0,0.0,0.0,0.0,0.0,0.0,0.0,0.0,0.0,0.0,0.0,0.0,0.0,-2.5105,-2.5337,0.0,0.0,0.0,0.0,-2.7643,-2.7596,-2.791,-2.883,-2.9763,-3.0637,-3.1484,-3.2461,-3.2966,-3.2966,-3.3062,-3.3476,-3.4229,-3.3404,-3.3388,-3.4096,-3.3345,-3.2967,-3.291,-3.291,-3.291,-3.2904,-3.2837,-3.2301,-3.151,-3.151,-3.1047,-3.0469,-3.1221,-3.1529,-3.1703,-3.2571,-3.2339,-3.178,-3.2609,-3.2243,-3.151,-3.151,-3.0989,0.0,0.0,-3.158,-3.1761,-3.2634,-3.3449,-3.4064,-3.4122,-3.4776,-3.5141,-3.4314,-3.4115,-3.3826,-3.2844,-3.2073,-3.153,-3.1407,0.0,-3.0529,-3.1315,-3.1539,-3.2218,-3.3853,-3.4103,-3.4449,-3.5295,-3.4622,-3.3776,-3.291,-3.2141,-3.1314,-3.0379,-2.9563,-2.9083,-2.9044,-2.8255,-2.7409,-2.6544,-2.564,0.0,0.0,0.0,0.0,0.0,0.0,0.0,0.0,0.0,0.0,0.0,0.0,0.0,0.0,0.0,0.0,0.0,0.0,0.0,0.0,0.0,0.0,0.0,0.0,0.0,0.0,0.0,0.0,-2.6064,-2.6768,0.0,-2.7503,-2.7943,-2.8566,-2.9443,-2.9826,-3.0428,-3.1391,-3.1757,-3.2128,-3.2517,-3.3456,-3.3914,-3.3873,-3.4422,-3.4824,-3.5058,-3.4757,-3.477,-3.502,-3.4732,-3.4597,-3.4584,-3.4584,-3.4872,-3.5353,-3.5366,-3.4225,-3.2485,-3.2517,-3.2324,-3.2081,-3.2405,-3.2848,-3.3357,-3.3708,-3.36,-3.328,-3.3024,-3.2723,-3.2473,-3.2473,-3.2261,-3.2223,-3.3057,-3.3308,-3.35,-3.4353,-3.4795,-3.5045,-3.5045,-3.5276,-3.5411,-3.5103,-3.5032,-3.4936,-3.4635,-3.3436,-3.2301,-3.1789,-3.1866,-3.2122,-3.2423,-3.2961,-3.3737,-3.4891,-3.5045,-3.5161,-3.5468,-3.5218,-3.4468,-3.3026,-3.2641,-3.1891,-3.0494,-3.0121,-2.9948,-2.9948,-2.8621,-2.7755,-2.7448,-2.6024,-2.3899,0.0,0.0,0.0,0.0,0.0,0.0,0.0,0.0,0.0,0.0,0.0,0.0,0.0,0.0,0.0,0.0,0.0,0.0,0.0,0.0,0.0,0.0,0.0,0.0,0.0,0.0,-2.5561,-2.6981,-2.7658,-2.8227,-2.8818,-2.9212,-2.9908,-3.106,-3.1474,-3.2083,-3.3054,-3.3197,-3.353,-3.4186,-3.4851,-3.5195,-3.5145,-3.5732,-3.5977,-3.5945,-3.5913,-3.6073,-3.6353,-3.6353,-3.6353,-3.6353,-3.6353,-3.6661,-3.7142,-3.7142,-3.6142,-3.4622,-3.4668,-3.4494,-3.418,-3.4218,-3.4424,-3.4642,-3.4693,-3.4693,-3.4533,-3.3949,-3.3776,-3.3776,-3.3776,-3.3776,-3.391,-3.4487,-3.4641,-3.4776,-3.5353,-3.5493,-3.5493,-3.5493,-3.5493,-3.5493,-3.5493,-3.5493,-3.5493,-3.5493,-3.4562,-3.3613,-3.3081,-3.3429,-3.3782,-3.378,-3.4268,-3.4853,-3.543,-3.5493,-3.5493,-3.5493,-3.5493,-3.4795,-3.3045,-3.2891,-3.2179,-3.0513,-3.0398,-3.0398,-3.0398,-2.9044,-2.8179,-2.7909,-2.5457,-2.3717,-2.2774,0.0,0.0,0.0,0.0,0.0,0.0,0.0,0.0,0.0,0.0,0.0,0.0,0.0,0.0,0.0,0.0,0.0,0.0,0.0,0.0,0.0,0.0,0.0,-2.5522,-2.626,-2.7091,-2.7948,-2.8083,-2.878,-3.0482,-3.0388,-3.0901,-3.252,-3.2547,-3.2842,-3.3713,-3.4014,-3.4927,-3.6546,-3.676,-3.6832,-3.6832,-3.6845,-3.6837,-3.6837,-3.6771,-3.718,-3.8007,-3.8007,-3.8007,-3.8007,-3.8007,-3.8027,-3.8046,-3.8046,-3.8065,-3.8065,-3.8027,-3.7488,-3.6738,-3.6738,-3.6257,-3.5584,-3.5584,-3.5584,-3.5584,-3.5584,-3.5584,-3.5584,-3.5584,-3.5584,-3.557,-3.5565,-3.5545,-3.5545,-3.5545,-3.5526,-3.5526,-3.5532,-3.5545,-3.5532,-3.5526,-3.5526,-3.5545,-3.5545,-3.5526,-3.5493,-3.5493,-3.5493,-3.5493,-3.5493,-3.5493,0.0,-3.5493,-3.5493,-3.5493,-3.5493,-3.5493,-3.4814,-3.3083,-3.291,-3.2199,-3.0533,-3.0417,-3.0398,-3.0398,-2.9563,-2.8698,-2.789,-2.4063,-2.3199,-2.5409,0.0,0.0,0.0,0.0,0.0,0.0,0.0,0.0,0.0,0.0,0.0,0.0,0.0,0.0,0.0,0.0,0.0,0.0,0.0,0.0,0.0,0.0,-2.6348,-2.6376,-2.7641,-2.8655,-2.8849,-2.9989,-3.0926,-3.1369,-3.2253,-3.3035,-3.3633,-3.4006,-3.4429,-3.4894,-3.5561,-3.6166,-3.6735,-3.7398,-3.7706,-3.7674,-3.7679,-3.7665,-3.7676,-3.7642,-3.7777,-3.8007,-3.8007,-3.8007,-3.8007,-3.8007,-3.8354,-3.8931,-3.8931,-3.9277,-3.9681,-3.8469,-3.7853,-3.7642,-3.7642,-3.7507,-3.7315,-3.7315,-3.7315,-3.7315,-3.7315,-3.7315,-3.7315,-3.7315,-3.7315,-3.718,-3.6546,-3.6372,-3.6372,-3.6372,-3.5949,-3.5661,-3.6238,-3.6372,-3.6219,-3.5641,-3.5968,-3.6372,-3.6372,-3.5911,-3.5493,-3.5493,-3.5493,-3.5493,-3.5493,-3.5493,-3.5493,-3.5493,-3.5493,-3.5493,-3.5493,-3.5493,-3.5045,-3.393,-3.3256,-3.2449,-3.141,-3.0756,-3.0398,-3.0398,-2.9563,-2.8525,-2.7272,-2.5369,-2.5514,0.0,0.0,0.0,0.0,0.0,0.0,0.0,0.0,0.0,0.0,0.0,0.0,0.0,0.0,0.0,0.0,0.0,0.0,0.0,0.0,0.0,0.0,-2.6223,-2.7325,-2.7701,-2.8627,-2.9497,-3.0172,-3.1127,-3.2034,-3.2725,-3.3437,-3.4041,-3.4515,-3.516,-3.5619,-3.5802,-3.6684,-3.7392,-3.7833,-3.8334,-3.8584,-3.8537,-3.8537,-3.8541,-3.8546,-3.8546,-3.8719,-3.9046,-3.9046,-3.9046,-3.9046,-3.9046,-3.9335,-3.9796,-3.9796,-4.0065,-4.0392,0.0,0.0,0.0,0.0,-3.8007,-3.8007,-3.8007,-3.8007,-3.8007,-3.8007,-3.8007,-3.8007,-3.8007,-3.8007,-3.7892,-3.7392,-3.7238,-3.7238,-3.7238,-3.6911,-3.668,-3.7142,-3.7238,-3.7123,-3.6642,-3.6911,-3.7142,-3.6771,-3.6622,0.0,-3.6084,-3.6007,-3.6142,-3.6488,-3.6546,-3.643,-3.6065,-3.6007,-3.5872,-3.5545,-3.5493,-3.5161,-3.4257,-3.3737,0.0,0.0,0.0,-3.0621,-2.989,-2.9371,0.0,0.0,0.0,0.0,0.0,-2.9674,0.0,0.0,-2.7351,-2.7255,0.0,0.0,0.0,0.0,0.0,0.0,0.0,0.0,0.0,0.0,0.0,0.0,0.0,0.0,0.0,0.0,-2.6602,-2.8357,-2.9206,-2.9418,-3.0036,-3.1529,-3.1799,-3.2494,-3.4121,-3.4136,-3.4378,-3.5174,-3.5949,-3.6411,-3.6427,-3.751,0.0,0.0,0.0,-3.9431,-3.9431,-3.9431,-3.9431,-3.9431,-3.9431,-3.9796,-4.0489,-4.0489,-4.0489,-4.0489,-4.0489,-4.0489,-4.0489,-4.0489,-4.0489,-4.0489,-4.0489,-4.0046,-3.9335,-3.8565,-3.8277,-3.8277,-3.8277,0.0,0.0,-3.8277,-3.8277,-3.8277,-3.8277,-3.8277,-3.8257,-3.8161,-3.8142,-3.8142,-3.8142,-3.8065,-3.8027,-3.8123,-3.8142,-3.8123,-3.8022,-3.808,-3.7911,-3.7151,-3.7541,-3.7815,-3.7238,-3.6969,-3.7123,-3.7873,-3.8007,-3.7719,-3.6949,-3.6757,-3.643,-3.5718,-3.5551,0.0,-3.441,-3.4257,-3.3872,-3.3103,-3.2275,-3.1141,-2.9583,-2.9467,-2.9275,-2.8898,-2.843,-2.9594,-3.248,-3.2961,-3.3083,-3.2833,-2.9852,-2.9256,0.0,0.0,0.0,0.0,0.0,0.0,0.0,0.0,0.0,0.0,0.0,0.0,0.0,0.0,0.0,-2.7904,-2.8627,-2.9235,-3.0042,-3.0775,-3.1334,-3.1661,-3.2316,-3.3133,-3.4129,-3.4668,-3.5082,-3.5427,-3.6036,-3.646,-3.6622,-3.8166,-3.9123,-3.9277,-3.9931,-4.0258,-4.0258,-4.0258,-4.0258,-4.0258,-4.0258,0.0,-4.0489,-4.0489,-4.0489,-4.0489,-4.0489,-4.0489,-4.0489,-4.0489,-4.0489,-4.0489,-4.0489,-4.0392,-4.0239,-4.0065,-4.0008,-4.0008,-4.0008,-4.0008,-4.0008,-4.0008,-4.0008,-4.0008,-4.0008,-4.0008,0.0,-3.9219,-3.9046,-3.9046,-3.9046,-3.8527,-3.818,-3.8873,-3.9046,-3.8854,-3.8157,-3.8561,-3.9003,-3.883,-3.8368,-3.8373,-3.9565,-3.8642,-3.7815,-3.7969,-3.8007,-3.795,-3.7777,-3.7142,-3.6642,-3.6488,-3.5892,-3.543,-3.5257,-3.4603,-3.4122,-3.3949,-3.3141,-3.2526,-3.2179,-3.1744,-3.1066,-3.01,-2.9972,-3.1539,-3.4841,-3.4956,-3.4276,-3.2872,-3.2237,-3.2102,0.0,0.0,0.0,0.0,0.0,0.0,0.0,0.0,0.0,0.0,0.0,-2.4529,0.0,0.0,-2.72,-2.8917,-2.9166,-2.9589,-3.0879,-3.1426,-3.1857,-3.2242,-3.307,-3.3936,-3.4776,-3.5513,-3.5998,-3.6089,-3.7183,-3.7894,-3.8007,-3.92,-3.9892,-3.9892,-4.0277,-4.0489,-4.0489,-4.0489,-4.0489,-4.0489,-4.0489,-4.0489,-4.0489,-4.0489,-4.0489,-4.0489,-4.0489,-4.0489,-4.0489,-4.0489,-4.0489,-4.0489,-4.0489,-4.0489,-4.0489,-4.0489,-4.0489,-4.0489,-4.0489,-4.0489,-4.0489,-4.0489,-4.0489,-4.0489,-4.0489,-4.0489,-4.0412,-4.0008,-3.9892,-3.9892,-3.9892,-3.9585,-3.9354,-3.9796,-3.9892,-3.9777,-3.935,-3.96,-3.9777,-3.9373,-3.9277,-3.9392,-3.9815,-3.9527,-3.9238,-3.9238,-3.9238,-3.9104,-3.87,-3.8277,-3.768,-3.6796,-3.6353,-3.5949,-3.5532,-3.5103,-3.4661,-3.4218,-3.3795,-3.3353,-3.291,-3.2378,-3.1962,-3.1661,-3.0836,-3.2084,-3.5515,-3.5489,-3.5053,-3.4199,-3.4199,-3.3968,0.0,0.0,0.0,0.0,0.0,0.0,0.0,0.0,-2.3743,-2.4446,-2.5283,-2.6343,-2.7864,-2.8142,-2.8431,-2.9282,-2.952,-3.0094,-3.1503,-3.198,-3.2429,-3.3083,-3.3776,-3.4545,-3.543,-3.6238,-3.6699,-3.6699,-3.8315,-3.9296,-3.9296,-4.0046,-4.0489,-4.0489,-4.0489,-4.0489,-4.0489,-4.0489,-4.0489,-4.0489,-4.0489,-4.0489,-4.0489,-4.0489,-4.0489,-4.0489,-4.0489,-4.0489,-4.0489,-4.0489,-4.0489,-4.0489,-4.0489,-4.0489,-4.0489,-4.0489,-4.0489,-4.0489,-4.0489,-4.0489,-4.0489,-4.0489,-4.0489,-4.0489,-4.0489,-4.0489,-4.0489,-4.0489,-4.0489,-4.0489,-4.0489,-4.0489,-4.0489,-4.0489,-4.0489,-4.0489,-4.0489,-4.0489,-4.0315,-3.9665,-4.0065,-4.0277,-3.9642,-4.0065,-4.0489,-4.0489,-4.0489,-4.0258,-3.9623,-3.9392,-3.8757,-3.7353,-3.7046,-3.6622,-3.5815,-3.5603,-3.5199,-3.4507,-3.4449,-3.4141,-3.343,-3.2994,-3.2955,-3.341,-3.2077,-3.2743,-3.5509,-3.5488,-3.5493,-3.5493,-3.5493,-3.5122,-2.1793,-2.1562,-2.1908,-2.3533,-2.3379,-2.3167,0.0,0.0,-2.6197,-2.6294,-2.7006,-2.7902,-2.8805,-2.9008,-2.9327,-3.0133,-3.091,-3.1487,-3.166,-3.2968,-3.3949,-3.4045,-3.4141,-3.4545,-3.543,-3.6238,-3.6699,-3.6699,-3.8315,-3.9296,-3.9296,-4.0046,-4.0489,-4.0489,-4.0489,-4.0489,-4.0489,-4.0489,-4.0489,-4.0489,-4.0489,-4.0489,-4.0489,-4.0489,-4.0489,-4.0489,-4.0489,-4.0489,-4.0489,-4.0489,-4.0489,-4.0489,-4.0489,-4.0489,-4.0489,-4.0489,-4.0489,-4.0489,-4.0489,-4.0489,-4.0489,-4.0489,-4.0489,-4.0489,-4.0489,-4.0489,-4.0489,-4.0489,-4.0489,-4.0489,-4.0489,-4.0489,-4.0489,-4.0489,-4.0489,-4.0489,-4.0489,-4.0489,-4.0469,-4.0373,-4.0431,-4.0469,-4.0373,-4.0431,-4.0489,-4.0489,-4.0489,-4.0469,-4.0373,-3.9738,-3.9219,-3.9027,-3.8315,-3.7507,-3.6642,-3.5911,-3.5468,-3.5372,-3.5353,-3.5315,-3.5218,-3.5147,-3.5147,-3.5218,-3.5012,-3.5128,-3.5507,-3.5507,-3.5493,-3.5493,-3.5493,-3.5449,-2.3812,-2.3716,-2.3889,0.0,-2.4524,-2.4447,-2.513,-2.5967,-2.6736,-2.7255,-2.8016,-2.8863,-2.9698,-2.9883,-3.0017,0.0,-3.1141,-3.1852,-3.2333,-3.343,-3.4391,-3.4911,-3.4968,-3.5276,-3.6122,-3.6969,-3.768,-3.8161,-3.9315,-3.9988,-3.9988,-4.0315,-4.0489,-4.0489,-4.0489,-4.0489,-4.0489,-4.0489,-4.0489,-4.0489,-4.0489,-4.0489,-4.0489,-4.0489,-4.0489,-4.0489,-4.0489,-4.0489,-4.0489,-4.0489,-4.0489,-4.0489,-4.0489,-4.0489,-4.0489,-4.0489,-4.0489,-4.0489,-4.0489,-4.0489,-4.0489,-4.0489,-4.0489,-4.0489,-4.0489,-4.0489,-4.0489,-4.0489,-4.0489,-4.0489,-4.0489,-4.0489,-4.0489,-4.0489,-4.0489,-4.0489,-4.0489,-4.0489,-4.0489,-4.0489,-4.0489,-4.0489,-4.0489,-4.0489,-4.0489,-4.0489,-4.0489,-4.0489,-4.0489,-4.02,-3.9815,-3.9354,-3.8527,-3.7642,-3.6776,-3.6392,-3.6007,-3.5532,-3.5493,-3.5493,-3.5493,-3.5493,-3.5493,-3.5493,-3.5493,-3.5493,-3.5493,-3.5493,-3.5493,-3.5512,-3.5988,-3.6199,-2.5303,0.0,0.0,-2.5303,-2.5303,-2.5303,-2.5303,-2.6159,-2.714,-2.7775,-2.8736,-2.964,-3.0294,-3.0398,-3.0475,-3.0717,-3.1468,-3.2314,-3.3141,-3.4007,-3.4795,-3.543,-3.5493,-3.5911,-3.6969,-3.7623,-3.8354,-3.9219,-4.0046,-4.0489,-4.0489,-4.0489,-4.0489,-4.0489,-4.0489,-4.0623,-4.0854,-4.0854,-4.0969,-4.1219,-4.1219,-4.1219,-4.12,-4.0969,-4.0719,-4.0504,-4.0549,-4.0564,-4.0564,-4.0588,-4.0582,-4.0582,-4.0559,-4.0564,-4.0549,-4.0519,-4.0489,-4.0489,-4.0489,-4.0489,-4.0504,-4.0549,-4.0564,-4.0564,-4.0564,-4.0574,-4.0568,-4.0559,-4.0574,-4.0582,-4.0582,-4.0582,-4.0582,-4.0582,-4.0582,-4.0582,-4.0593,-4.0588,-4.0577,-4.0584,-4.0577,-4.0582,-4.0582,-4.0582,-4.0588,-4.0564,-4.0564,-4.0564,-4.0564,-4.0564,-4.0318,-3.9696,-3.8873,-3.8104,-3.7469,-3.7199,-3.6757,-3.6026,-3.5968,-3.5834,-3.5512,-3.5493,-3.5493,-3.5493,-3.5493,-3.5493,-3.5493,-3.5493,-3.5622,-3.5853,-3.643,-3.6834,0.0,0.0,-2.5303,-2.5303,-2.5303,-2.5303,-2.5303,-2.664,-2.7871,-2.789,-2.9217,-3.0359,-3.0398,-3.0398,-3.0679,-3.1525,-3.2333,-3.316,-3.4026,-3.4911,-3.5468,-3.5507,-3.5493,-3.6161,0.0,-3.7988,-3.8354,-3.9219,-4.0046,-4.0489,-4.0489,-4.0489,-4.0489,-4.0489,-4.0489,-4.0912,-4.1758,-4.1758,-4.2181,-4.3028,-4.3028,-4.3028,-4.2989,-4.2162,-4.1296,-4.0504,-4.0629,-4.0694,-4.0706,-4.0761,-4.0781,-4.0772,-4.0723,-4.0694,-4.0681,-4.0549,-4.0489,-4.0489,-4.0489,-4.0489,-4.0519,-4.0642,-4.0694,-4.0694,-4.0694,-4.0738,-4.0781,-4.0711,-4.0738,-4.0781,-4.0781,-4.0781,-4.0781,-4.0781,-4.0781,-4.0781,-4.0796,-4.0789,-4.0781,-4.0782,-4.0788,-4.0781,-4.0781,-4.0781,-4.0761,-4.0706,-4.0694,-4.0694,-4.0694,-4.0694,-4.0623,-4.0481,-3.9738,-3.9238,-3.9219,-3.845,-3.7719,-3.7194,-3.7156,-3.6642,-3.5565,-3.5493,-3.5493,-3.5493,-3.5493,-3.5493,-3.5493,-3.5493,-3.5911,-3.6661,-3.6699,-3.7161,-2.5303,0.0,-2.5303,-2.5303,-2.5303,-2.5437,-2.6024,-2.6621,-2.7351,-2.8467,-2.914,-2.9717,-3.0294,-3.0398,-3.0698,-3.1564,-3.2372,-3.3199,-3.4083,-3.4949,-3.5493,-3.5493,-3.5493,0.0,0.0,0.0,0.0,-3.9988,-4.0335,-4.0489,-4.0489,-4.0489,-4.0489,-4.0489,-4.0489,-4.0642,-4.0931,-4.1508,-4.1994,-4.2367,-4.2367,-4.2309,-4.222,-4.1335,-4.1127,-4.1473,-4.0933,-4.1064,-4.1586,-4.1034,-4.081,-4.0801,-4.0723,-4.0694,-4.0681,-4.0549,-4.0489,-4.0489,-4.0489,-4.0564,-4.0635,-4.0574,-4.0629,-4.0681,-4.0588,-4.0655,-4.0734,-4.0706,-4.0749,-4.081,-4.081,-4.081,-4.081,-4.081,-4.081,-4.08,-4.0799,-4.0809,-4.079,-4.0797,-4.0796,-4.081,-4.081,-4.081,-4.0801,-4.0761,-4.0662,-4.0588,-4.0681,-4.0694,-4.0681,-4.0629,-4.0397,-3.997,-3.935,-3.9027,-3.8392,-3.7262,-3.6498,-3.5907,-3.5508,-3.5489,-3.5504,-3.5498,-3.5498,-3.5498,-3.5493,-3.6045,-3.6449,-3.6738,-3.7892,-3.8584,-2.5303,-2.5303,-2.5303,-2.5303,-2.5303,-2.5437,-2.6005,-2.639,-2.6909,-2.7986,-2.8448,-2.8929,-2.9775,-2.9698,-3.0083,-3.1833,-3.2314,-3.2987,-3.4468,-3.5161,-3.5622,-3.5892,-3.593,-3.6603,0.0,0.0,0.0,-4.0392,-4.0489,-4.0489,-4.0489,-4.0489,-4.0489,-4.0489,-4.0489,-4.0796,-4.1412,-4.1989,-4.2611,-4.3294,-4.333,-4.3148,-4.2757,-4.2232,-4.2176,-4.2462,-4.1964,-4.2073,-4.2563,-4.1712,-4.1376,-4.1322,-4.0907,-4.0746,-4.0723,-4.0559,-4.0489,-4.0504,-4.0545,-4.0629,-4.0694,-4.0687,-4.0746,-4.0789,-4.0692,-4.0759,-4.0839,-4.082,-4.0857,-4.0909,-4.0909,-4.0909,-4.0909,-4.0909,-4.0909,-4.0915,-4.0908,-4.0909,-4.0915,-4.0908,-4.0909,-4.0909,-4.0909,-4.0879,-4.0882,-4.0882,-4.0718,-4.0636,-4.0694,-4.0711,-4.0711,-4.0629,-4.0629,-4.0376,-3.9773,-3.9719,-3.9335,-3.845,-3.7704,-3.7286,-3.7286,-3.73,-3.7281,-3.7296,-3.6877,-3.6685,-3.668,-3.7007,-3.7315,-3.7661,-3.8777,-3.945,-2.5303,-2.5303,-2.5303,-2.5303,-2.5303,-2.5303,-2.536,-2.5967,-2.6563,-2.6659,-2.7294,-2.8082,0.0,0.0,-2.9025,-3.2314,-3.2237,-3.2641,-3.5161,-3.5545,-3.5853,0.0,0.0,0.0,0.0,0.0,0.0,-4.0431,-4.0489,-4.0489,-4.0489,-4.0489,-4.0508,-4.0566,-4.0566,-4.1373,-4.3085,-4.3159,-4.3987,-4.5603,-4.5688,-4.5297,-4.4498,-4.4583,-4.42,-4.3481,-4.3557,-4.363,-4.3617,-4.2811,-4.2474,-4.237,-4.1334,-4.0917,-4.0849,-4.0654,-4.0539,-4.053,-4.0668,-4.0706,-4.0742,-4.0918,-4.0987,-4.0994,-4.0987,-4.1033,-4.1078,-4.1031,-4.1057,-4.1108,-4.1108,-4.1108,-4.1108,-4.1108,-4.1108,-4.1108,-4.1108,-4.1108,-4.1108,-4.1108,-4.1108,-4.1108,-4.1108,-4.1057,-4.1013,-4.1013,-4.0898,-4.0791,-4.0711,-4.078,-4.074,-4.053,-4.0519,-4.0519,-4.0504,-4.0489,-4.0504,-4.05,-4.0515,-4.0496,-4.0506,-4.0506,-4.0468,-4.041,-3.936,-3.8806,-3.8768,-3.8291,-3.8488,-3.9296,-3.9335,-3.9758,-2.5303,-2.5303,-2.5303,-2.5303,-2.5303,-2.5457,-2.612,-2.5947,-2.6005,-2.7294,-2.7236,-2.7198,0.0,0.0,0.0,-3.166,-3.2333,0.0,-3.5238,-3.6026,0.0,-3.668,0.0,-3.8104,-3.9181,-3.9296,0.0,0.0,-4.0489,-4.0489,-4.0489,-4.0489,-4.0796,-4.145,-4.147,-4.1989,-4.3085,-4.379,-4.4619,-4.5603,-4.507,-4.473,-4.4479,-4.386,-4.3898,-4.4409,-4.3858,-4.4005,-4.4586,-4.372,-4.3372,-4.3349,-4.3013,-4.2486,-4.1894,-4.1743,-4.1283,-4.074,-4.0885,-4.0848,-4.0781,-4.0829,-4.0926,-4.0981,-4.0882,-4.0921,-4.1011,-4.0994,-4.1057,-4.1108,-4.1108,-4.1108,-4.1108,-4.1108,-4.1108,-4.1108,-4.1108,-4.1108,-4.1108,-4.1108,-4.1108,-4.1108,-4.1108,-4.1081,-4.1074,-4.1074,-4.1046,-4.0998,-4.0926,-4.0933,-4.089,-4.074,-4.0729,-4.0648,-4.0519,-4.0489,-4.0504,-4.0504,-4.0504,-4.0504,-4.05,-4.05,-4.01,-3.9253,-3.895,-3.8604,-3.82,-3.8719,-3.9084,-3.9296,-3.9912,-4.0296,-2.587,-2.5591,-2.538,-2.5764,-2.5572,-2.5418,-2.5928,-2.5649,-2.5572,-2.6563,-2.637,0.0,-2.7178,0.0,0.0,0.0,0.0,0.0,-3.4699,-3.5949,-3.6853,0.0,-3.8046,0.0,-3.9738,-3.9815,-4.0008,0.0,-4.0489,-4.0489,-4.0489,-4.0854,-4.1296,-4.1777,-4.2181,-4.2777,-4.3624,-4.453,-4.5186,-4.5603,-4.5244,-4.5065,-4.5059,-4.4601,-4.4713,-4.5254,-4.4798,-4.49,-4.5332,-4.4449,-4.4136,-4.4148,-4.37,-4.3218,-4.2773,-4.2274,-4.1781,-4.1335,-4.1084,-4.094,-4.0882,-4.0909,-4.0986,-4.1028,-4.0955,-4.0986,-4.1033,-4.1033,-4.1074,-4.1108,-4.1108,-4.1108,-4.1108,-4.1108,-4.1108,-4.1108,-4.1108,-4.1108,-4.1108,-4.1108,-4.1108,-4.1108,-4.1108,-4.1108,-4.1108,-4.1108,-4.1108,-4.1081,-4.1057,-4.1031,-4.0948,-4.0761,-4.0771,-4.0684,-4.0511,-4.0496,-4.0489,-4.0489,-4.0489,-4.0489,-4.0489,-4.0489,-4.02,-3.9565,-3.9546,-3.9392,-3.9104,-3.9585,-3.9815,-3.9835,-4.0277,-4.0489,-2.6601,-2.6063,-2.5649,-2.6409,-2.6043,-2.5437,-2.5322,-2.5303,-2.5303,-2.5303,0.0,-2.5534,-2.6294,-2.6524,-2.7428,-2.9975,0.0,-3.2333,-3.4122,-3.5815,-3.7161,-3.7911,-3.8854,-3.9719,-4.0431,-4.0489,-4.0489,-4.0489,-4.0489,-4.0546,-4.0662,-4.1508,-4.2027,-4.2143,-4.2989,-4.3778,-4.447,-4.522,-4.5586,-4.5603,-4.5731,-4.5786,-4.5814,-4.5852,-4.5889,-4.5899,-4.5899,-4.5899,-4.5841,-4.5073,-4.4783,-4.472,-4.4035,-4.3664,-4.342,-4.2602,-4.2237,-4.2043,-4.1286,-4.1007,-4.1013,-4.1074,-4.1108,-4.1108,-4.1108,-4.1108,-4.1108,-4.1108,-4.1108,-4.1108,-4.1108,-4.1108,-4.1108,-4.1108,-4.1108,-4.1108,-4.1108,-4.1108,-4.1108,-4.1108,-4.1108,-4.1108,-4.1108,-4.1085,-4.1081,-4.1081,-4.1078,-4.1058,-4.1062,-4.1047,-4.0948,-4.0722,-4.0707,-4.0674,-4.0514,-4.0501,-4.0489,-4.0489,-4.0489,-4.0489,-4.0489,-4.0489,-4.0489,-4.0489,-4.0489,-4.0489,-4.0489,-4.0489,-4.0489,-4.0489,-4.0489,-4.0489,-2.6601,-2.6486,-2.6409,-2.6563,-2.6486,-2.6197,-2.5457,-2.5303,0.0,0.0,-2.5303,-2.5341,-2.5495,-2.612,-2.7428,-2.9975,0.0,0.0,0.0,0.0,-3.7834,0.0,0.0,0.0,0.0,-4.0489,0.0,0.0,-4.0489,-4.0816,-4.1546,-4.2393,-4.3181,-4.3855,-4.4701,-4.522,-4.5355,-4.5509,-4.5586,-4.5586,-4.562,-4.57,-4.58,-4.5808,-4.5847,-4.5899,-4.5899,-4.5899,-4.588,-4.5744,-4.5308,-4.4793,-4.5398,-4.4779,-4.3565,-4.3465,-4.2963,-4.2222,-4.1379,-4.1086,-4.1072,-4.1101,-4.1108,-4.1108,-4.1108,-4.1108,-4.1108,-4.1108,-4.1108,-4.1108,-4.1108,-4.1108,-4.1108,-4.1108,-4.1108,-4.1108,-4.1108,-4.1108,-4.1108,-4.1108,-4.1108,-4.1108,-4.1108,-4.1042,-4.1031,-4.1031,-4.0921,-4.0867,-4.0922,-4.1019,-4.1006,-4.08,-4.0834,-4.0771,-4.053,-4.0485,-4.0489,-4.0489,-4.0489,-4.0489,-4.0489,-4.0489,-4.0489,-4.0489,-4.0489,-4.0489,-4.0489,-4.0489,-4.0489,-4.0489,-4.0489,-4.0489,-2.6601,-2.6274,-2.6043,-2.6486,-2.6255,-2.5813,-2.5399,0.0,0.0,0.0,-2.5303,-2.5168,-2.4755,0.0,0.0,0.0,0.0,0.0,0.0,0.0,0.0,0.0,0.0,0.0,0.0,-4.0489,-4.0489,-4.0489,-4.0912,-4.1354,-4.1777,-4.3028,-4.4105,-4.4951,-4.5374,-4.5586,-4.555,-4.5586,-4.5586,-4.555,-4.5586,-4.5637,-4.57,-4.57,-4.5708,-4.5742,-4.5742,-4.5728,-4.5694,-4.5694,-4.551,-4.5267,-4.5677,-4.5414,-4.4762,-4.435,-4.3689,-4.2857,-4.2042,-4.1481,-4.1106,-4.1105,-4.1094,-4.1094,-4.1101,-4.1101,-4.1101,-4.1101,-4.1104,-4.1108,-4.1097,-4.1101,-4.1108,-4.1101,-4.1104,-4.1108,-4.1101,-4.1104,-4.1108,-4.1101,-4.1101,-4.1101,-4.1101,-4.1042,-4.1,-4.1007,-4.089,-4.0829,-4.089,-4.1012,-4.1023,-4.0813,-4.0809,-4.0726,-4.0524,-4.0511,-4.0489,-4.0489,-4.0489,-4.0489,-4.0489,-4.0489,-4.0489,-4.0489,-4.0489,-4.0489,-4.0489,-4.0489,-4.0489,-4.0489,-4.0489,-4.0489,-2.6601,-2.6236,-2.5986,-2.6486,-2.6236,-2.5774,-2.538,-2.5303,0.0,0.0,-2.5303,-2.5063,-2.4245,0.0,0.0,0.0,0.0,0.0,0.0,0.0,0.0,0.0,0.0,0.0,0.0,-4.0489,0.0,-4.0489,-4.1296,-4.1934,-4.2316,-4.3758,-4.4893,-4.5566,-4.5586,-4.5568,-4.5495,-4.555,-4.5531,-4.5476,-4.555,-4.5586,-4.5586,-4.5586,-4.5586,-4.5586,-4.5586,-4.5568,-4.5476,-4.5495,-4.5451,-4.5382,-4.553,-4.5592,-4.5452,-4.4676,-4.3986,-4.3305,-4.2357,-4.1617,-4.1052,-4.1064,-4.1081,-4.1096,-4.1105,-4.1109,-4.1109,-4.1109,-4.1097,-4.1097,-4.11,-4.1109,-4.1101,-4.1094,-4.1097,-4.1101,-4.109,-4.1097,-4.1101,-4.109,-4.1109,-4.1085,-4.1057,-4.1007,-4.0945,-4.0918,-4.0801,-4.0751,-4.081,-4.0916,-4.0897,-4.0754,-4.069,-4.0617,-4.052,-4.0506,-4.0489,-4.0489,-4.0489,-4.0489,-4.0489,-4.0489,-4.0489,-4.0489,-4.0489,-4.0489,-4.0489,-4.0489,-4.0489,-4.0489,-4.0489,-4.0489,-2.6601,-2.7121,-2.7486,-2.6774,-2.7121,-2.7255,-2.5649,0.0,0.0,-2.5303,-2.5303,-2.5063,-2.4245,-2.4812,0.0,0.0,0.0,-3.0063,0.0,0.0,0.0,0.0,0.0,0.0,0.0,-4.0489,-4.0489,-4.0489,-4.1245,-4.2398,-4.3989,-4.497,-4.5509,-4.5586,-4.5586,-4.5568,-4.5495,-4.5513,-4.5476,-4.5419,-4.5476,-4.5513,-4.5513,-4.5568,-4.5568,-4.5513,-4.5568,-4.5513,-4.5419,-4.5457,-4.5035,-4.4402,-4.5269,-4.5137,-4.4356,-4.3615,-4.3284,-4.3013,-4.14,-4.0886,-4.0926,-4.0926,-4.1006,-4.1096,-4.1096,-4.1096,-4.1096,-4.1096,-4.1096,-4.1096,-4.1096,-4.1096,-4.1096,-4.1096,-4.1096,-4.1096,-4.1096,-4.1096,-4.1096,-4.1096,-4.1096,-4.1061,-4.094,-4.0857,-4.0789,-4.0655,-4.0568,-4.0535,-4.0539,-4.0549,-4.054,-4.0544,-4.0524,-4.0519,-4.05,-4.0504,-4.0489,-4.0489,-4.0489,-4.0489,-4.0489,-4.0489,-4.0489,-4.0489,-4.0489,-4.0489,-4.0489,-4.0489,-4.0489,-4.0489,-4.0489,-4.0489,-2.6601,-2.7236,-2.7678,-2.6813,-2.6851,-2.6794,-2.5572,0.0,-2.5303,-2.5303,-2.5303,-2.4889,-2.3562,-2.4005,-2.4524,-2.4332,-2.5717,-2.7698,-3.0256,0.0,0.0,0.0,0.0,0.0,0.0,0.0,-4.0495,-4.0495,-4.1728,-4.2785,-4.3476,-4.4339,-4.5051,-4.5512,-4.555,-4.5514,-4.5458,-4.5438,-4.5438,-4.54,-4.5438,-4.5438,-4.5438,-4.5476,-4.5476,-4.5438,-4.5476,-4.5438,-4.54,-4.5419,-4.5247,-4.4901,-4.471,-4.4459,-4.4145,-4.3374,-4.2763,-4.227,-4.1629,-4.1137,-4.0765,-4.0765,-4.0819,-4.0896,-4.1058,-4.1039,-4.0993,-4.1075,-4.1106,-4.1111,-4.1095,-4.1095,-4.11,-4.11,-4.1111,-4.1091,-4.1106,-4.1111,-4.1091,-4.1106,-4.1033,-4.0993,-4.1026,-4.0791,-4.0642,-4.066,-4.0526,-4.046,-4.0485,-4.0495,-4.0499,-4.0504,-4.0504,-4.0489,-4.0489,-4.0489,-4.0489,-4.0489,-4.0489,-4.0489,-4.0489,-4.0489,-4.0489,-4.0489,-4.0489,-4.0489,-4.0489,-4.0489,-4.0508,-4.0495,-4.0495,-4.0479,-2.6206,-2.6851,-2.7313,-2.6428,-2.6409,-2.637,0.0,-2.5303,-2.5226,-2.4986,-2.4947,-2.4428,-2.2735,-2.334,-2.3821,-2.2928,-2.4639,-2.6871,-2.9159,-3.1679,0.0,0.0,0.0,-3.9223,0.0,-4.0332,-4.0466,-4.0466,-4.1543,-4.2328,-4.2595,-4.3192,-4.4095,-4.5438,-4.5246,-4.5208,-4.5398,-4.5131,-4.5016,-4.4995,-4.5265,-4.5266,-4.5017,-4.5285,-4.54,-4.5381,-4.5151,-4.517,-4.532,-4.4843,-4.4766,-4.4899,-4.4018,-4.3694,-4.3695,-4.2848,-4.2208,-4.1684,-4.1489,-4.1084,-4.0642,-4.0642,-4.0642,-4.0681,-4.0915,-4.0924,-4.0869,-4.0949,-4.1013,-4.1033,-4.1045,-4.1065,-4.1109,-4.1109,-4.1095,-4.11,-4.1089,-4.1095,-4.11,-4.1089,-4.0991,-4.0924,-4.0964,-4.0715,-4.0521,-4.0565,-4.0485,-4.0435,-4.0473,-4.0492,-4.0492,-4.0454,-4.0427,-4.0457,-4.0476,-4.0476,-4.0476,-4.0492,-4.0492,-4.0492,-4.0492,-4.0492,-4.0492,-4.0476,-4.0476,-4.0476,-4.0476,-4.0476,-4.0479,-4.0466,-4.0466,-4.0468,-2.5283,-2.5947,-2.6409,-2.5534,-2.5967,-2.637,0.0,-2.5303,-2.5082,-2.4283,-2.411,-2.359,-2.1831,-2.2928,-2.3821,-2.2928,-2.564,-2.8467,-3.016,-3.2583,0.0,0.0,0.0,-3.8304,-3.9051,-3.9898,-4.0415,-4.0415,-4.0344,-4.0743,-4.1654,-4.1662,-4.2794,-4.5323,-4.4633,-4.4595,-4.5379,-4.4537,-4.4076,-4.4036,-4.4957,-4.4939,-4.4135,-4.5017,-4.54,-4.5361,-4.4557,-4.4633,-4.5163,-4.3503,-4.3292,-4.394,-4.3138,-4.2813,-4.2717,-4.1839,-4.1495,-4.138,-4.0597,-4.0398,-4.0504,-4.0504,-4.0504,-4.0534,-4.0655,-4.0706,-4.0694,-4.0706,-4.0807,-4.0907,-4.0907,-4.0996,-4.111,-4.111,-4.111,-4.111,-4.111,-4.111,-4.111,-4.111,-4.0988,-4.0859,-4.0718,-4.0582,-4.045,-4.0323,-4.0362,-4.0398,-4.0398,-4.0473,-4.0454,-4.0321,-4.0302,-4.0321,-4.0415,-4.0415,-4.0432,-4.0502,-4.0502,-4.0502,-4.0502,-4.0502,-4.0466,-4.0415,-4.0415,-4.0415,-4.0415,-4.0415,-4.0415,-4.0415,-4.0415,-4.0432,-2.6147,-2.6721,-2.7117,-2.6369,-2.6327,-2.6121,-2.4784,-2.4485,-2.4235,-2.3398,-2.3206,-2.2851,-2.1716,-2.2447,-2.3505,-2.437,-2.5806,-2.7872,0.0,0.0,0.0,0.0,0.0,-3.9723,0.0,0.0,-4.0327,-4.0325,-4.0861,-4.132,-4.1607,-4.2125,-4.2813,-4.3655,-4.3388,-4.3369,-4.3616,-4.3349,-4.3196,-4.3176,-4.3483,-4.3483,-4.3215,-4.3502,-4.3617,-4.3597,-4.3349,-4.3388,-4.3539,-4.3024,-4.2947,-4.31,-4.224,-4.1915,-4.18,-4.0979,-4.0692,-4.0635,-4.0387,-4.0328,-4.0363,-4.0363,-4.0363,-4.0381,-4.0413,-4.0492,-4.0574,-4.0668,-4.0807,-4.0907,-4.0907,-4.0996,-4.111,-4.111,-4.103,-4.0988,-4.1078,-4.0963,-4.0849,-4.0963,-4.0776,-4.0642,-4.0694,-4.0519,-4.0379,-4.0425,-4.0379,-4.0328,-4.0328,-4.0347,-4.0347,-4.029,-4.029,-4.0308,-4.0321,-4.036,-4.0415,-4.0432,-4.0432,-4.0432,-4.0432,-4.0432,-4.0415,-4.0415,-4.0398,-4.0398,-4.0398,-4.0398,-4.0398,-4.0398,-4.0362,-4.0396,0.0,-2.6305,-2.6529,-2.6087,-2.5929,-2.5662,-2.4704,-2.4524,-2.4312,-2.3456,-2.3024,-2.2524,-2.1658,-2.2216,-2.3139,-2.4197,-2.5466,-2.7478,0.0,0.0,0.0,0.0,0.0,0.0,0.0,-4.0119,-4.0291,-4.029,-4.0806,-4.1112,-4.1111,-4.159,-4.1876,-4.1931,-4.2163,-4.247,-4.2794,-4.2469,-4.2316,-4.2316,-4.2641,-4.2622,-4.2316,-4.2641,-4.2794,-4.2775,-4.245,-4.2507,0.0,-4.2125,-4.2049,-4.2221,-4.138,-4.1055,-4.0998,-4.0482,-4.031,-4.031,-4.031,-4.031,-4.031,-4.031,-4.031,-4.031,-4.031,-4.0363,-4.0444,-4.0593,-4.0718,-4.0828,-4.0828,-4.0926,-4.1003,-4.0971,-4.0898,-4.0849,-4.0926,-4.0828,-4.0718,-4.0818,-4.0642,-4.0534,-4.0602,-4.0427,-4.0328,-4.0413,-4.0345,-4.031,-4.031,-4.031,-4.031,-4.031,-4.031,-4.031,-4.0307,-4.0326,-4.0363,-4.0362,-4.0362,-4.0362,-4.0362,-4.0362,-4.0362,-4.0363,-4.0363,-4.0363,-4.0362,-4.0398,-4.0398,-4.0398,-4.0379,-4.0413,0.0,0.0,0.0,0.0,-2.4994,-2.5061,-2.5015,-2.5094,0.0,-2.4149,-2.3303,-2.2496,-2.1812,-2.2284,-2.2861,-2.3092,-2.5064,0.0,0.0,0.0,0.0,0.0,-3.8051,0.0,-3.9179,-3.9851,-4.031,-4.031,-4.031,-4.031,-4.0307,-4.0291,-4.031,-4.0307,-4.1017,-4.18,-4.2603,-4.182,-4.1399,-4.1418,-4.224,-4.2202,-4.1437,-4.2259,-4.2622,-4.2584,-4.1762,-4.1877,-4.2507,-4.0941,-4.075,-4.1342,-4.0597,-4.031,-4.031,-4.031,-4.031,-4.031,-4.031,-4.031,-4.031,-4.031,-4.031,-4.031,-4.031,-4.031,-4.0328,-4.0444,-4.0574,-4.0681,-4.0681,-4.0796,-4.0849,-4.073,-4.0694,-4.0681,-4.0694,-4.0681,-4.0668,-4.0681,-4.0593,-4.0492,-4.0492,-4.0379,-4.031,-4.031,-4.031,-4.031,-4.031,-4.031,-4.031,-4.031,-4.031,-4.031,-4.031,-4.031,-4.031,-4.0307,-4.0307,-4.0307,-4.0307,-4.0307,-4.029,-4.031,-4.031,-4.0291,-4.0307,-4.0362,-4.0415,-4.0415,-4.0466,-4.0502,-2.2428,0.0,-2.4044,-2.4737,-2.4847,-2.4653,0.0,-2.3967,-2.3788,0.0,0.0,0.0,0.0,-2.3036,-2.3492,-2.6067,-2.7281,-2.8634,0.0,0.0,0.0,-3.7192,-3.8414,-3.9332,-3.9966,-4.0196,-4.031,-4.031,-4.031,-4.031,-4.031,-4.0291,-4.031,-4.031,-4.0482,-4.0692,-4.0903,-4.0692,-4.0578,-4.0578,-4.0788,-4.0788,-4.0597,-4.0788,-4.0903,-4.0883,-4.0673,-4.0711,-4.0864,-4.0463,-4.0425,-4.0559,-4.0368,-4.031,-4.031,-4.031,-4.031,-4.031,-4.031,-4.031,-4.031,-4.031,-4.031,-4.031,-4.031,-4.031,-4.031,-4.0346,-4.0444,-4.0549,-4.0549,-4.0642,-4.073,-4.0706,-4.0615,-4.0579,-4.0668,-4.0534,-4.043,-4.0519,-4.0427,-4.0364,-4.0364,-4.031,-4.031,-4.031,-4.031,-4.031,-4.031,-4.031,-4.031,-4.031,-4.031,-4.031,-4.031,-4.031,-4.031,-4.031,-4.031,-4.031,-4.031,-4.031,-4.0291,-4.031,-4.0309,-4.0289,-4.0307,-4.0362,-4.0432,-4.0485,-4.0502,-4.0499,-2.1247,-2.2451,-2.3596,-2.4009,-2.4407,-2.4497,-2.3738,0.0,0.0,0.0,0.0,0.0,0.0,0.0,0.0,0.0,-2.7164,0.0,0.0,0.0,0.0,-3.6843,-3.8118,-3.9128,-3.9642,-4.0081,-4.031,-4.031,-4.031,-4.031,-4.031,-4.031,-4.031,-4.031,-4.031,-4.031,-4.031,-4.031,-4.031,-4.031,-4.031,-4.031,-4.031,-4.031,-4.031,-4.031,-4.031,-4.031,-4.031,-4.031,-4.031,-4.031,-4.031,-4.031,-4.031,-4.031,-4.031,-4.031,-4.031,-4.031,-4.031,-4.031,-4.031,-4.031,-4.031,-4.031,-4.031,-4.0381,-4.0444,-4.0489,-4.0489,-4.0564,-4.0588,-4.0519,-4.046,-4.043,-4.0508,-4.0396,-4.031,-4.0396,-4.0345,-4.031,-4.031,-4.031,-4.031,-4.031,-4.031,-4.031,-4.031,-4.031,-4.031,-4.031,-4.031,-4.031,-4.031,-4.031,-4.031,-4.031,-4.031,-4.031,-4.031,-4.031,-4.0291,-4.0309,-4.0289,-4.0325,-4.0396,-4.0432,-4.0466,-4.0495,-4.0495,-4.0492,-2.0585,-2.2006,-2.324,-2.305,-2.3838,-2.447,0.0,0.0,0.0,0.0,0.0,0.0,0.0,0.0,0.0,0.0,0.0,0.0,0.0,0.0,-3.5735,-3.6044,-3.7431,-3.8537,-3.8955,-3.968,-4.0157,-4.0291,-4.031,-4.031,-4.031,-4.031,-4.031,-4.031,-4.031,-4.031,-4.031,-4.031,-4.031,-4.031,-4.031,-4.031,-4.031,-4.031,-4.031,-4.031,-4.031,-4.031,-4.031,-4.031,-4.031,-4.031,-4.031,-4.031,-4.031,-4.031,-4.031,-4.031,-4.031,-4.031,-4.031,-4.031,-4.031,-4.031,-4.031,-4.031,-4.0328,-4.0427,-4.0476,-4.0476,-4.0476,-4.0476,-4.0427,-4.0328,-4.031,-4.031,-4.031,-4.031,-4.031,-4.031,-4.031,-4.031,-4.031,-4.031,-4.031,-4.031,-4.031,-4.031,-4.031,-4.031,-4.031,-4.031,-4.031,-4.031,-4.031,-4.031,-4.031,-4.031,-4.031,-4.031,-4.031,-4.031,-4.0291,-4.0307,-4.0307,-4.0379,-4.0502,-4.0499,-4.0495,-4.0489,-4.0489,-4.0489,-2.0585,-2.1507,-2.2213,-2.2182,-2.3366,-2.431,0.0,0.0,0.0,0.0,0.0,0.0,0.0,0.0,0.0,0.0,0.0,-2.9706,0.0,0.0,-3.4314,-3.5912,0.0,-3.741,-3.8858,-3.9126,-3.9508,-4.0253,-4.031,-4.031,-4.031,-4.031,-4.031,-4.031,-4.031,-4.031,-4.031,-4.031,-4.031,-4.031,-4.031,-4.031,-4.031,-4.031,-4.031,-4.031,-4.031,-4.031,-4.031,-4.031,-4.031,-4.031,-4.031,-4.031,-4.031,-4.031,-4.031,-4.031,-4.031,-4.031,-4.031,-4.031,-4.031,-4.031,-4.031,-4.031,-4.0291,-4.0328,-4.0328,-4.0328,-4.0328,-4.0328,-4.0328,-4.0291,-4.031,-4.031,-4.031,-4.031,-4.031,-4.031,-4.031,-4.031,-4.031,-4.031,-4.031,-4.031,-4.031,-4.031,-4.031,-4.031,-4.031,-4.031,-4.031,-4.031,-4.031,-4.031,-4.031,-4.031,-4.031,-4.031,-4.031,-4.031,-4.0291,-4.0307,-4.0362,-4.0432,-4.0502,-4.0511,-4.0508,-4.0489,-4.0489,-4.0489,-2.0047,-2.0734,-2.1346,-2.1346,-2.294,-2.4276,-2.3388,0.0,0.0,0.0,0.0,0.0,0.0,0.0,0.0,0.0,0.0,-3.1523,-3.2723,-3.3319,-3.4045,0.0,-3.5757,-3.6521,-3.7561,-3.8037,-3.8667,-3.9527,-3.9603,-3.9814,-4.0272,-4.031,-4.031,-4.031,-4.031,-4.031,-4.031,-4.031,-4.031,-4.031,-4.031,-4.031,-4.031,-4.031,-4.031,-4.031,-4.031,-4.031,-4.031,-4.031,-4.031,-4.031,-4.031,-4.031,-4.031,-4.031,-4.031,-4.031,-4.031,-4.031,-4.031,-4.031,-4.031,-4.031,-4.031,-4.031,-4.031,-4.031,-4.031,-4.031,-4.031,-4.031,-4.031,-4.031,-4.031,-4.031,-4.031,-4.031,-4.031,-4.031,-4.031,-4.031,-4.031,-4.031,-4.031,-4.031,-4.031,-4.031,-4.031,-4.031,-4.031,-4.031,-4.031,-4.031,-4.031,-4.031,-4.0291,-4.0309,-4.031,-4.0291,-4.0309,-4.0309,-4.0308,-4.0362,-4.0379,-4.043,-4.0495,-4.0495,-4.0492,-4.0489,-4.0489,-4.0489,-1.9824,-2.0474,-2.1124,-2.1309,0.0,-2.4074,-2.3575,0.0,0.0,0.0,0.0,0.0,0.0,0.0,0.0,-3.0171,-3.1708,-3.2656,-3.2994,-3.3585,-3.4105,-3.4464,-3.5133,-3.5812,-3.6347,-3.7009,-3.7769,-3.8629,-3.8706,-3.9088,-3.9947,-4.0005,-4.01,-4.0291,-4.031,-4.031,-4.031,-4.031,-4.031,-4.031,-4.031,-4.031,-4.031,-4.031,-4.031,-4.031,-4.031,-4.031,-4.031,-4.031,-4.031,-4.031,-4.031,-4.031,-4.031,-4.031,-4.031,-4.031,-4.031,-4.031,-4.031,-4.031,-4.031,-4.031,-4.031,-4.031,-4.031,-4.031,-4.031,-4.031,-4.031,-4.031,-4.031,-4.031,-4.031,-4.031,-4.031,-4.031,-4.031,-4.031,-4.031,-4.031,-4.031,-4.031,-4.031,-4.031,-4.031,-4.031,-4.031,-4.031,-4.031,-4.031,-4.031,-4.031,-4.031,-4.031,-4.0327,-4.0362,-4.0327,-4.0309,-4.0307,-4.0325,-4.0342,-4.0432,-4.0432,-4.0447,-4.0489,-4.0495,-4.0495,-4.0489,-4.0489,-4.0489,-2.0511,-2.1291,-2.2089,-2.285,0.0,0.0,-2.4153,-2.4893,0.0,0.0,0.0,0.0,0.0,0.0,-2.8834,-3.107,-3.1626,-3.2312,-3.3857,-3.4136,-3.425,-3.4486,-3.479,-3.5268,-3.6045,-3.6404,-3.6929,-3.7731,-3.7789,-3.8171,-3.9049,-3.9088,-3.947,-4.0272,-4.031,-4.031,-4.031,-4.031,-4.031,-4.031,-4.031,-4.031,-4.031,-4.031,-4.031,-4.031,-4.031,-4.031,-4.031,-4.031,-4.031,-4.031,-4.031,-4.031,-4.031,-4.031,-4.031,-4.031,-4.031,-4.031,-4.031,-4.031,-4.031,-4.031,-4.031,-4.031,-4.031,-4.031,-4.031,-4.031,-4.031,-4.031,-4.031,-4.031,-4.031,-4.031,-4.031,-4.031,-4.031,-4.031,-4.031,-4.031,-4.031,-4.031,-4.031,-4.031,-4.031,-4.031,-4.031,-4.031,-4.031,-4.031,-4.031,-4.031,-4.0289,-4.0362,-4.0415,-4.0466,-4.0379,-4.0307,-4.0307,-4.0362,-4.0432,-4.0502,-4.0502,-4.0499,-4.0489,-4.0489,-4.0489,-4.0489,-4.0489,-4.0489,-1.9973,-2.0641,-2.1439,-2.2256,0.0,0.0,0.0,0.0,0.0,0.0,-2.674,0.0,0.0,0.0,-3.0259,-3.1496,-3.2262,-3.3082,-3.4226,-3.4394,-3.4483,-3.4733,-3.4851,-3.5078,-3.5491,-3.5618,-3.605,-3.6891,-3.6948,-3.733,-3.8151,-3.819,-3.8343,-3.8667,-3.9221,-3.9489,-3.9489,-4.0043,-4.031,-4.031,-4.031,-4.031,-4.031,-4.031,-4.031,-4.031,-4.031,-4.031,-4.031,-4.031,-4.031,-4.031,-4.031,-4.031,-4.031,-4.031,-4.031,-4.031,-4.031,-4.031,-4.031,-4.031,-4.031,-4.031,-4.031,-4.031,-4.031,-4.031,-4.031,-4.031,-4.031,-4.031,-4.031,-4.031,-4.031,-4.031,-4.031,-4.031,-4.031,-4.031,-4.031,-4.031,-4.031,-4.031,-4.031,-4.031,-4.031,-4.031,-4.031,-4.031,-4.031,-4.031,-4.031,-4.031,-4.0307,-4.0325,-4.0362,-4.0432,-4.0379,-4.0379,-4.0413,-4.0449,-4.0466,-4.0502,-4.0495,-4.0492,-4.0489,-4.0489,-4.0489,-4.0489,-4.0489,-4.0489,-1.9467,-2.0333,-2.1309,0.0,0.0,0.0,0.0,0.0,0.0,0.0,-2.7456,0.0,0.0,0.0,0.0,0.0,-3.2304,-3.3294,-3.4105,-3.4381,-3.4593,-3.487,-3.4908,-3.4945,-3.5089,-3.5157,-3.5458,-3.605,-3.6088,-3.6451,-3.7273,-3.733,-3.7445,-3.7693,-3.8285,-3.8725,-3.9011,-3.9603,-4.0043,-4.031,-4.031,-4.031,-4.031,-4.031,-4.031,-4.031,-4.031,-4.031,-4.031,-4.031,-4.031,-4.031,-4.031,-4.031,-4.031,-4.031,-4.031,-4.031,-4.031,-4.031,-4.031,-4.031,-4.031,-4.031,-4.031,-4.031,-4.031,-4.031,-4.031,-4.031,-4.031,-4.031,-4.031,-4.031,-4.031,-4.031,-4.031,-4.031,-4.031,-4.031,-4.031,-4.031,-4.031,-4.031,-4.031,-4.031,-4.031,-4.031,-4.031,-4.031,-4.031,-4.031,-4.0291,-4.0309,-4.0307,-4.0325,-4.0362,-4.0398,-4.0398,-4.0432,-4.0502,-4.0499,-4.0499,-4.0499,-4.0492,-4.0489,-4.0489,-4.0489,-4.0489,-4.0489,-4.0489,-4.0489,-1.9184,-2.068,0.0,0.0,0.0,0.0,0.0,0.0,0.0,-2.8758,0.0,-2.9178,-2.9112,-2.9434,0.0,-3.0411,-3.158,-3.2692,-3.3505,-3.4146,-3.4612,-3.487,-3.4889,-3.4889,-3.4889,-3.5089,-3.5209,-3.5209,-3.5209,-3.5592,-3.6451,-3.6489,-3.6852,-3.7655,-3.7674,-3.8094,-3.8973,-3.8973,-3.9431,-4.0291,-4.0291,-4.0291,-4.031,-4.031,-4.031,-4.031,-4.031,-4.031,-4.031,-4.031,-4.031,-4.031,-4.031,-4.031,-4.031,-4.031,-4.031,-4.031,-4.031,-4.031,-4.031,-4.031,-4.031,-4.031,-4.031,-4.031,-4.031,-4.031,-4.031,-4.031,-4.031,-4.031,-4.031,-4.031,-4.031,-4.031,-4.031,-4.031,-4.031,-4.031,-4.031,-4.031,-4.031,-4.031,-4.031,-4.031,-4.031,-4.031,-4.031,-4.031,-4.031,-4.031,-4.029,-4.0307,-4.0307,-4.0362,-4.0398,-4.0398,-4.0398,-4.0432,-4.0502,-4.0511,-4.0489,-4.0489,-4.0489,-4.0489,-4.0489,-4.0489,-4.0489,-4.0489,-4.0489,-4.0489,-1.9916,0.0,0.0,0.0,0.0,0.0,0.0,0.0,0.0,0.0,-2.9062,-2.9044,-2.904,-2.9249,0.0,-3.1191,-3.1976,-3.2899,-3.432,-3.4793,-3.5035,-3.5107,-3.5107,-3.5107,-3.5107,-3.5157,-3.5209,-3.5209,-3.5209,-3.5305,-3.5572,-3.5592,-3.5687,-3.5935,-3.6547,-3.6986,-3.7254,-3.7808,-3.8228,-3.8476,-3.8476,-3.9107,-4.031,-4.031,-4.031,-4.031,-4.031,-4.031,-4.031,-4.031,-4.031,-4.031,-4.031,-4.031,-4.031,-4.031,-4.031,-4.031,-4.031,-4.031,-4.031,-4.031,-4.031,-4.031,-4.031,-4.031,-4.031,-4.031,-4.031,-4.031,-4.031,-4.031,-4.031,-4.031,-4.031,-4.031,-4.031,-4.031,-4.031,-4.031,-4.031,-4.031,-4.031,-4.031,-4.031,-4.031,-4.031,-4.031,-4.031,-4.031,-4.031,-4.031,-4.0291,-4.0309,-4.0307,-4.0325,-4.0362,-4.0398,-4.0398,-4.0432,-4.0502,-4.0499,-4.0495,-4.0489,-4.0489,-4.0489,-4.0489,-4.0489,-4.0489,-4.0489,-4.0489,-4.0489,-2.0153,0.0,0.0,0.0,0.0,0.0,0.0,0.0,0.0,0.0,0.0,-2.8994,-2.8994,-2.9163,0.0,-3.108,-3.184,-3.2769,-3.4188,-3.4791,-3.5107,-3.5193,-3.5209,-3.5209,-3.5209,-3.5209,-3.5209,-3.5209,-3.5209,-3.5209,-3.5209,-3.5209,-3.5209,-3.5209,-3.5706,-3.6165,-3.6509,-3.6986,-3.7387,-3.7693,-3.7693,-3.8247,-3.9279,-3.9623,-3.9967,-4.031,-4.031,-4.031,-4.031,-4.031,-4.031,-4.031,-4.031,-4.031,-4.031,-4.031,-4.031,-4.031,-4.031,-4.031,-4.031,-4.031,-4.031,-4.031,-4.031,-4.031,-4.031,-4.031,-4.031,-4.031,-4.031,-4.031,-4.031,-4.031,-4.031,-4.031,-4.031,-4.031,-4.031,-4.031,-4.031,-4.031,-4.031,-4.031,-4.031,-4.031,-4.031,-4.031,-4.031,-4.031,-4.031,-4.031,-4.031,-4.0291,-4.029,-4.029,-4.0327,-4.0364,-4.0345,-4.0381,-4.0432,-4.0449,-4.0466,-4.046,-4.046,-4.046,-4.046,-4.046,-4.0476,-4.0511,-4.0511,-4.0492,-1.9983,0.0,0.0,0.0,0.0,0.0,0.0,0.0,0.0,-2.8994,0.0,-2.8994,-2.8994,-2.916,-2.953,-3.0346,-3.1358,-3.2408,-3.3431,-3.4339,-3.4963,-3.5193,-3.5209,-3.5209,-3.5209,-3.5209,-3.5209,-3.5209,-3.5209,-3.5209,-3.5209,-3.5209,-3.5209,-3.5209,-3.5209,-3.5592,-3.6375,-3.6394,-3.6757,-3.7464,-3.7464,-3.7502,-3.7617,-3.8574,-3.949,-4.031,-4.031,-4.031,-4.031,-4.031,-4.031,-4.031,-4.031,-4.031,-4.031,-4.031,-4.031,-4.031,-4.031,-4.031,-4.031,-4.031,-4.031,-4.031,-4.031,-4.031,-4.031,-4.031,-4.031,-4.031,-4.031,-4.031,-4.031,-4.031,-4.031,-4.031,-4.031,-4.031,-4.031,-4.031,-4.031,-4.031,-4.031,-4.031,-4.031,-4.031,-4.031,-4.031,-4.031,-4.031,-4.031,-4.031,-4.031,-4.031,-4.031,-4.031,-4.031,-4.031,-4.031,-4.031,-4.0307,-4.0362,-4.0379,-4.0398,-4.0415,-4.0415,-4.0415,-4.0415,-4.0449,-4.0502,-4.0502,-4.0495,0.0,-2.1165,0.0,0.0,0.0,0.0,0.0,0.0,-2.8994,-2.8994,-2.8994,-2.8994,-2.8994,-2.904,-2.9324,-3.0134,-3.1158,-3.2219,-3.3216,-3.4244,-3.4963,-3.5193,-3.5209,-3.5209,-3.5209,-3.5209,-3.5209,-3.5209,-3.5209,-3.5209,-3.5209,-3.5209,-3.5209,-3.5209,-3.5209,-3.5286,-3.5477,-3.5477,-3.5572,-3.5744,-3.5744,-3.6107,-3.6814,-3.8306,-3.947,-4.031,-4.031,-4.031,-4.031,-4.031,-4.031,-4.031,-4.031,-4.031,-4.031,-4.031,-4.031,-4.031,-4.031,-4.031,-4.031,-4.031,-4.031,-4.031,-4.031,-4.031,-4.031,-4.031,-4.031,-4.031,-4.031,-4.031,-4.031,-4.031,-4.031,-4.031,-4.031,-4.031,-4.031,-4.031,-4.031,-4.031,-4.031,-4.031,-4.031,-4.031,-4.031,-4.031,-4.031,-4.031,-4.031,-4.031,-4.031,-4.031,-4.031,-4.031,-4.031,-4.031,-4.031,-4.031,-4.0307,-4.0307,-4.0362,-4.0398,-4.0449,-4.0485,-4.0485,-4.0479,-4.0492,-4.0508,-4.0508,-4.0508,0.0,0.0,0.0,0.0,0.0,0.0,0.0,0.0,-2.8952,-2.8994,-2.9089,-2.9138,-2.9138,-2.9206,-2.9511,-3.0349,-3.0937,-3.1645,-3.2731,-3.3677,-3.4338,-3.4549,-3.4945,-3.5193,-3.5196,-3.5193,-3.5209,-3.5209,-3.5209,-3.5209,-3.5209,-3.5209,-3.5209,-3.5209,-3.5209,-3.5209,-3.5209,-3.5209,-3.5209,-3.5209,-3.5209,-3.5668,-3.6566,-3.8247,-3.926,-3.9699,-4.0119,-4.031,-4.031,-4.031,-4.031,-4.031,-4.031,-4.031,-4.031,-4.031,-4.031,-4.031,-4.031,-4.031,-4.031,-4.031,-4.031,-4.031,-4.031,-4.031,-4.031,-4.031,-4.031,-4.031,-4.031,-4.031,-4.031,-4.031,-4.031,-4.031,-4.031,-4.031,-4.031,-4.031,-4.031,-4.031,-4.031,-4.031,-4.031,-4.031,-4.031,-4.031,-4.031,-4.031,-4.031,-4.031,-4.031,-4.031,-4.031,-4.031,-4.0291,-4.0309,-4.0309,-4.0308,-4.0362,-4.0362,-4.0362,-4.0398,-4.0432,-4.0449,-4.0449,-4.0447,-4.0479,-4.0495,-4.0495,-4.0492,0.0,0.0,0.0,0.0,0.0,0.0,0.0,0.0,-2.8929,-2.8975,-2.9141,-2.9293,-2.9293,-2.9416,-2.9739,-3.0452,-3.0637,-3.1052,-3.2032,-3.2881,-3.3447,-3.3639,-3.4318,-3.4814,-3.4952,-3.4986,-3.504,-3.519,-3.5209,-3.5209,-3.5209,-3.5209,-3.5209,-3.5209,-3.5209,-3.5209,-3.5209,-3.5176,-3.5176,-3.5209,-3.5209,-3.5592,-3.6337,-3.7865,-3.8648,-3.882,-3.9546,-3.9852,-3.9852,-3.9852,-3.9948,-4.0081,-4.0081,-4.0158,-4.031,-4.031,-4.031,-4.031,-4.031,-4.031,-4.031,-4.031,-4.031,-4.031,-4.031,-4.031,-4.031,-4.031,-4.031,-4.031,-4.031,-4.031,-4.031,-4.031,-4.031,-4.031,-4.031,-4.031,-4.031,-4.031,-4.031,-4.031,-4.031,-4.031,-4.031,-4.031,-4.031,-4.031,-4.031,-4.031,-4.031,-4.031,-4.031,-4.031,-4.031,-4.0291,-4.0291,-4.0307,-4.0307,-4.0362,-4.0415,-4.0415,-4.0432,-4.0413,-4.0432,-4.0415,-4.0415,-4.0432,-4.0449,-4.0499,-4.0499,-4.0495,0.0,0.0,0.0,0.0,0.0,0.0,0.0,0.0,-2.8975,0.0,-2.9075,-2.923,-2.9293,-2.9416,-2.9551,-2.9645,-3.0263,-3.0827,-3.122,-3.1956,-3.2558,-3.2743,-3.2877,-3.3242,-3.3999,-3.4056,-3.4394,-3.5152,-3.5209,-3.5209,-3.5209,-3.5209,-3.5209,-3.5209,-3.5209,-3.5209,-3.5209,-3.5037,-3.5037,-3.5209,-3.5209,-3.5267,-3.542,-3.6394,-3.7215,-3.7884,-3.7999,-3.8038,-3.8058,-3.8042,-3.848,-3.9166,-3.9166,-3.9643,-4.031,-4.031,-4.031,-4.031,-4.031,-4.031,-4.031,-4.031,-4.031,-4.031,-4.031,-4.031,-4.031,-4.031,-4.031,-4.031,-4.031,-4.031,-4.031,-4.031,-4.031,-4.031,-4.031,-4.031,-4.031,-4.031,-4.031,-4.031,-4.031,-4.031,-4.031,-4.031,-4.031,-4.031,-4.031,-4.031,-4.031,-4.031,-4.031,-4.031,-4.031,-4.0309,-4.0307,-4.0307,-4.0342,-4.0415,-4.0466,-4.0485,-4.0499,-4.0492,-4.0499,-4.0485,-4.0485,-4.0495,-4.0492,-4.0508,-4.0508,-4.0508,0.0,0.0,0.0,0.0,0.0,0.0,0.0,0.0,-2.8205,-2.8246,-2.8695,-2.9104,-2.9169,-2.9436,-2.9662,-2.9625,-2.9999,-3.0351,-3.0506,-3.1225,-3.1773,-3.186,-3.2295,-3.2733,-3.3075,-3.3584,-3.4072,-3.4451,-3.4926,-3.5209,-3.5209,-3.5209,-3.5209,-3.5209,-3.5209,-3.5209,-3.5209,-3.5001,-3.4926,-3.5037,-3.5037,-3.5089,-3.5209,-3.5611,-3.6241,-3.7063,-3.7502,-3.7695,-3.7696,-3.7697,-3.7927,-3.827,-3.827,-3.8499,-3.8899,-3.9376,-3.9566,-3.9643,-4.012,-4.031,-4.031,-4.031,-4.031,-4.031,-4.031,-4.031,-4.031,-4.031,-4.031,-4.031,-4.031,-4.031,-4.031,-4.031,-4.031,-4.031,-4.031,-4.031,-4.031,-4.031,-4.031,-4.031,-4.031,-4.031,-4.031,-4.031,-4.031,-4.031,-4.031,-4.031,-4.031,-4.031,-4.031,-4.0291,-4.0309,-4.0289,-4.0325,-4.0396,-4.0432,-4.0466,-4.0495,-4.0511,-4.0492,-4.0489,-4.0492,-4.0511,-4.0511,-4.0508,-4.0489,-4.0489,-4.0489,-4.0489,0.0,0.0,0.0,0.0,0.0,0.0,0.0,0.0,-2.7296,0.0,-2.7934,-2.843,-2.8433,-2.9156,-2.977,-2.9767,-2.9905,-3.0022,-3.0072,-3.0601,-3.0985,-3.0956,-3.154,-3.1996,-3.2172,-3.2828,-3.3334,-3.3541,-3.4165,-3.4639,-3.4885,-3.4904,-3.4999,-3.519,-3.5209,-3.5209,-3.5209,-3.5001,-3.4831,-3.4713,-3.4773,-3.4908,-3.5124,-3.5124,-3.5486,-3.6134,-3.6778,-3.7045,-3.7047,-3.7063,-3.72,-3.7412,-3.7412,-3.7526,-3.7792,-3.8421,-3.8822,-3.909,-3.9738,-4.0101,-4.031,-4.031,-4.031,-4.031,-4.031,-4.031,-4.031,-4.031,-4.031,-4.031,-4.031,-4.031,-4.031,-4.031,-4.031,-4.031,-4.031,-4.031,-4.031,-4.031,-4.031,-4.031,-4.031,-4.031,-4.031,-4.031,-4.031,-4.031,-4.031,-4.031,-4.031,-4.031,-4.031,-4.031,-4.0308,-4.0326,-4.0379,-4.0485,-4.0482,-4.0495,-4.0489,-4.0489,-4.0489,-4.0489,-4.0489,-4.0489,-4.0489,-4.0489,-4.0489,-4.0489,-4.0489,-4.0489,0.0,0.0,0.0,0.0,0.0,0.0,0.0,0.0,-2.6457,-2.6395,-2.6609,-2.6774,-2.667,-2.8333,-2.977,-2.9956,-2.9988,-3.0007,-2.9988,-3.011,-3.0145,-3.0083,-3.0102,-3.0462,-3.1279,-3.1393,-3.1784,-3.2607,-3.2702,-3.3134,-3.4006,-3.4063,-3.4407,-3.519,-3.5209,-3.5209,-3.5209,-3.5001,-3.4691,-3.4245,-3.4439,-3.4653,-3.4927,-3.4927,-3.4946,-3.4984,-3.5221,-3.5343,-3.5343,-3.5343,-3.5818,-3.6559,-3.6559,-3.7034,-3.7702,-3.774,-3.8301,-3.9013,-3.9051,-3.9604,-4.031,-4.031,-4.031,-4.031,-4.031,-4.031,-4.031,-4.031,-4.031,-4.031,-4.031,-4.031,-4.031,-4.031,-4.031,-4.031,-4.031,-4.031,-4.031,-4.031,-4.031,-4.031,-4.031,-4.031,-4.031,-4.031,-4.031,-4.031,-4.031,-4.031,-4.031,-4.031,-4.031,-4.031,-4.031,-4.0345,-4.0398,-4.0396,-4.046,-4.0489,-4.0489,-4.0489,-4.0489,-4.0489,-4.0489,-4.0489,-4.0489,-4.0489,-4.0489,-4.0489,-4.0489,-4.0489,0.0,0.0,0.0,0.0,0.0,0.0,-2.3407,-2.4503,-2.5362,-2.5492,-2.5998,-2.6435,-2.6648,-2.7923,-2.8945,-2.898,-2.9515,-2.994,-2.994,-2.9956,-2.9956,-2.994,-2.994,-3.0054,-3.0376,-3.0959,-3.1428,-3.1746,-3.227,-3.2756,-3.3077,-3.3131,-3.3299,-3.3605,-3.414,-3.452,-3.4735,-3.4694,-3.4483,-3.4197,-3.4274,-3.4416,-3.4653,-3.4653,-3.4653,-3.4653,-3.4734,-3.485,-3.4983,-3.483,-3.504,-3.5458,-3.5458,-3.5551,-3.5723,-3.6425,-3.6791,-3.7026,-3.7733,-3.8536,-3.9261,-3.9221,-3.9699,-4.0253,-4.0098,-4.0157,-4.031,-4.031,-4.031,-4.031,-4.031,-4.031,-4.031,-4.031,-4.031,-4.031,-4.031,-4.031,-4.031,-4.031,-4.031,-4.031,-4.031,-4.031,-4.031,-4.031,-4.031,-4.031,-4.031,-4.031,-4.031,-4.031,-4.031,-4.0291,-4.029,-4.0362,-4.0415,-4.0449,-4.0495,-4.0489,-4.0489,-4.0489,-4.0489,-4.0489,-4.0489,-4.0489,-4.0489,-4.0489,-4.0489,-4.0489,-4.0489,-4.0489,-1.7183,0.0,0.0,0.0,0.0,-2.1046,-2.2426,0.0,-2.4106,-2.4482,-2.4986,-2.5463,-2.5835,-2.684,-2.7819,-2.8401,-2.9066,-2.9585,-2.9851,-2.9924,-2.994,-2.9888,-2.9924,-2.9905,-2.9888,-3.0452,-3.0845,-3.0861,-3.1401,-3.1867,-3.2168,-3.2237,-3.2374,-3.2591,-3.3497,-3.403,-3.4095,-3.4376,-3.4416,-3.4197,-3.4124,-3.4179,-3.4416,-3.4416,-3.4416,-3.4416,-3.4401,-3.4538,-3.4754,-3.4573,-3.4601,-3.4773,-3.4773,-3.4661,-3.459,-3.5306,-3.5645,-3.5911,-3.661,-3.743,-3.8173,-3.8423,-3.906,-3.9756,-3.9754,-4.0017,-4.0272,-4.0196,-4.0234,-4.031,-4.031,-4.031,-4.031,-4.031,-4.031,-4.031,-4.031,-4.031,-4.031,-4.031,-4.031,-4.031,-4.031,-4.031,-4.031,-4.031,-4.031,-4.031,-4.031,-4.031,-4.031,-4.031,-4.031,-4.0291,-4.029,-4.0344,-4.0415,-4.0449,-4.0479,-4.0492,-4.0489,-4.0489,-4.0489,-4.0489,-4.0489,-4.0489,-4.0489,-4.0489,-4.0489,-4.0489,-4.0489,-4.0489,0.0,0.0,0.0,0.0,0.0,0.0,-2.1692,0.0,-2.2729,-2.3353,-2.3588,-2.3764,-2.404,-2.5039,-2.6465,-2.8342,-2.8676,-2.8979,-2.9775,-2.9956,-2.9972,-2.9924,-2.9956,-2.9972,-2.9924,-2.9888,-2.994,-2.9988,-3.0007,-3.0415,-3.131,-3.1348,-3.1664,-3.2329,-3.3391,-3.3728,-3.3287,-3.4095,-3.4394,-3.4197,-3.3921,-3.3947,-3.4197,-3.4197,-3.4197,-3.4197,-3.4195,-3.4292,-3.447,-3.4489,-3.4482,-3.4494,-3.4494,-3.4487,-3.4485,-3.45,-3.5008,-3.5734,-3.5752,-3.6279,-3.7084,-3.7957,-3.8441,-3.8791,-3.9293,-3.9829,-4.0234,-3.9956,-4.0077,-4.0291,-4.031,-4.031,-4.031,-4.031,-4.031,-4.031,-4.031,-4.031,-4.031,-4.031,-4.031,-4.031,-4.031,-4.031,-4.031,-4.031,-4.031,-4.031,-4.031,-4.031,-4.031,-4.031,-4.031,-4.031,-4.031,-4.029,-4.0325,-4.0398,-4.0449,-4.0499,-4.0489,-4.0489,-4.0489,-4.0489,-4.0489,-4.0489,-4.0489,-4.0489,-4.0489,-4.0489,-4.0489,-4.0489,-1.5935,0.0,0.0,0.0,0.0,0.0,0.0,0.0,-2.1824,-2.2667,-2.3224,-2.3606,-2.3783,-2.4245,-2.5208,-2.7027,-2.8096,-2.8979,-2.9775,-2.9924,-2.9924,-2.9888,-2.9924,-2.9924,-2.9888,-2.9888,-2.9924,-2.994,-2.9972,-3.0117,-3.0361,-3.0295,-3.0641,-3.1495,-3.224,-3.2785,-3.3086,-3.3888,-3.4154,-3.3895,-3.386,-3.3842,-3.3895,-3.3895,-3.3895,-3.3921,-3.3902,-3.3935,-3.3986,-3.4006,-3.4111,-3.4283,-3.4283,-3.4164,-3.403,-3.4223,-3.4301,-3.4402,-3.4567,-3.5169,-3.5876,-3.6123,-3.7205,-3.8396,-3.8369,-3.8983,-3.9693,-3.9647,-3.9785,-4.0057,-4.0253,-4.031,-4.031,-4.031,-4.031,-4.031,-4.031,-4.031,-4.031,-4.031,-4.031,-4.031,-4.031,-4.031,-4.031,-4.031,-4.031,-4.031,-4.031,-4.031,-4.031,-4.031,-4.031,-4.031,-4.031,-4.0345,-4.0379,-4.0398,-4.0463,-4.0508,-4.0489,-4.0489,-4.0489,-4.0489,-4.0489,-4.0489,-4.0489,-4.0489,-4.0489,-4.0489,-4.0489,-4.0489,-1.6396,0.0,0.0,0.0,0.0,0.0,-2.0323,-2.0969,-2.1502,-2.2434,-2.3,-2.3376,-2.3588,-2.3883,-2.4669,-2.6428,-2.7382,-2.8344,-2.96,-2.9855,-2.9888,-2.9888,-2.9888,-2.9888,-2.9888,-2.9888,-2.9888,-2.9888,-2.994,-2.994,-2.9891,-2.9836,-2.9976,-3.0359,-3.1166,-3.1722,-3.1991,-3.312,-3.3623,-3.3474,-3.3695,-3.3807,-3.3807,-3.3807,-3.3807,-3.3807,-3.3807,-3.3807,-3.3807,-3.3807,-3.388,-3.4036,-3.4036,-3.3944,-3.3825,-3.3981,-3.3944,-3.3825,-3.3981,-3.4338,-3.4787,-3.5113,-3.6092,-3.7108,-3.7184,-3.7813,-3.8445,-3.8342,-3.8587,-3.8912,-3.9147,-3.9489,-3.9775,-3.9776,-4.0043,-4.031,-4.031,-4.031,-4.031,-4.031,-4.031,-4.031,-4.031,-4.031,-4.031,-4.031,-4.031,-4.031,-4.031,-4.031,-4.031,-4.031,-4.031,-4.0291,-4.0291,-4.0326,-4.0379,-4.0432,-4.0479,-4.0492,-4.0489,-4.0489,-4.0489,-4.0489,-4.0489,-4.0489,-4.0489,-4.0489,-4.0489,-4.0489,-4.0489,-4.0489,-1.7021,-1.7526,0.0,-1.8463,-1.8834,0.0,-2.0735,-2.1084,-2.1379,-2.2309,-2.2738,-2.3025,-2.3307,-2.3653,-2.4454,-2.6088,-2.6571,-2.7399,-2.9308,-2.9734,-2.9872,-2.9872,-2.9888,-2.9888,-2.9888,-2.9888,-2.9888,-2.9888,-2.9872,-2.9822,-2.9717,-2.9715,-2.9551,-2.9209,-3.0256,-3.0745,-3.0556,-3.2057,-3.2836,-3.2813,-3.3405,-3.3678,-3.3678,-3.3752,-3.3807,-3.3807,-3.3807,-3.3807,-3.3807,-3.3807,-3.3807,-3.3807,-3.3807,-3.3807,-3.3807,-3.3807,-3.3807,-3.3807,-3.3807,-3.3807,-3.3925,-3.4649,-3.5081,-3.545,-3.5981,-3.6496,-3.6906,-3.6759,-3.7063,-3.7432,-3.766,-3.8267,-3.8859,-3.8861,-3.9509,-4.0157,-4.0157,-4.0234,-4.031,-4.031,-4.031,-4.031,-4.031,-4.031,-4.031,-4.031,-4.031,-4.031,-4.031,-4.031,-4.031,-4.031,-4.031,-4.031,-4.0307,-4.0307,-4.0379,-4.0502,-4.0502,-4.0495,-4.0489,-4.0489,-4.0489,-4.0489,-4.0489,-4.0489,-4.0489,-4.0489,-4.0489,-4.0489,-4.0489,-4.0489,-1.6438,-1.715,-1.7669,-1.7398,-1.7581,0.0,-1.9071,-1.9717,-2.0304,-2.1038,-2.1579,-2.2085,-2.2395,-2.2695,-2.3295,-2.4548,-2.5623,-2.7031,-2.9072,-2.9532,-2.9662,-2.9662,-2.9805,-2.9888,-2.9888,-2.9888,-2.9888,-2.9888,-2.9751,-2.9662,-2.9699,-2.9416,-2.9233,-2.9209,-2.9935,-3.0309,-3.0262,-3.1219,-3.1722,-3.174,-3.2474,-3.2834,-3.2871,-3.3495,-3.3807,-3.3807,-3.3807,-3.3807,-3.3807,-3.3807,-3.3807,-3.3807,-3.3807,-3.3807,-3.3807,-3.3807,-3.3807,-3.3807,-3.3807,-3.3807,-3.3825,-3.3981,-3.4512,-3.51,-3.522,-3.5809,-3.6525,-3.6839,-3.7115,-3.7374,-3.764,-3.7827,-3.7941,-3.796,-3.8629,-3.926,-3.926,-3.9814,-4.031,-4.031,-4.031,-4.031,-4.031,-4.031,-4.031,-4.031,-4.031,-4.031,-4.031,-4.031,-4.031,-4.031,-4.031,-4.031,-4.0307,-4.0362,-4.0396,-4.0502,-4.0495,-4.0508,-4.0489,-4.0489,-4.0489,-4.0489,-4.0489,-4.0489,-4.0489,-4.0489,-4.0489,-4.0489,-4.0489,-4.0489,-1.6727,-1.7353,-1.7885,-1.7811,-1.8129,0.0,0.0,-1.9439,-1.9782,-2.0637,-2.0998,-2.1354,-2.1864,-2.2324,-2.2929,-2.3885,-2.4793,-2.5858,-2.7175,-2.8572,-2.9455,-2.9455,-2.9551,-2.9608,-2.9608,-2.9608,-2.9608,-2.9608,-2.9513,-2.9415,-2.9355,-2.9169,-2.9038,-2.9007,-2.936,-2.958,-2.9604,-3.0393,-3.0797,-3.0797,-3.1623,-3.221,-3.2614,-3.3036,-3.3421,-3.3807,-3.3807,-3.3807,-3.3807,-3.3807,-3.3807,-3.3807,-3.3807,-3.3807,-3.3807,-3.3807,-3.3807,-3.3807,-3.3807,-3.3807,-3.3807,-3.3807,-3.4072,-3.4402,-3.4402,-3.4706,-3.5118,-3.5496,-3.5679,-3.5838,-3.6213,-3.6611,-3.6956,-3.7083,-3.775,-3.8476,-3.8916,-3.9336,-3.9775,-4.0234,-4.031,-4.031,-4.031,-4.031,-4.031,-4.031,-4.031,-4.031,-4.031,-4.031,-4.031,-4.031,-4.031,-4.0291,-4.0286,-4.0342,-4.0396,-4.0502,-4.0463,-4.0444,-4.0444,-4.0444,-4.0479,-4.0495,-4.0508,-4.0489,-4.0489,-4.0489,-4.0489,-4.0489,-4.0489,-4.0489,-1.6951,-1.7394,-1.7827,-1.8212,-1.8655,-1.9147,0.0,0.0,0.0,-2.0342,-2.0573,-2.077,0.0,-2.1915,-2.2483,-2.3209,-2.392,-2.4512,-2.4944,-2.7067,-2.8639,-2.8889,-2.901,-2.9147,-2.9275,-2.9145,-2.9126,-2.9275,-2.9103,-2.9018,-2.9003,-2.8966,-2.8897,-2.8785,-2.8858,-2.8929,-2.8994,-2.9635,-2.9947,-2.9899,-3.0754,-3.1469,-3.2078,-3.2441,-3.2944,-3.3568,-3.3733,-3.3807,-3.3807,-3.3807,-3.3807,-3.3807,-3.3807,-3.3807,-3.3807,-3.3807,-3.3807,-3.3807,-3.3807,-3.3807,-3.3807,-3.3807,-3.3807,-3.3807,-3.3807,-3.3844,-3.3923,-3.4123,-3.4237,-3.4353,-3.4718,-3.5324,-3.5913,-3.6155,-3.6837,-3.7693,-3.8553,-3.8877,-3.926,-4.0138,-4.031,-4.031,-4.031,-4.031,-4.031,-4.031,-4.031,-4.031,-4.031,-4.031,-4.031,-4.031,-4.031,-4.0309,-4.0304,-4.0306,-4.0342,-4.0466,-4.0432,-4.0398,-4.0398,-4.0398,-4.0432,-4.0502,-4.0495,-4.0508,-4.0489,-4.0489,-4.0489,-4.0489,-4.0489,-4.0489,-1.6175,-1.6362,-1.6552,-1.7034,-1.7435,-1.7827,-1.8369,0.0,-1.9411,-1.9522,0.0,-2.0268,0.0,0.0,0.0,-2.1513,-2.2677,-2.3557,-2.3613,-2.4925,-2.6272,-2.7476,-2.7972,-2.8515,-2.9219,-2.8645,-2.8515,-2.9237,-2.8476,-2.8272,-2.8966,-2.8839,-2.8718,-2.8694,-2.8815,-2.8887,-2.8905,-2.9044,-2.9009,-2.8796,-2.9838,-3.0252,-3.0176,-3.185,-3.2632,-3.2794,-3.3476,-3.3807,-3.3807,-3.3807,-3.3807,-3.3807,-3.3807,-3.3807,-3.3807,-3.3807,-3.3807,-3.3807,-3.3807,-3.3807,-3.3807,-3.3807,-3.3807,-3.3807,-3.3807,-3.3981,-3.4171,-3.4185,-3.4325,-3.4486,-3.4513,-3.4791,-3.504,-3.5078,-3.5872,-3.6871,-3.7674,-3.8457,-3.926,-4.0138,-4.031,-4.031,-4.031,-4.031,-4.031,-4.031,-4.031,-4.031,-4.031,-4.031,-4.031,-4.031,-4.031,-4.031,-4.0307,-4.0307,-4.0325,-4.0415,-4.0396,-4.0398,-4.0398,-4.0398,-4.0432,-4.0502,-4.0502,-4.0495,-4.0489,-4.0489,-4.0489,-4.0489,-4.0489,-4.0489,-1.5691,-1.6041,-1.6365,-1.6859,-1.7268,-1.7623,-1.8003,-1.8117,-1.8364,-1.897,0.0,0.0,0.0,0.0,0.0,0.0,-2.1826,-2.2546,-2.2375,-2.3323,-2.4658,-2.6278,-2.6662,-2.7132,-2.8105,-2.7468,-2.7523,-2.88,-2.7629,-2.7437,-2.8713,-2.8687,-2.8662,-2.8694,-2.8743,-2.8743,-2.8669,-2.8712,-2.8576,-2.8308,-2.8781,-2.9274,-2.9834,-3.061,-3.1587,-3.2621,-3.2742,-3.3183,-3.3788,-3.3578,-3.3615,-3.3807,-3.3807,-3.3807,-3.3807,-3.3807,-3.3807,-3.3807,-3.3807,-3.3807,-3.3807,-3.3807,-3.3807,-3.3807,-3.3807,-3.3862,-3.3989,-3.3983,-3.413,-3.4348,-3.4464,-3.4694,-3.4908,-3.4908,-3.5321,-3.6073,-3.7281,-3.7908,-3.8648,-4.0043,-4.031,-4.031,-4.031,-4.031,-4.031,-4.031,-4.031,-4.031,-4.031,-4.031,-4.031,-4.031,-4.031,-4.031,-4.0307,-4.029,-4.0308,-4.0344,-4.0345,-4.0346,-4.0346,-4.0344,-4.0362,-4.0379,-4.0449,-4.0499,-4.0495,-4.0508,-4.0489,-4.0489,-4.0489,-4.0489,-1.5441,-1.5893,-1.635,-1.656,-1.7017,-1.7459,-1.7538,-1.7638,-1.7855,-1.8454,-1.8611,0.0,0.0,0.0,-2.0243,-2.0361,0.0,-2.1652,-2.1491,-2.2275,-2.3474,-2.5083,-2.5522,-2.5997,-2.6781,-2.6141,-2.6363,-2.8041,-2.6886,-2.682,-2.8496,-2.8587,-2.8569,-2.8551,-2.8551,-2.8474,-2.8317,-2.8344,-2.8219,-2.7964,-2.8047,-2.8488,-2.9233,-2.953,-3.0522,-3.2017,-3.2009,-3.2584,-3.3504,-3.3377,-3.3442,-3.3652,-3.377,-3.3807,-3.3807,-3.3807,-3.3807,-3.3807,-3.3807,-3.3807,-3.3807,-3.3807,-3.3807,-3.3807,-3.3807,-3.3807,-3.3807,-3.3807,-3.3947,-3.413,-3.4371,-3.4612,-3.4793,-3.4793,-3.4963,-3.5547,-3.7071,-3.7509,-3.8155,-3.9948,-4.031,-4.031,-4.031,-4.031,-4.031,-4.031,-4.031,-4.031,-4.031,-4.031,-4.031,-4.031,-4.031,-4.0291,-4.0308,-4.031,-4.031,-4.0308,-4.031,-4.031,-4.031,-4.0309,-4.0289,-4.0307,-4.0396,-4.0449,-4.0466,-4.0495,-4.0492,-4.0492,-4.0508,-4.0489,-1.5399,-1.578,-1.6113,-1.5761,-1.6287,-1.6905,-1.6764,-1.7718,-1.8506,-1.795,-1.871,-1.9415,-1.9234,-1.9317,-1.9566,-1.9955,-2.0597,0.0,0.0,-2.1751,-2.2666,-2.3819,-2.4812,-2.5412,-2.5473,-2.4803,-2.5118,-2.6941,-2.6279,-2.6631,-2.8496,-2.8587,-2.8448,-2.8129,-2.8183,-2.8075,-2.784,-2.7954,-2.7886,-2.7624,-2.7936,-2.7982,-2.7813,-2.8827,-2.9761,-3.0621,-3.1379,-3.2138,-3.2862,-3.3176,-3.3316,-3.335,-3.3652,-3.3807,-3.3807,-3.3807,-3.3807,-3.3807,-3.3807,-3.3807,-3.3807,-3.3807,-3.3807,-3.3807,-3.3807,-3.3807,-3.3807,-3.3807,-3.3807,-3.3868,-3.4148,-3.4371,-3.4508,-3.4508,-3.4733,-3.5382,-3.7031,-3.7412,-3.7984,-3.9929,-4.031,-4.031,-4.031,-4.031,-4.031,-4.031,-4.031,-4.031,-4.031,-4.031,-4.031,-4.031,-4.031,-4.031,-4.031,-4.031,-4.031,-4.031,-4.031,-4.031,-4.031,-4.031,-4.0291,-4.0307,-4.0288,-4.0325,-4.0415,-4.0466,-4.0502,-4.0502,-4.0492,-4.0489,-1.5506,-1.581,-1.611,-1.6267,-1.6416,-1.6549,-1.6769,-1.7409,-1.7822,-1.7527,-1.8289,-1.8906,-1.8768,-1.8997,-1.925,-1.9398,-2.0019,-2.055,0.0,-2.1275,-2.2041,-2.2773,0.0,0.0,-2.4664,-2.396,-2.439,-2.6551,-2.5508,-2.5711,-2.7911,-2.8017,-2.7943,-2.7858,-2.7858,-2.7754,-2.747,-2.75,-2.7457,-2.7276,-2.7382,-2.7535,-2.7701,-2.8035,-2.8989,-3.038,-3.0384,-3.1225,-3.2608,-3.2559,-3.2829,-3.3258,-3.3405,-3.3597,-3.3807,-3.3807,-3.3807,-3.3807,-3.3807,-3.3807,-3.3807,-3.3807,-3.3807,-3.3807,-3.3807,-3.3807,-3.3807,-3.3807,-3.3921,-3.4099,-3.4173,-3.448,-3.4693,-3.439,-3.4609,-3.5305,-3.681,-3.7272,-3.7964,-3.9929,-4.031,-4.031,-4.031,-4.031,-4.031,-4.031,-4.031,-4.031,-4.031,-4.031,-4.031,-4.031,-4.031,-4.031,-4.031,-4.031,-4.031,-4.031,-4.031,-4.031,-4.031,-4.031,-4.0291,-4.0291,-4.0308,-4.0307,-4.0325,-4.0396,-4.0449,-4.0502,-4.0499,-4.0511,-1.5574,-1.5924,-1.6234,-1.6265,-1.6435,-1.6541,-1.6574,-1.7017,-1.736,-1.7048,-1.7705,-1.8315,-1.8465,-1.8703,-1.9008,-1.9339,-1.9888,-2.0314,0.0,-2.1165,-2.1735,0.0,0.0,0.0,0.0,-2.2885,-2.3441,-2.5841,-2.4828,-2.5135,-2.7578,-2.7701,-2.7595,-2.7334,-2.7444,-2.7303,-2.6872,-2.7051,-2.7117,-2.7023,-2.7038,-2.7198,-2.7448,-2.7417,-2.8171,-2.9513,-2.9535,-3.0385,-3.179,-3.2022,-3.238,-3.2786,-3.2943,-3.3239,-3.3597,-3.3752,-3.3807,-3.3807,-3.3807,-3.3807,-3.3807,-3.3807,-3.3807,-3.3807,-3.3807,-3.3807,-3.3807,-3.3807,-3.3921,-3.4074,-3.4173,-3.4413,-3.4567,-3.425,-3.4435,-3.5061,-3.6583,-3.7028,-3.7737,-3.9774,-4.0157,-4.0176,-4.0272,-4.031,-4.031,-4.031,-4.031,-4.031,-4.031,-4.031,-4.031,-4.031,-4.031,-4.031,-4.031,-4.031,-4.031,-4.031,-4.031,-4.031,-4.031,-4.031,-4.031,-4.031,-4.0291,-4.029,-4.029,-4.0344,-4.0396,-4.0468,-4.0502,-4.0515]}]]